<?xml version="1.0" encoding="UTF-8" standalone="no" ?>
<gpx xmlns="http://www.topografix.com/GPX/1/1" xmlns:xsi="http://www.w3.org/2001/XMLSchema-instance" xsi:schemaLocation="http://www.topografix.com/GPX/1/1 http://www.topografix.com/GPX/1/1/gpx.xsd" version="1.1" creator="VisuGPX - https://www.visugpx.com">
  <metadata>
    <name>rando lion d\'angers </name>
    <desc><![CDATA[belle rando sur les bord de la mayenne ]]></desc>
  </metadata>
  <trk>
    <name><![CDATA[LION D'ANGERS:49:34]]></name>
    <trkseg>
      <trkpt lat="47.54396" lon="-0.67385">
        <ele>-44.56</ele>
        <time>2014-03-16T07:32:04Z</time>
      </trkpt>
      <trkpt lat="47.54396" lon="-0.67385">
        <ele>-44.56</ele>
        <time>2014-03-16T07:32:05Z</time>
      </trkpt>
      <trkpt lat="47.54397" lon="-0.67384">
        <ele>-40.72</ele>
        <time>2014-03-16T07:32:08Z</time>
      </trkpt>
      <trkpt lat="47.54398" lon="-0.67384">
        <ele>-36.39</ele>
        <time>2014-03-16T07:32:09Z</time>
      </trkpt>
      <trkpt lat="47.54398" lon="-0.67384">
        <ele>-31.59</ele>
        <time>2014-03-16T07:32:10Z</time>
      </trkpt>
      <trkpt lat="47.54398" lon="-0.67384">
        <ele>-27.74</ele>
        <time>2014-03-16T07:32:11Z</time>
      </trkpt>
      <trkpt lat="47.54397" lon="-0.67384">
        <ele>-24.38</ele>
        <time>2014-03-16T07:32:12Z</time>
      </trkpt>
      <trkpt lat="47.54397" lon="-0.67384">
        <ele>-20.53</ele>
        <time>2014-03-16T07:32:13Z</time>
      </trkpt>
      <trkpt lat="47.54397" lon="-0.67385">
        <ele>-16.69</ele>
        <time>2014-03-16T07:32:14Z</time>
      </trkpt>
      <trkpt lat="47.54397" lon="-0.67385">
        <ele>-13.32</ele>
        <time>2014-03-16T07:32:15Z</time>
      </trkpt>
      <trkpt lat="47.54398" lon="-0.67386">
        <ele>-10.44</ele>
        <time>2014-03-16T07:32:16Z</time>
      </trkpt>
      <trkpt lat="47.54398" lon="-0.67386">
        <ele>-6.59</ele>
        <time>2014-03-16T07:32:17Z</time>
      </trkpt>
      <trkpt lat="47.54398" lon="-0.67386">
        <ele>-3.71</ele>
        <time>2014-03-16T07:32:18Z</time>
      </trkpt>
      <trkpt lat="47.54398" lon="-0.67386">
        <ele>2.06</ele>
        <time>2014-03-16T07:32:20Z</time>
      </trkpt>
      <trkpt lat="47.54398" lon="-0.67386">
        <ele>7.83</ele>
        <time>2014-03-16T07:32:22Z</time>
      </trkpt>
      <trkpt lat="47.54398" lon="-0.67385">
        <ele>13.12</ele>
        <time>2014-03-16T07:32:24Z</time>
      </trkpt>
      <trkpt lat="47.54398" lon="-0.67385">
        <ele>17.44</ele>
        <time>2014-03-16T07:32:26Z</time>
      </trkpt>
      <trkpt lat="47.54398" lon="-0.67385">
        <ele>22.25</ele>
        <time>2014-03-16T07:32:28Z</time>
      </trkpt>
      <trkpt lat="47.54398" lon="-0.67385">
        <ele>26.09</ele>
        <time>2014-03-16T07:32:30Z</time>
      </trkpt>
      <trkpt lat="47.54398" lon="-0.67385">
        <ele>30.42</ele>
        <time>2014-03-16T07:32:32Z</time>
      </trkpt>
      <trkpt lat="47.54398" lon="-0.67384">
        <ele>34.26</ele>
        <time>2014-03-16T07:32:34Z</time>
      </trkpt>
      <trkpt lat="47.54397" lon="-0.67384">
        <ele>37.63</ele>
        <time>2014-03-16T07:32:36Z</time>
      </trkpt>
      <trkpt lat="47.54397" lon="-0.67384">
        <ele>40.99</ele>
        <time>2014-03-16T07:32:38Z</time>
      </trkpt>
      <trkpt lat="47.54397" lon="-0.67383">
        <ele>43.88</ele>
        <time>2014-03-16T07:32:40Z</time>
      </trkpt>
      <trkpt lat="47.54397" lon="-0.67383">
        <ele>47.24</ele>
        <time>2014-03-16T07:32:42Z</time>
      </trkpt>
      <trkpt lat="47.54397" lon="-0.67383">
        <ele>50.61</ele>
        <time>2014-03-16T07:32:45Z</time>
      </trkpt>
      <trkpt lat="47.54396" lon="-0.67383">
        <ele>54.93</ele>
        <time>2014-03-16T07:32:48Z</time>
      </trkpt>
      <trkpt lat="47.54396" lon="-0.67383">
        <ele>58.3</ele>
        <time>2014-03-16T07:32:52Z</time>
      </trkpt>
      <trkpt lat="47.54396" lon="-0.67383">
        <ele>62.14</ele>
        <time>2014-03-16T07:32:56Z</time>
      </trkpt>
      <trkpt lat="47.54395" lon="-0.67383">
        <ele>65.51</ele>
        <time>2014-03-16T07:33:00Z</time>
      </trkpt>
      <trkpt lat="47.54396" lon="-0.67382">
        <ele>66.47</ele>
        <time>2014-03-16T07:33:02Z</time>
      </trkpt>
      <trkpt lat="47.54396" lon="-0.67382">
        <ele>69.35</ele>
        <time>2014-03-16T07:33:06Z</time>
      </trkpt>
      <trkpt lat="47.54396" lon="-0.67382">
        <ele>69.35</ele>
        <time>2014-03-16T07:33:07Z</time>
      </trkpt>
      <trkpt lat="47.54396" lon="-0.67383">
        <ele>72.24</ele>
        <time>2014-03-16T07:33:12Z</time>
      </trkpt>
      <trkpt lat="47.54397" lon="-0.67383">
        <ele>75.6</ele>
        <time>2014-03-16T07:33:20Z</time>
      </trkpt>
      <trkpt lat="47.54398" lon="-0.67383">
        <ele>78.48</ele>
        <time>2014-03-16T07:33:30Z</time>
      </trkpt>
      <trkpt lat="47.54399" lon="-0.67382">
        <ele>81.85</ele>
        <time>2014-03-16T07:33:47Z</time>
      </trkpt>
      <trkpt lat="47.54399" lon="-0.67382">
        <ele>84.25</ele>
        <time>2014-03-16T07:34:13Z</time>
      </trkpt>
      <trkpt lat="47.54399" lon="-0.67382">
        <ele>83.77</ele>
        <time>2014-03-16T07:34:34Z</time>
      </trkpt>
      <trkpt lat="47.54399" lon="-0.67382">
        <ele>84.25</ele>
        <time>2014-03-16T07:34:56Z</time>
      </trkpt>
      <trkpt lat="47.54398" lon="-0.67382">
        <ele>84.25</ele>
        <time>2014-03-16T07:35:15Z</time>
      </trkpt>
      <trkpt lat="47.54398" lon="-0.67382">
        <ele>83.77</ele>
        <time>2014-03-16T07:35:36Z</time>
      </trkpt>
      <trkpt lat="47.54398" lon="-0.67382">
        <ele>84.25</ele>
        <time>2014-03-16T07:35:55Z</time>
      </trkpt>
      <trkpt lat="47.54398" lon="-0.67382">
        <ele>83.77</ele>
        <time>2014-03-16T07:36:18Z</time>
      </trkpt>
      <trkpt lat="47.54398" lon="-0.67382">
        <ele>83.77</ele>
        <time>2014-03-16T07:36:38Z</time>
      </trkpt>
      <trkpt lat="47.54398" lon="-0.67382">
        <ele>83.77</ele>
        <time>2014-03-16T07:37:00Z</time>
      </trkpt>
      <trkpt lat="47.54398" lon="-0.67382">
        <ele>84.25</ele>
        <time>2014-03-16T07:37:21Z</time>
      </trkpt>
      <trkpt lat="47.54398" lon="-0.67382">
        <ele>83.77</ele>
        <time>2014-03-16T07:37:41Z</time>
      </trkpt>
      <trkpt lat="47.54398" lon="-0.67382">
        <ele>83.29</ele>
        <time>2014-03-16T07:37:58Z</time>
      </trkpt>
      <trkpt lat="47.54398" lon="-0.67382">
        <ele>83.77</ele>
        <time>2014-03-16T07:38:17Z</time>
      </trkpt>
      <trkpt lat="47.54398" lon="-0.67382">
        <ele>83.77</ele>
        <time>2014-03-16T07:38:35Z</time>
      </trkpt>
      <trkpt lat="47.54398" lon="-0.67382">
        <ele>84.25</ele>
        <time>2014-03-16T07:38:54Z</time>
      </trkpt>
      <trkpt lat="47.54397" lon="-0.67383">
        <ele>84.25</ele>
        <time>2014-03-16T07:39:12Z</time>
      </trkpt>
      <trkpt lat="47.54397" lon="-0.67383">
        <ele>84.25</ele>
        <time>2014-03-16T07:39:32Z</time>
      </trkpt>
      <trkpt lat="47.54397" lon="-0.67383">
        <ele>83.77</ele>
        <time>2014-03-16T07:39:41Z</time>
      </trkpt>
      <trkpt lat="47.54397" lon="-0.67383">
        <ele>84.25</ele>
        <time>2014-03-16T07:39:51Z</time>
      </trkpt>
      <trkpt lat="47.54397" lon="-0.67383">
        <ele>83.29</ele>
        <time>2014-03-16T07:40:00Z</time>
      </trkpt>
      <trkpt lat="47.54398" lon="-0.67381">
        <ele>83.77</ele>
        <time>2014-03-16T07:40:13Z</time>
      </trkpt>
      <trkpt lat="47.54397" lon="-0.67381">
        <ele>83.77</ele>
        <time>2014-03-16T07:40:20Z</time>
      </trkpt>
      <trkpt lat="47.54397" lon="-0.67381">
        <ele>82.33</ele>
        <time>2014-03-16T07:40:23Z</time>
      </trkpt>
      <trkpt lat="47.54397" lon="-0.67382">
        <ele>83.77</ele>
        <time>2014-03-16T07:40:33Z</time>
      </trkpt>
      <trkpt lat="47.54396" lon="-0.67382">
        <ele>79.45</ele>
        <time>2014-03-16T07:40:38Z</time>
      </trkpt>
      <trkpt lat="47.54408" lon="-0.67396">
        <ele>82.33</ele>
        <time>2014-03-16T07:49:30Z</time>
      </trkpt>
      <trkpt lat="47.54408" lon="-0.67395">
        <ele>81.37</ele>
        <time>2014-03-16T07:49:31Z</time>
      </trkpt>
      <trkpt lat="47.54408" lon="-0.67396">
        <ele>81.37</ele>
        <time>2014-03-16T07:49:45Z</time>
      </trkpt>
      <trkpt lat="47.54405" lon="-0.67399">
        <ele>82.33</ele>
        <time>2014-03-16T07:50:00Z</time>
      </trkpt>
      <trkpt lat="47.54401" lon="-0.67402">
        <ele>82.33</ele>
        <time>2014-03-16T07:50:18Z</time>
      </trkpt>
      <trkpt lat="47.54398" lon="-0.67402">
        <ele>82.81</ele>
        <time>2014-03-16T07:50:33Z</time>
      </trkpt>
      <trkpt lat="47.54397" lon="-0.67401">
        <ele>83.77</ele>
        <time>2014-03-16T07:50:35Z</time>
      </trkpt>
      <trkpt lat="47.54394" lon="-0.67401">
        <ele>87.14</ele>
        <time>2014-03-16T07:50:48Z</time>
      </trkpt>
      <trkpt lat="47.54393" lon="-0.674">
        <ele>88.1</ele>
        <time>2014-03-16T07:51:01Z</time>
      </trkpt>
      <trkpt lat="47.54393" lon="-0.67398">
        <ele>90.02</ele>
        <time>2014-03-16T07:51:12Z</time>
      </trkpt>
      <trkpt lat="47.54393" lon="-0.67398">
        <ele>90.02</ele>
        <time>2014-03-16T07:51:28Z</time>
      </trkpt>
      <trkpt lat="47.54393" lon="-0.67398">
        <ele>89.06</ele>
        <time>2014-03-16T07:51:46Z</time>
      </trkpt>
      <trkpt lat="47.54393" lon="-0.67396">
        <ele>90.02</ele>
        <time>2014-03-16T07:52:02Z</time>
      </trkpt>
      <trkpt lat="47.54393" lon="-0.67396">
        <ele>89.54</ele>
        <time>2014-03-16T07:52:17Z</time>
      </trkpt>
      <trkpt lat="47.54393" lon="-0.67395">
        <ele>89.06</ele>
        <time>2014-03-16T07:52:34Z</time>
      </trkpt>
      <trkpt lat="47.54393" lon="-0.67395">
        <ele>90.02</ele>
        <time>2014-03-16T07:52:49Z</time>
      </trkpt>
      <trkpt lat="47.54393" lon="-0.67395">
        <ele>90.02</ele>
        <time>2014-03-16T07:53:07Z</time>
      </trkpt>
      <trkpt lat="47.54394" lon="-0.67395">
        <ele>90.02</ele>
        <time>2014-03-16T07:53:17Z</time>
      </trkpt>
      <trkpt lat="47.54394" lon="-0.67395">
        <ele>89.54</ele>
        <time>2014-03-16T07:53:31Z</time>
      </trkpt>
      <trkpt lat="47.54394" lon="-0.67395">
        <ele>90.02</ele>
        <time>2014-03-16T07:53:46Z</time>
      </trkpt>
      <trkpt lat="47.54394" lon="-0.67394">
        <ele>90.02</ele>
        <time>2014-03-16T07:54:03Z</time>
      </trkpt>
      <trkpt lat="47.54394" lon="-0.67394">
        <ele>89.54</ele>
        <time>2014-03-16T07:54:18Z</time>
      </trkpt>
      <trkpt lat="47.54394" lon="-0.67393">
        <ele>89.54</ele>
        <time>2014-03-16T07:54:32Z</time>
      </trkpt>
      <trkpt lat="47.54394" lon="-0.67393">
        <ele>90.98</ele>
        <time>2014-03-16T07:54:50Z</time>
      </trkpt>
      <trkpt lat="47.54394" lon="-0.67392">
        <ele>90.02</ele>
        <time>2014-03-16T07:55:08Z</time>
      </trkpt>
      <trkpt lat="47.54394" lon="-0.67392">
        <ele>89.06</ele>
        <time>2014-03-16T07:55:25Z</time>
      </trkpt>
      <trkpt lat="47.54394" lon="-0.67392">
        <ele>89.54</ele>
        <time>2014-03-16T07:55:37Z</time>
      </trkpt>
      <trkpt lat="47.54394" lon="-0.67392">
        <ele>90.02</ele>
        <time>2014-03-16T07:55:55Z</time>
      </trkpt>
      <trkpt lat="47.54394" lon="-0.67392">
        <ele>89.54</ele>
        <time>2014-03-16T07:56:11Z</time>
      </trkpt>
      <trkpt lat="47.54394" lon="-0.67389">
        <ele>89.54</ele>
        <time>2014-03-16T07:56:24Z</time>
        <extensions>
          <gpxtpx:TrackPointExtension xmlns:gpxtpx="http://www.garmin.com/xmlschemas/TrackPointExtension/v1">
            <gpxtpx:hr>126</gpxtpx:hr>
          </gpxtpx:TrackPointExtension>
        </extensions>
      </trkpt>
      <trkpt lat="47.54394" lon="-0.67389">
        <ele>89.54</ele>
        <time>2014-03-16T07:56:37Z</time>
        <extensions>
          <gpxtpx:TrackPointExtension xmlns:gpxtpx="http://www.garmin.com/xmlschemas/TrackPointExtension/v1">
            <gpxtpx:hr>124</gpxtpx:hr>
          </gpxtpx:TrackPointExtension>
        </extensions>
      </trkpt>
      <trkpt lat="47.54394" lon="-0.67389">
        <ele>89.54</ele>
        <time>2014-03-16T07:56:54Z</time>
        <extensions>
          <gpxtpx:TrackPointExtension xmlns:gpxtpx="http://www.garmin.com/xmlschemas/TrackPointExtension/v1">
            <gpxtpx:hr>114</gpxtpx:hr>
          </gpxtpx:TrackPointExtension>
        </extensions>
      </trkpt>
      <trkpt lat="47.54394" lon="-0.67389">
        <ele>89.54</ele>
        <time>2014-03-16T07:57:08Z</time>
        <extensions>
          <gpxtpx:TrackPointExtension xmlns:gpxtpx="http://www.garmin.com/xmlschemas/TrackPointExtension/v1">
            <gpxtpx:hr>114</gpxtpx:hr>
          </gpxtpx:TrackPointExtension>
        </extensions>
      </trkpt>
      <trkpt lat="47.54394" lon="-0.67389">
        <ele>89.54</ele>
        <time>2014-03-16T07:57:26Z</time>
        <extensions>
          <gpxtpx:TrackPointExtension xmlns:gpxtpx="http://www.garmin.com/xmlschemas/TrackPointExtension/v1">
            <gpxtpx:hr>111</gpxtpx:hr>
          </gpxtpx:TrackPointExtension>
        </extensions>
      </trkpt>
      <trkpt lat="47.54394" lon="-0.67389">
        <ele>89.54</ele>
        <time>2014-03-16T07:57:40Z</time>
        <extensions>
          <gpxtpx:TrackPointExtension xmlns:gpxtpx="http://www.garmin.com/xmlschemas/TrackPointExtension/v1">
            <gpxtpx:hr>112</gpxtpx:hr>
          </gpxtpx:TrackPointExtension>
        </extensions>
      </trkpt>
      <trkpt lat="47.54394" lon="-0.67389">
        <ele>90.02</ele>
        <time>2014-03-16T07:57:57Z</time>
        <extensions>
          <gpxtpx:TrackPointExtension xmlns:gpxtpx="http://www.garmin.com/xmlschemas/TrackPointExtension/v1">
            <gpxtpx:hr>102</gpxtpx:hr>
          </gpxtpx:TrackPointExtension>
        </extensions>
      </trkpt>
      <trkpt lat="47.54394" lon="-0.67389">
        <ele>89.54</ele>
        <time>2014-03-16T07:58:14Z</time>
        <extensions>
          <gpxtpx:TrackPointExtension xmlns:gpxtpx="http://www.garmin.com/xmlschemas/TrackPointExtension/v1">
            <gpxtpx:hr>106</gpxtpx:hr>
          </gpxtpx:TrackPointExtension>
        </extensions>
      </trkpt>
      <trkpt lat="47.54394" lon="-0.67389">
        <ele>89.06</ele>
        <time>2014-03-16T07:58:35Z</time>
        <extensions>
          <gpxtpx:TrackPointExtension xmlns:gpxtpx="http://www.garmin.com/xmlschemas/TrackPointExtension/v1">
            <gpxtpx:hr>93</gpxtpx:hr>
          </gpxtpx:TrackPointExtension>
        </extensions>
      </trkpt>
      <trkpt lat="47.54394" lon="-0.67389">
        <ele>89.54</ele>
        <time>2014-03-16T07:58:53Z</time>
        <extensions>
          <gpxtpx:TrackPointExtension xmlns:gpxtpx="http://www.garmin.com/xmlschemas/TrackPointExtension/v1">
            <gpxtpx:hr>101</gpxtpx:hr>
          </gpxtpx:TrackPointExtension>
        </extensions>
      </trkpt>
      <trkpt lat="47.54394" lon="-0.67389">
        <ele>89.54</ele>
        <time>2014-03-16T07:59:13Z</time>
        <extensions>
          <gpxtpx:TrackPointExtension xmlns:gpxtpx="http://www.garmin.com/xmlschemas/TrackPointExtension/v1">
            <gpxtpx:hr>102</gpxtpx:hr>
          </gpxtpx:TrackPointExtension>
        </extensions>
      </trkpt>
      <trkpt lat="47.54394" lon="-0.67389">
        <ele>89.06</ele>
        <time>2014-03-16T07:59:34Z</time>
        <extensions>
          <gpxtpx:TrackPointExtension xmlns:gpxtpx="http://www.garmin.com/xmlschemas/TrackPointExtension/v1">
            <gpxtpx:hr>97</gpxtpx:hr>
          </gpxtpx:TrackPointExtension>
        </extensions>
      </trkpt>
      <trkpt lat="47.54395" lon="-0.67388">
        <ele>89.54</ele>
        <time>2014-03-16T07:59:54Z</time>
        <extensions>
          <gpxtpx:TrackPointExtension xmlns:gpxtpx="http://www.garmin.com/xmlschemas/TrackPointExtension/v1">
            <gpxtpx:hr>91</gpxtpx:hr>
          </gpxtpx:TrackPointExtension>
        </extensions>
      </trkpt>
      <trkpt lat="47.54395" lon="-0.67388">
        <ele>89.54</ele>
        <time>2014-03-16T08:00:10Z</time>
        <extensions>
          <gpxtpx:TrackPointExtension xmlns:gpxtpx="http://www.garmin.com/xmlschemas/TrackPointExtension/v1">
            <gpxtpx:hr>99</gpxtpx:hr>
          </gpxtpx:TrackPointExtension>
        </extensions>
      </trkpt>
      <trkpt lat="47.54395" lon="-0.67388">
        <ele>89.54</ele>
        <time>2014-03-16T08:00:29Z</time>
        <extensions>
          <gpxtpx:TrackPointExtension xmlns:gpxtpx="http://www.garmin.com/xmlschemas/TrackPointExtension/v1">
            <gpxtpx:hr>94</gpxtpx:hr>
          </gpxtpx:TrackPointExtension>
        </extensions>
      </trkpt>
      <trkpt lat="47.54395" lon="-0.67388">
        <ele>89.54</ele>
        <time>2014-03-16T08:00:45Z</time>
        <extensions>
          <gpxtpx:TrackPointExtension xmlns:gpxtpx="http://www.garmin.com/xmlschemas/TrackPointExtension/v1">
            <gpxtpx:hr>96</gpxtpx:hr>
          </gpxtpx:TrackPointExtension>
        </extensions>
      </trkpt>
      <trkpt lat="47.54395" lon="-0.67388">
        <ele>89.54</ele>
        <time>2014-03-16T08:01:02Z</time>
        <extensions>
          <gpxtpx:TrackPointExtension xmlns:gpxtpx="http://www.garmin.com/xmlschemas/TrackPointExtension/v1">
            <gpxtpx:hr>102</gpxtpx:hr>
          </gpxtpx:TrackPointExtension>
        </extensions>
      </trkpt>
      <trkpt lat="47.54395" lon="-0.67388">
        <ele>90.02</ele>
        <time>2014-03-16T08:01:23Z</time>
        <extensions>
          <gpxtpx:TrackPointExtension xmlns:gpxtpx="http://www.garmin.com/xmlschemas/TrackPointExtension/v1">
            <gpxtpx:hr>95</gpxtpx:hr>
          </gpxtpx:TrackPointExtension>
        </extensions>
      </trkpt>
      <trkpt lat="47.54396" lon="-0.67388">
        <ele>89.54</ele>
        <time>2014-03-16T08:01:48Z</time>
        <extensions>
          <gpxtpx:TrackPointExtension xmlns:gpxtpx="http://www.garmin.com/xmlschemas/TrackPointExtension/v1">
            <gpxtpx:hr>95</gpxtpx:hr>
          </gpxtpx:TrackPointExtension>
        </extensions>
      </trkpt>
      <trkpt lat="47.54396" lon="-0.67388">
        <ele>89.54</ele>
        <time>2014-03-16T08:02:08Z</time>
        <extensions>
          <gpxtpx:TrackPointExtension xmlns:gpxtpx="http://www.garmin.com/xmlschemas/TrackPointExtension/v1">
            <gpxtpx:hr>90</gpxtpx:hr>
          </gpxtpx:TrackPointExtension>
        </extensions>
      </trkpt>
      <trkpt lat="47.54396" lon="-0.67387">
        <ele>90.02</ele>
        <time>2014-03-16T08:02:28Z</time>
        <extensions>
          <gpxtpx:TrackPointExtension xmlns:gpxtpx="http://www.garmin.com/xmlschemas/TrackPointExtension/v1">
            <gpxtpx:hr>99</gpxtpx:hr>
          </gpxtpx:TrackPointExtension>
        </extensions>
      </trkpt>
      <trkpt lat="47.54396" lon="-0.67387">
        <ele>89.54</ele>
        <time>2014-03-16T08:02:54Z</time>
        <extensions>
          <gpxtpx:TrackPointExtension xmlns:gpxtpx="http://www.garmin.com/xmlschemas/TrackPointExtension/v1">
            <gpxtpx:hr>95</gpxtpx:hr>
          </gpxtpx:TrackPointExtension>
        </extensions>
      </trkpt>
      <trkpt lat="47.54396" lon="-0.67387">
        <ele>89.54</ele>
        <time>2014-03-16T08:03:18Z</time>
        <extensions>
          <gpxtpx:TrackPointExtension xmlns:gpxtpx="http://www.garmin.com/xmlschemas/TrackPointExtension/v1">
            <gpxtpx:hr>94</gpxtpx:hr>
          </gpxtpx:TrackPointExtension>
        </extensions>
      </trkpt>
      <trkpt lat="47.54396" lon="-0.67387">
        <ele>87.62</ele>
        <time>2014-03-16T08:03:32Z</time>
        <extensions>
          <gpxtpx:TrackPointExtension xmlns:gpxtpx="http://www.garmin.com/xmlschemas/TrackPointExtension/v1">
            <gpxtpx:hr>93</gpxtpx:hr>
          </gpxtpx:TrackPointExtension>
        </extensions>
      </trkpt>
      <trkpt lat="47.54396" lon="-0.67387">
        <ele>88.58</ele>
        <time>2014-03-16T08:03:38Z</time>
        <extensions>
          <gpxtpx:TrackPointExtension xmlns:gpxtpx="http://www.garmin.com/xmlschemas/TrackPointExtension/v1">
            <gpxtpx:hr>93</gpxtpx:hr>
          </gpxtpx:TrackPointExtension>
        </extensions>
      </trkpt>
      <trkpt lat="47.54396" lon="-0.67387">
        <ele>90.02</ele>
        <time>2014-03-16T08:03:41Z</time>
        <extensions>
          <gpxtpx:TrackPointExtension xmlns:gpxtpx="http://www.garmin.com/xmlschemas/TrackPointExtension/v1">
            <gpxtpx:hr>94</gpxtpx:hr>
          </gpxtpx:TrackPointExtension>
        </extensions>
      </trkpt>
      <trkpt lat="47.54396" lon="-0.67387">
        <ele>90.02</ele>
        <time>2014-03-16T08:03:47Z</time>
        <extensions>
          <gpxtpx:TrackPointExtension xmlns:gpxtpx="http://www.garmin.com/xmlschemas/TrackPointExtension/v1">
            <gpxtpx:hr>91</gpxtpx:hr>
          </gpxtpx:TrackPointExtension>
        </extensions>
      </trkpt>
      <trkpt lat="47.54395" lon="-0.67389">
        <ele>90.02</ele>
        <time>2014-03-16T08:03:52Z</time>
        <extensions>
          <gpxtpx:TrackPointExtension xmlns:gpxtpx="http://www.garmin.com/xmlschemas/TrackPointExtension/v1">
            <gpxtpx:hr>91</gpxtpx:hr>
          </gpxtpx:TrackPointExtension>
        </extensions>
      </trkpt>
      <trkpt lat="47.54395" lon="-0.67391">
        <ele>89.54</ele>
        <time>2014-03-16T08:04:00Z</time>
        <extensions>
          <gpxtpx:TrackPointExtension xmlns:gpxtpx="http://www.garmin.com/xmlschemas/TrackPointExtension/v1">
            <gpxtpx:hr>96</gpxtpx:hr>
          </gpxtpx:TrackPointExtension>
        </extensions>
      </trkpt>
      <trkpt lat="47.54392" lon="-0.67404">
        <ele>90.02</ele>
        <time>2014-03-16T08:04:06Z</time>
        <extensions>
          <gpxtpx:TrackPointExtension xmlns:gpxtpx="http://www.garmin.com/xmlschemas/TrackPointExtension/v1">
            <gpxtpx:hr>101</gpxtpx:hr>
          </gpxtpx:TrackPointExtension>
        </extensions>
      </trkpt>
      <trkpt lat="47.54393" lon="-0.67412">
        <ele>89.54</ele>
        <time>2014-03-16T08:04:09Z</time>
      </trkpt>
      <trkpt lat="47.54404" lon="-0.67434">
        <ele>89.06</ele>
        <time>2014-03-16T08:04:16Z</time>
      </trkpt>
      <trkpt lat="47.54415" lon="-0.67446">
        <ele>88.1</ele>
        <time>2014-03-16T08:04:21Z</time>
      </trkpt>
      <trkpt lat="47.54432" lon="-0.67436">
        <ele>87.14</ele>
        <time>2014-03-16T08:04:26Z</time>
      </trkpt>
      <trkpt lat="47.54452" lon="-0.67407">
        <ele>87.14</ele>
        <time>2014-03-16T08:04:33Z</time>
      </trkpt>
      <trkpt lat="47.54461" lon="-0.67365">
        <ele>87.14</ele>
        <time>2014-03-16T08:04:40Z</time>
      </trkpt>
      <trkpt lat="47.54463" lon="-0.67352">
        <ele>87.14</ele>
        <time>2014-03-16T08:04:42Z</time>
      </trkpt>
      <trkpt lat="47.54465" lon="-0.67321">
        <ele>87.62</ele>
        <time>2014-03-16T08:04:47Z</time>
        <extensions>
          <gpxtpx:TrackPointExtension xmlns:gpxtpx="http://www.garmin.com/xmlschemas/TrackPointExtension/v1">
            <gpxtpx:hr>106</gpxtpx:hr>
          </gpxtpx:TrackPointExtension>
        </extensions>
      </trkpt>
      <trkpt lat="47.54468" lon="-0.673">
        <ele>87.14</ele>
        <time>2014-03-16T08:04:50Z</time>
        <extensions>
          <gpxtpx:TrackPointExtension xmlns:gpxtpx="http://www.garmin.com/xmlschemas/TrackPointExtension/v1">
            <gpxtpx:hr>107</gpxtpx:hr>
          </gpxtpx:TrackPointExtension>
        </extensions>
      </trkpt>
      <trkpt lat="47.54474" lon="-0.67268">
        <ele>86.66</ele>
        <time>2014-03-16T08:04:55Z</time>
        <extensions>
          <gpxtpx:TrackPointExtension xmlns:gpxtpx="http://www.garmin.com/xmlschemas/TrackPointExtension/v1">
            <gpxtpx:hr>113</gpxtpx:hr>
          </gpxtpx:TrackPointExtension>
        </extensions>
      </trkpt>
      <trkpt lat="47.54476" lon="-0.67256">
        <ele>87.14</ele>
        <time>2014-03-16T08:04:57Z</time>
        <extensions>
          <gpxtpx:TrackPointExtension xmlns:gpxtpx="http://www.garmin.com/xmlschemas/TrackPointExtension/v1">
            <gpxtpx:hr>111</gpxtpx:hr>
          </gpxtpx:TrackPointExtension>
        </extensions>
      </trkpt>
      <trkpt lat="47.54493" lon="-0.67203">
        <ele>87.14</ele>
        <time>2014-03-16T08:05:06Z</time>
        <extensions>
          <gpxtpx:TrackPointExtension xmlns:gpxtpx="http://www.garmin.com/xmlschemas/TrackPointExtension/v1">
            <gpxtpx:hr>106</gpxtpx:hr>
          </gpxtpx:TrackPointExtension>
        </extensions>
      </trkpt>
      <trkpt lat="47.54499" lon="-0.67184">
        <ele>86.18</ele>
        <time>2014-03-16T08:05:09Z</time>
      </trkpt>
      <trkpt lat="47.54532" lon="-0.67134">
        <ele>84.25</ele>
        <time>2014-03-16T08:05:18Z</time>
      </trkpt>
      <trkpt lat="47.5455" lon="-0.67109">
        <ele>84.25</ele>
        <time>2014-03-16T08:05:22Z</time>
      </trkpt>
      <trkpt lat="47.54585" lon="-0.67067">
        <ele>82.81</ele>
        <time>2014-03-16T08:05:29Z</time>
      </trkpt>
      <trkpt lat="47.54626" lon="-0.67016">
        <ele>80.89</ele>
        <time>2014-03-16T08:05:37Z</time>
      </trkpt>
      <trkpt lat="47.5465" lon="-0.66982">
        <ele>79.45</ele>
        <time>2014-03-16T08:05:42Z</time>
      </trkpt>
      <trkpt lat="47.54693" lon="-0.66944">
        <ele>78</ele>
        <time>2014-03-16T08:05:49Z</time>
      </trkpt>
      <trkpt lat="47.54726" lon="-0.66913">
        <ele>76.08</ele>
        <time>2014-03-16T08:05:54Z</time>
      </trkpt>
      <trkpt lat="47.5478" lon="-0.6687">
        <ele>74.16</ele>
        <time>2014-03-16T08:06:02Z</time>
      </trkpt>
      <trkpt lat="47.54838" lon="-0.66827">
        <ele>72.24</ele>
        <time>2014-03-16T08:06:11Z</time>
      </trkpt>
      <trkpt lat="47.54871" lon="-0.66799">
        <ele>70.79</ele>
        <time>2014-03-16T08:06:17Z</time>
      </trkpt>
      <trkpt lat="47.54926" lon="-0.66759">
        <ele>69.35</ele>
        <time>2014-03-16T08:06:26Z</time>
      </trkpt>
      <trkpt lat="47.54974" lon="-0.66725">
        <ele>67.43</ele>
        <time>2014-03-16T08:06:34Z</time>
      </trkpt>
      <trkpt lat="47.55016" lon="-0.66696">
        <ele>65.99</ele>
        <time>2014-03-16T08:06:40Z</time>
      </trkpt>
      <trkpt lat="47.55049" lon="-0.66685">
        <ele>66.95</ele>
        <time>2014-03-16T08:06:45Z</time>
      </trkpt>
      <trkpt lat="47.55117" lon="-0.66684">
        <ele>67.91</ele>
        <time>2014-03-16T08:06:56Z</time>
      </trkpt>
      <trkpt lat="47.5515" lon="-0.66686">
        <ele>68.39</ele>
        <time>2014-03-16T08:07:02Z</time>
      </trkpt>
      <trkpt lat="47.55203" lon="-0.66712">
        <ele>70.31</ele>
        <time>2014-03-16T08:07:12Z</time>
      </trkpt>
      <trkpt lat="47.55253" lon="-0.66742">
        <ele>70.79</ele>
        <time>2014-03-16T08:07:22Z</time>
      </trkpt>
      <trkpt lat="47.55308" lon="-0.66776">
        <ele>72.24</ele>
        <time>2014-03-16T08:07:33Z</time>
      </trkpt>
      <trkpt lat="47.55351" lon="-0.66807">
        <ele>73.68</ele>
        <time>2014-03-16T08:07:42Z</time>
      </trkpt>
      <trkpt lat="47.55387" lon="-0.66836">
        <ele>74.64</ele>
        <time>2014-03-16T08:07:50Z</time>
      </trkpt>
      <trkpt lat="47.55432" lon="-0.66871">
        <ele>74.64</ele>
        <time>2014-03-16T08:08:00Z</time>
      </trkpt>
      <trkpt lat="47.55446" lon="-0.66879">
        <ele>74.64</ele>
        <time>2014-03-16T08:08:03Z</time>
      </trkpt>
      <trkpt lat="47.55487" lon="-0.6691">
        <ele>75.6</ele>
        <time>2014-03-16T08:08:12Z</time>
      </trkpt>
      <trkpt lat="47.55541" lon="-0.66949">
        <ele>73.2</ele>
        <time>2014-03-16T08:08:23Z</time>
      </trkpt>
      <trkpt lat="47.55588" lon="-0.66984">
        <ele>71.76</ele>
        <time>2014-03-16T08:08:32Z</time>
      </trkpt>
      <trkpt lat="47.55645" lon="-0.67004">
        <ele>70.31</ele>
        <time>2014-03-16T08:08:41Z</time>
        <extensions>
          <gpxtpx:TrackPointExtension xmlns:gpxtpx="http://www.garmin.com/xmlschemas/TrackPointExtension/v1">
            <gpxtpx:hr>129</gpxtpx:hr>
          </gpxtpx:TrackPointExtension>
        </extensions>
      </trkpt>
      <trkpt lat="47.55701" lon="-0.67014">
        <ele>67.91</ele>
        <time>2014-03-16T08:08:49Z</time>
        <extensions>
          <gpxtpx:TrackPointExtension xmlns:gpxtpx="http://www.garmin.com/xmlschemas/TrackPointExtension/v1">
            <gpxtpx:hr>119</gpxtpx:hr>
          </gpxtpx:TrackPointExtension>
        </extensions>
      </trkpt>
      <trkpt lat="47.55749" lon="-0.6702">
        <ele>66.47</ele>
        <time>2014-03-16T08:08:56Z</time>
        <extensions>
          <gpxtpx:TrackPointExtension xmlns:gpxtpx="http://www.garmin.com/xmlschemas/TrackPointExtension/v1">
            <gpxtpx:hr>117</gpxtpx:hr>
          </gpxtpx:TrackPointExtension>
        </extensions>
      </trkpt>
      <trkpt lat="47.55792" lon="-0.67025">
        <ele>65.99</ele>
        <time>2014-03-16T08:09:03Z</time>
        <extensions>
          <gpxtpx:TrackPointExtension xmlns:gpxtpx="http://www.garmin.com/xmlschemas/TrackPointExtension/v1">
            <gpxtpx:hr>116</gpxtpx:hr>
          </gpxtpx:TrackPointExtension>
        </extensions>
      </trkpt>
      <trkpt lat="47.55816" lon="-0.67011">
        <ele>65.03</ele>
        <time>2014-03-16T08:09:08Z</time>
        <extensions>
          <gpxtpx:TrackPointExtension xmlns:gpxtpx="http://www.garmin.com/xmlschemas/TrackPointExtension/v1">
            <gpxtpx:hr>113</gpxtpx:hr>
          </gpxtpx:TrackPointExtension>
        </extensions>
      </trkpt>
      <trkpt lat="47.55823" lon="-0.67">
        <ele>65.03</ele>
        <time>2014-03-16T08:09:10Z</time>
        <extensions>
          <gpxtpx:TrackPointExtension xmlns:gpxtpx="http://www.garmin.com/xmlschemas/TrackPointExtension/v1">
            <gpxtpx:hr>113</gpxtpx:hr>
          </gpxtpx:TrackPointExtension>
        </extensions>
      </trkpt>
      <trkpt lat="47.55834" lon="-0.66982">
        <ele>64.07</ele>
        <time>2014-03-16T08:09:15Z</time>
        <extensions>
          <gpxtpx:TrackPointExtension xmlns:gpxtpx="http://www.garmin.com/xmlschemas/TrackPointExtension/v1">
            <gpxtpx:hr>115</gpxtpx:hr>
          </gpxtpx:TrackPointExtension>
        </extensions>
      </trkpt>
      <trkpt lat="47.55851" lon="-0.66986">
        <ele>64.07</ele>
        <time>2014-03-16T08:09:21Z</time>
        <extensions>
          <gpxtpx:TrackPointExtension xmlns:gpxtpx="http://www.garmin.com/xmlschemas/TrackPointExtension/v1">
            <gpxtpx:hr>114</gpxtpx:hr>
          </gpxtpx:TrackPointExtension>
        </extensions>
      </trkpt>
      <trkpt lat="47.55859" lon="-0.67">
        <ele>64.07</ele>
        <time>2014-03-16T08:09:24Z</time>
        <extensions>
          <gpxtpx:TrackPointExtension xmlns:gpxtpx="http://www.garmin.com/xmlschemas/TrackPointExtension/v1">
            <gpxtpx:hr>114</gpxtpx:hr>
          </gpxtpx:TrackPointExtension>
        </extensions>
      </trkpt>
      <trkpt lat="47.55868" lon="-0.67017">
        <ele>63.58</ele>
        <time>2014-03-16T08:09:27Z</time>
      </trkpt>
      <trkpt lat="47.55878" lon="-0.67034">
        <ele>63.1</ele>
        <time>2014-03-16T08:09:30Z</time>
      </trkpt>
      <trkpt lat="47.55912" lon="-0.67079">
        <ele>62.62</ele>
        <time>2014-03-16T08:09:38Z</time>
      </trkpt>
      <trkpt lat="47.55948" lon="-0.67121">
        <ele>62.14</ele>
        <time>2014-03-16T08:09:46Z</time>
        <extensions>
          <gpxtpx:TrackPointExtension xmlns:gpxtpx="http://www.garmin.com/xmlschemas/TrackPointExtension/v1">
            <gpxtpx:hr>115</gpxtpx:hr>
          </gpxtpx:TrackPointExtension>
        </extensions>
      </trkpt>
      <trkpt lat="47.55989" lon="-0.67165">
        <ele>61.66</ele>
        <time>2014-03-16T08:09:55Z</time>
        <extensions>
          <gpxtpx:TrackPointExtension xmlns:gpxtpx="http://www.garmin.com/xmlschemas/TrackPointExtension/v1">
            <gpxtpx:hr>119</gpxtpx:hr>
          </gpxtpx:TrackPointExtension>
        </extensions>
      </trkpt>
      <trkpt lat="47.56002" lon="-0.67177">
        <ele>61.18</ele>
        <time>2014-03-16T08:09:58Z</time>
        <extensions>
          <gpxtpx:TrackPointExtension xmlns:gpxtpx="http://www.garmin.com/xmlschemas/TrackPointExtension/v1">
            <gpxtpx:hr>119</gpxtpx:hr>
          </gpxtpx:TrackPointExtension>
        </extensions>
      </trkpt>
      <trkpt lat="47.56022" lon="-0.67199">
        <ele>60.7</ele>
        <time>2014-03-16T08:10:03Z</time>
      </trkpt>
      <trkpt lat="47.56054" lon="-0.67246">
        <ele>59.26</ele>
        <time>2014-03-16T08:10:11Z</time>
      </trkpt>
      <trkpt lat="47.56057" lon="-0.67253">
        <ele>58.78</ele>
        <time>2014-03-16T08:10:12Z</time>
      </trkpt>
      <trkpt lat="47.56072" lon="-0.67257">
        <ele>58.78</ele>
        <time>2014-03-16T08:10:16Z</time>
        <extensions>
          <gpxtpx:TrackPointExtension xmlns:gpxtpx="http://www.garmin.com/xmlschemas/TrackPointExtension/v1">
            <gpxtpx:hr>118</gpxtpx:hr>
          </gpxtpx:TrackPointExtension>
        </extensions>
      </trkpt>
      <trkpt lat="47.56084" lon="-0.67235">
        <ele>59.26</ele>
        <time>2014-03-16T08:10:20Z</time>
        <extensions>
          <gpxtpx:TrackPointExtension xmlns:gpxtpx="http://www.garmin.com/xmlschemas/TrackPointExtension/v1">
            <gpxtpx:hr>118</gpxtpx:hr>
          </gpxtpx:TrackPointExtension>
        </extensions>
      </trkpt>
      <trkpt lat="47.56087" lon="-0.67229">
        <ele>59.26</ele>
        <time>2014-03-16T08:10:21Z</time>
        <extensions>
          <gpxtpx:TrackPointExtension xmlns:gpxtpx="http://www.garmin.com/xmlschemas/TrackPointExtension/v1">
            <gpxtpx:hr>118</gpxtpx:hr>
          </gpxtpx:TrackPointExtension>
        </extensions>
      </trkpt>
      <trkpt lat="47.56093" lon="-0.67218">
        <ele>59.26</ele>
        <time>2014-03-16T08:10:23Z</time>
        <extensions>
          <gpxtpx:TrackPointExtension xmlns:gpxtpx="http://www.garmin.com/xmlschemas/TrackPointExtension/v1">
            <gpxtpx:hr>118</gpxtpx:hr>
          </gpxtpx:TrackPointExtension>
        </extensions>
      </trkpt>
      <trkpt lat="47.56123" lon="-0.67198">
        <ele>58.78</ele>
        <time>2014-03-16T08:10:29Z</time>
        <extensions>
          <gpxtpx:TrackPointExtension xmlns:gpxtpx="http://www.garmin.com/xmlschemas/TrackPointExtension/v1">
            <gpxtpx:hr>124</gpxtpx:hr>
          </gpxtpx:TrackPointExtension>
        </extensions>
      </trkpt>
      <trkpt lat="47.56133" lon="-0.67199">
        <ele>58.78</ele>
        <time>2014-03-16T08:10:31Z</time>
        <extensions>
          <gpxtpx:TrackPointExtension xmlns:gpxtpx="http://www.garmin.com/xmlschemas/TrackPointExtension/v1">
            <gpxtpx:hr>123</gpxtpx:hr>
          </gpxtpx:TrackPointExtension>
        </extensions>
      </trkpt>
      <trkpt lat="47.56159" lon="-0.67207">
        <ele>58.3</ele>
        <time>2014-03-16T08:10:36Z</time>
        <extensions>
          <gpxtpx:TrackPointExtension xmlns:gpxtpx="http://www.garmin.com/xmlschemas/TrackPointExtension/v1">
            <gpxtpx:hr>122</gpxtpx:hr>
          </gpxtpx:TrackPointExtension>
        </extensions>
      </trkpt>
      <trkpt lat="47.56179" lon="-0.67194">
        <ele>56.86</ele>
        <time>2014-03-16T08:10:40Z</time>
        <extensions>
          <gpxtpx:TrackPointExtension xmlns:gpxtpx="http://www.garmin.com/xmlschemas/TrackPointExtension/v1">
            <gpxtpx:hr>120</gpxtpx:hr>
          </gpxtpx:TrackPointExtension>
        </extensions>
      </trkpt>
      <trkpt lat="47.56211" lon="-0.67135">
        <ele>53.97</ele>
        <time>2014-03-16T08:10:47Z</time>
        <extensions>
          <gpxtpx:TrackPointExtension xmlns:gpxtpx="http://www.garmin.com/xmlschemas/TrackPointExtension/v1">
            <gpxtpx:hr>118</gpxtpx:hr>
          </gpxtpx:TrackPointExtension>
        </extensions>
      </trkpt>
      <trkpt lat="47.56238" lon="-0.67073">
        <ele>50.61</ele>
        <time>2014-03-16T08:10:53Z</time>
        <extensions>
          <gpxtpx:TrackPointExtension xmlns:gpxtpx="http://www.garmin.com/xmlschemas/TrackPointExtension/v1">
            <gpxtpx:hr>117</gpxtpx:hr>
          </gpxtpx:TrackPointExtension>
        </extensions>
      </trkpt>
      <trkpt lat="47.56253" lon="-0.67026">
        <ele>49.65</ele>
        <time>2014-03-16T08:10:57Z</time>
        <extensions>
          <gpxtpx:TrackPointExtension xmlns:gpxtpx="http://www.garmin.com/xmlschemas/TrackPointExtension/v1">
            <gpxtpx:hr>113</gpxtpx:hr>
          </gpxtpx:TrackPointExtension>
        </extensions>
      </trkpt>
      <trkpt lat="47.56285" lon="-0.66939">
        <ele>47.24</ele>
        <time>2014-03-16T08:11:05Z</time>
        <extensions>
          <gpxtpx:TrackPointExtension xmlns:gpxtpx="http://www.garmin.com/xmlschemas/TrackPointExtension/v1">
            <gpxtpx:hr>114</gpxtpx:hr>
          </gpxtpx:TrackPointExtension>
        </extensions>
      </trkpt>
      <trkpt lat="47.56301" lon="-0.66888">
        <ele>46.28</ele>
        <time>2014-03-16T08:11:10Z</time>
        <extensions>
          <gpxtpx:TrackPointExtension xmlns:gpxtpx="http://www.garmin.com/xmlschemas/TrackPointExtension/v1">
            <gpxtpx:hr>118</gpxtpx:hr>
          </gpxtpx:TrackPointExtension>
        </extensions>
      </trkpt>
      <trkpt lat="47.56314" lon="-0.66852">
        <ele>46.76</ele>
        <time>2014-03-16T08:11:15Z</time>
        <extensions>
          <gpxtpx:TrackPointExtension xmlns:gpxtpx="http://www.garmin.com/xmlschemas/TrackPointExtension/v1">
            <gpxtpx:hr>117</gpxtpx:hr>
          </gpxtpx:TrackPointExtension>
        </extensions>
      </trkpt>
      <trkpt lat="47.56323" lon="-0.66855">
        <ele>47.24</ele>
        <time>2014-03-16T08:11:18Z</time>
        <extensions>
          <gpxtpx:TrackPointExtension xmlns:gpxtpx="http://www.garmin.com/xmlschemas/TrackPointExtension/v1">
            <gpxtpx:hr>114</gpxtpx:hr>
          </gpxtpx:TrackPointExtension>
        </extensions>
      </trkpt>
      <trkpt lat="47.56333" lon="-0.66881">
        <ele>46.76</ele>
        <time>2014-03-16T08:11:23Z</time>
        <extensions>
          <gpxtpx:TrackPointExtension xmlns:gpxtpx="http://www.garmin.com/xmlschemas/TrackPointExtension/v1">
            <gpxtpx:hr>116</gpxtpx:hr>
          </gpxtpx:TrackPointExtension>
        </extensions>
      </trkpt>
      <trkpt lat="47.56336" lon="-0.66886">
        <ele>46.76</ele>
        <time>2014-03-16T08:11:24Z</time>
        <extensions>
          <gpxtpx:TrackPointExtension xmlns:gpxtpx="http://www.garmin.com/xmlschemas/TrackPointExtension/v1">
            <gpxtpx:hr>117</gpxtpx:hr>
          </gpxtpx:TrackPointExtension>
        </extensions>
      </trkpt>
      <trkpt lat="47.5634" lon="-0.66892">
        <ele>46.28</ele>
        <time>2014-03-16T08:11:25Z</time>
        <extensions>
          <gpxtpx:TrackPointExtension xmlns:gpxtpx="http://www.garmin.com/xmlschemas/TrackPointExtension/v1">
            <gpxtpx:hr>118</gpxtpx:hr>
          </gpxtpx:TrackPointExtension>
        </extensions>
      </trkpt>
      <trkpt lat="47.56378" lon="-0.66954">
        <ele>44.36</ele>
        <time>2014-03-16T08:11:34Z</time>
        <extensions>
          <gpxtpx:TrackPointExtension xmlns:gpxtpx="http://www.garmin.com/xmlschemas/TrackPointExtension/v1">
            <gpxtpx:hr>121</gpxtpx:hr>
          </gpxtpx:TrackPointExtension>
        </extensions>
      </trkpt>
      <trkpt lat="47.56393" lon="-0.66983">
        <ele>43.88</ele>
        <time>2014-03-16T08:11:38Z</time>
        <extensions>
          <gpxtpx:TrackPointExtension xmlns:gpxtpx="http://www.garmin.com/xmlschemas/TrackPointExtension/v1">
            <gpxtpx:hr>121</gpxtpx:hr>
          </gpxtpx:TrackPointExtension>
        </extensions>
      </trkpt>
      <trkpt lat="47.56397" lon="-0.6699">
        <ele>44.36</ele>
        <time>2014-03-16T08:11:39Z</time>
        <extensions>
          <gpxtpx:TrackPointExtension xmlns:gpxtpx="http://www.garmin.com/xmlschemas/TrackPointExtension/v1">
            <gpxtpx:hr>121</gpxtpx:hr>
          </gpxtpx:TrackPointExtension>
        </extensions>
      </trkpt>
      <trkpt lat="47.56401" lon="-0.66996">
        <ele>44.36</ele>
        <time>2014-03-16T08:11:40Z</time>
        <extensions>
          <gpxtpx:TrackPointExtension xmlns:gpxtpx="http://www.garmin.com/xmlschemas/TrackPointExtension/v1">
            <gpxtpx:hr>121</gpxtpx:hr>
          </gpxtpx:TrackPointExtension>
        </extensions>
      </trkpt>
      <trkpt lat="47.56407" lon="-0.6701">
        <ele>44.84</ele>
        <time>2014-03-16T08:11:42Z</time>
        <extensions>
          <gpxtpx:TrackPointExtension xmlns:gpxtpx="http://www.garmin.com/xmlschemas/TrackPointExtension/v1">
            <gpxtpx:hr>122</gpxtpx:hr>
          </gpxtpx:TrackPointExtension>
        </extensions>
      </trkpt>
      <trkpt lat="47.56421" lon="-0.6705">
        <ele>46.76</ele>
        <time>2014-03-16T08:11:48Z</time>
        <extensions>
          <gpxtpx:TrackPointExtension xmlns:gpxtpx="http://www.garmin.com/xmlschemas/TrackPointExtension/v1">
            <gpxtpx:hr>127</gpxtpx:hr>
          </gpxtpx:TrackPointExtension>
        </extensions>
      </trkpt>
      <trkpt lat="47.56423" lon="-0.67056">
        <ele>46.76</ele>
        <time>2014-03-16T08:11:49Z</time>
        <extensions>
          <gpxtpx:TrackPointExtension xmlns:gpxtpx="http://www.garmin.com/xmlschemas/TrackPointExtension/v1">
            <gpxtpx:hr>127</gpxtpx:hr>
          </gpxtpx:TrackPointExtension>
        </extensions>
      </trkpt>
      <trkpt lat="47.56446" lon="-0.67118">
        <ele>50.13</ele>
        <time>2014-03-16T08:12:00Z</time>
        <extensions>
          <gpxtpx:TrackPointExtension xmlns:gpxtpx="http://www.garmin.com/xmlschemas/TrackPointExtension/v1">
            <gpxtpx:hr>138</gpxtpx:hr>
          </gpxtpx:TrackPointExtension>
        </extensions>
      </trkpt>
      <trkpt lat="47.56463" lon="-0.67153">
        <ele>52.53</ele>
        <time>2014-03-16T08:12:08Z</time>
        <extensions>
          <gpxtpx:TrackPointExtension xmlns:gpxtpx="http://www.garmin.com/xmlschemas/TrackPointExtension/v1">
            <gpxtpx:hr>143</gpxtpx:hr>
          </gpxtpx:TrackPointExtension>
        </extensions>
      </trkpt>
      <trkpt lat="47.56479" lon="-0.67176">
        <ele>53.97</ele>
        <time>2014-03-16T08:12:15Z</time>
        <extensions>
          <gpxtpx:TrackPointExtension xmlns:gpxtpx="http://www.garmin.com/xmlschemas/TrackPointExtension/v1">
            <gpxtpx:hr>149</gpxtpx:hr>
          </gpxtpx:TrackPointExtension>
        </extensions>
      </trkpt>
      <trkpt lat="47.56482" lon="-0.67175">
        <ele>54.45</ele>
        <time>2014-03-16T08:12:16Z</time>
        <extensions>
          <gpxtpx:TrackPointExtension xmlns:gpxtpx="http://www.garmin.com/xmlschemas/TrackPointExtension/v1">
            <gpxtpx:hr>150</gpxtpx:hr>
          </gpxtpx:TrackPointExtension>
        </extensions>
      </trkpt>
      <trkpt lat="47.56486" lon="-0.67173">
        <ele>54.45</ele>
        <time>2014-03-16T08:12:17Z</time>
        <extensions>
          <gpxtpx:TrackPointExtension xmlns:gpxtpx="http://www.garmin.com/xmlschemas/TrackPointExtension/v1">
            <gpxtpx:hr>151</gpxtpx:hr>
          </gpxtpx:TrackPointExtension>
        </extensions>
      </trkpt>
      <trkpt lat="47.56506" lon="-0.67156">
        <ele>56.37</ele>
        <time>2014-03-16T08:12:24Z</time>
        <extensions>
          <gpxtpx:TrackPointExtension xmlns:gpxtpx="http://www.garmin.com/xmlschemas/TrackPointExtension/v1">
            <gpxtpx:hr>155</gpxtpx:hr>
          </gpxtpx:TrackPointExtension>
        </extensions>
      </trkpt>
      <trkpt lat="47.56526" lon="-0.6714">
        <ele>58.78</ele>
        <time>2014-03-16T08:12:31Z</time>
        <extensions>
          <gpxtpx:TrackPointExtension xmlns:gpxtpx="http://www.garmin.com/xmlschemas/TrackPointExtension/v1">
            <gpxtpx:hr>160</gpxtpx:hr>
          </gpxtpx:TrackPointExtension>
        </extensions>
      </trkpt>
      <trkpt lat="47.5654" lon="-0.67129">
        <ele>60.7</ele>
        <time>2014-03-16T08:12:37Z</time>
        <extensions>
          <gpxtpx:TrackPointExtension xmlns:gpxtpx="http://www.garmin.com/xmlschemas/TrackPointExtension/v1">
            <gpxtpx:hr>161</gpxtpx:hr>
          </gpxtpx:TrackPointExtension>
        </extensions>
      </trkpt>
      <trkpt lat="47.56555" lon="-0.67114">
        <ele>63.1</ele>
        <time>2014-03-16T08:12:45Z</time>
      </trkpt>
      <trkpt lat="47.56566" lon="-0.67096">
        <ele>64.55</ele>
        <time>2014-03-16T08:12:52Z</time>
      </trkpt>
      <trkpt lat="47.56579" lon="-0.67079">
        <ele>65.99</ele>
        <time>2014-03-16T08:12:59Z</time>
      </trkpt>
      <trkpt lat="47.56595" lon="-0.67063">
        <ele>67.43</ele>
        <time>2014-03-16T08:13:06Z</time>
      </trkpt>
      <trkpt lat="47.56615" lon="-0.67049">
        <ele>67.91</ele>
        <time>2014-03-16T08:13:14Z</time>
      </trkpt>
      <trkpt lat="47.56629" lon="-0.67043">
        <ele>68.87</ele>
        <time>2014-03-16T08:13:20Z</time>
      </trkpt>
      <trkpt lat="47.56654" lon="-0.67035">
        <ele>68.87</ele>
        <time>2014-03-16T08:13:28Z</time>
      </trkpt>
      <trkpt lat="47.56671" lon="-0.67029">
        <ele>68.87</ele>
        <time>2014-03-16T08:13:32Z</time>
      </trkpt>
      <trkpt lat="47.56691" lon="-0.67033">
        <ele>69.35</ele>
        <time>2014-03-16T08:13:37Z</time>
      </trkpt>
      <trkpt lat="47.56724" lon="-0.67067">
        <ele>69.83</ele>
        <time>2014-03-16T08:13:47Z</time>
      </trkpt>
      <trkpt lat="47.56754" lon="-0.67091">
        <ele>69.35</ele>
        <time>2014-03-16T08:13:55Z</time>
      </trkpt>
      <trkpt lat="47.56797" lon="-0.67115">
        <ele>67.91</ele>
        <time>2014-03-16T08:14:04Z</time>
      </trkpt>
      <trkpt lat="47.56838" lon="-0.67145">
        <ele>66.47</ele>
        <time>2014-03-16T08:14:13Z</time>
      </trkpt>
      <trkpt lat="47.56873" lon="-0.67171">
        <ele>66.47</ele>
        <time>2014-03-16T08:14:21Z</time>
      </trkpt>
      <trkpt lat="47.56916" lon="-0.67191">
        <ele>66.95</ele>
        <time>2014-03-16T08:14:30Z</time>
      </trkpt>
      <trkpt lat="47.56965" lon="-0.67206">
        <ele>68.87</ele>
        <time>2014-03-16T08:14:41Z</time>
      </trkpt>
      <trkpt lat="47.56973" lon="-0.67209">
        <ele>68.87</ele>
        <time>2014-03-16T08:14:43Z</time>
      </trkpt>
      <trkpt lat="47.56977" lon="-0.67208">
        <ele>68.87</ele>
        <time>2014-03-16T08:14:44Z</time>
      </trkpt>
      <trkpt lat="47.56981" lon="-0.67206">
        <ele>68.87</ele>
        <time>2014-03-16T08:14:45Z</time>
      </trkpt>
      <trkpt lat="47.56984" lon="-0.67204">
        <ele>68.87</ele>
        <time>2014-03-16T08:14:46Z</time>
      </trkpt>
      <trkpt lat="47.56984" lon="-0.67197">
        <ele>69.83</ele>
        <time>2014-03-16T08:14:48Z</time>
      </trkpt>
      <trkpt lat="47.56982" lon="-0.67163">
        <ele>69.35</ele>
        <time>2014-03-16T08:14:55Z</time>
      </trkpt>
      <trkpt lat="47.5698" lon="-0.67118">
        <ele>69.35</ele>
        <time>2014-03-16T08:15:02Z</time>
      </trkpt>
      <trkpt lat="47.56981" lon="-0.67097">
        <ele>69.35</ele>
        <time>2014-03-16T08:15:05Z</time>
      </trkpt>
      <trkpt lat="47.56983" lon="-0.67053">
        <ele>68.87</ele>
        <time>2014-03-16T08:15:12Z</time>
      </trkpt>
      <trkpt lat="47.56983" lon="-0.67037">
        <ele>68.39</ele>
        <time>2014-03-16T08:15:14Z</time>
      </trkpt>
      <trkpt lat="47.56987" lon="-0.66975">
        <ele>66.95</ele>
        <time>2014-03-16T08:15:21Z</time>
      </trkpt>
      <trkpt lat="47.5699" lon="-0.66957">
        <ele>65.99</ele>
        <time>2014-03-16T08:15:23Z</time>
      </trkpt>
      <trkpt lat="47.57003" lon="-0.66935">
        <ele>65.03</ele>
        <time>2014-03-16T08:15:26Z</time>
      </trkpt>
      <trkpt lat="47.57029" lon="-0.66915">
        <ele>65.03</ele>
        <time>2014-03-16T08:15:33Z</time>
      </trkpt>
      <trkpt lat="47.57045" lon="-0.66899">
        <ele>65.51</ele>
        <time>2014-03-16T08:15:42Z</time>
      </trkpt>
      <trkpt lat="47.57054" lon="-0.66888">
        <ele>66.47</ele>
        <time>2014-03-16T08:15:48Z</time>
      </trkpt>
      <trkpt lat="47.57059" lon="-0.66881">
        <ele>66.95</ele>
        <time>2014-03-16T08:15:53Z</time>
      </trkpt>
      <trkpt lat="47.57062" lon="-0.66879">
        <ele>66.95</ele>
        <time>2014-03-16T08:16:01Z</time>
      </trkpt>
      <trkpt lat="47.57066" lon="-0.66874">
        <ele>66.95</ele>
        <time>2014-03-16T08:16:07Z</time>
      </trkpt>
      <trkpt lat="47.5707" lon="-0.6687">
        <ele>66.95</ele>
        <time>2014-03-16T08:16:12Z</time>
      </trkpt>
      <trkpt lat="47.57075" lon="-0.66866">
        <ele>67.91</ele>
        <time>2014-03-16T08:16:17Z</time>
      </trkpt>
      <trkpt lat="47.57092" lon="-0.66852">
        <ele>68.39</ele>
        <time>2014-03-16T08:16:24Z</time>
      </trkpt>
      <trkpt lat="47.57101" lon="-0.66841">
        <ele>69.83</ele>
        <time>2014-03-16T08:16:29Z</time>
      </trkpt>
      <trkpt lat="47.57116" lon="-0.66827">
        <ele>70.79</ele>
        <time>2014-03-16T08:16:37Z</time>
      </trkpt>
      <trkpt lat="47.57124" lon="-0.66818">
        <ele>70.79</ele>
        <time>2014-03-16T08:16:45Z</time>
      </trkpt>
      <trkpt lat="47.57124" lon="-0.66818">
        <ele>70.79</ele>
        <time>2014-03-16T08:16:57Z</time>
      </trkpt>
      <trkpt lat="47.57124" lon="-0.66818">
        <ele>70.79</ele>
        <time>2014-03-16T08:17:10Z</time>
      </trkpt>
      <trkpt lat="47.57124" lon="-0.66818">
        <ele>71.27</ele>
        <time>2014-03-16T08:17:20Z</time>
      </trkpt>
      <trkpt lat="47.57126" lon="-0.66817">
        <ele>70.79</ele>
        <time>2014-03-16T08:17:27Z</time>
      </trkpt>
      <trkpt lat="47.5713" lon="-0.66814">
        <ele>71.27</ele>
        <time>2014-03-16T08:17:33Z</time>
      </trkpt>
      <trkpt lat="47.57134" lon="-0.66811">
        <ele>71.27</ele>
        <time>2014-03-16T08:17:40Z</time>
      </trkpt>
      <trkpt lat="47.5714" lon="-0.66804">
        <ele>71.27</ele>
        <time>2014-03-16T08:17:46Z</time>
      </trkpt>
      <trkpt lat="47.57146" lon="-0.668">
        <ele>71.76</ele>
        <time>2014-03-16T08:17:53Z</time>
      </trkpt>
      <trkpt lat="47.57147" lon="-0.66799">
        <ele>71.76</ele>
        <time>2014-03-16T08:17:54Z</time>
      </trkpt>
      <trkpt lat="47.57162" lon="-0.66792">
        <ele>73.68</ele>
        <time>2014-03-16T08:18:01Z</time>
      </trkpt>
      <trkpt lat="47.57184" lon="-0.66784">
        <ele>74.16</ele>
        <time>2014-03-16T08:18:09Z</time>
      </trkpt>
      <trkpt lat="47.572" lon="-0.66776">
        <ele>74.64</ele>
        <time>2014-03-16T08:18:15Z</time>
      </trkpt>
      <trkpt lat="47.57216" lon="-0.6677">
        <ele>76.08</ele>
        <time>2014-03-16T08:18:22Z</time>
      </trkpt>
      <trkpt lat="47.57234" lon="-0.66762">
        <ele>77.52</ele>
        <time>2014-03-16T08:18:30Z</time>
      </trkpt>
      <trkpt lat="47.57255" lon="-0.66757">
        <ele>78</ele>
        <time>2014-03-16T08:18:38Z</time>
      </trkpt>
      <trkpt lat="47.57277" lon="-0.66751">
        <ele>78.48</ele>
        <time>2014-03-16T08:18:46Z</time>
      </trkpt>
      <trkpt lat="47.57308" lon="-0.66746">
        <ele>79.45</ele>
        <time>2014-03-16T08:18:55Z</time>
      </trkpt>
      <trkpt lat="47.57339" lon="-0.66745">
        <ele>78.97</ele>
        <time>2014-03-16T08:19:02Z</time>
      </trkpt>
      <trkpt lat="47.57354" lon="-0.66736">
        <ele>78.48</ele>
        <time>2014-03-16T08:19:07Z</time>
      </trkpt>
      <trkpt lat="47.57344" lon="-0.66719">
        <ele>78.48</ele>
        <time>2014-03-16T08:19:11Z</time>
      </trkpt>
      <trkpt lat="47.57322" lon="-0.66671">
        <ele>78.97</ele>
        <time>2014-03-16T08:19:21Z</time>
      </trkpt>
      <trkpt lat="47.57308" lon="-0.66633">
        <ele>78.97</ele>
        <time>2014-03-16T08:19:28Z</time>
      </trkpt>
      <trkpt lat="47.57277" lon="-0.66562">
        <ele>78.48</ele>
        <time>2014-03-16T08:19:41Z</time>
      </trkpt>
      <trkpt lat="47.57253" lon="-0.66508">
        <ele>77.52</ele>
        <time>2014-03-16T08:19:50Z</time>
      </trkpt>
      <trkpt lat="47.57249" lon="-0.66495">
        <ele>78</ele>
        <time>2014-03-16T08:19:52Z</time>
      </trkpt>
      <trkpt lat="47.57238" lon="-0.66441">
        <ele>72.72</ele>
        <time>2014-03-16T08:20:00Z</time>
      </trkpt>
      <trkpt lat="47.57236" lon="-0.66434">
        <ele>78</ele>
        <time>2014-03-16T08:20:01Z</time>
      </trkpt>
      <trkpt lat="47.57223" lon="-0.66373">
        <ele>77.04</ele>
        <time>2014-03-16T08:20:09Z</time>
      </trkpt>
      <trkpt lat="47.57211" lon="-0.66321">
        <ele>76.56</ele>
        <time>2014-03-16T08:20:16Z</time>
      </trkpt>
      <trkpt lat="47.57205" lon="-0.66289">
        <ele>76.56</ele>
        <time>2014-03-16T08:20:21Z</time>
      </trkpt>
      <trkpt lat="47.57207" lon="-0.66264">
        <ele>76.08</ele>
        <time>2014-03-16T08:20:25Z</time>
      </trkpt>
      <trkpt lat="47.57214" lon="-0.66248">
        <ele>75.6</ele>
        <time>2014-03-16T08:20:28Z</time>
      </trkpt>
      <trkpt lat="47.57228" lon="-0.66221">
        <ele>74.64</ele>
        <time>2014-03-16T08:20:35Z</time>
      </trkpt>
      <trkpt lat="47.57239" lon="-0.66207">
        <ele>74.16</ele>
        <time>2014-03-16T08:20:41Z</time>
      </trkpt>
      <trkpt lat="47.57248" lon="-0.66198">
        <ele>73.2</ele>
        <time>2014-03-16T08:20:46Z</time>
      </trkpt>
      <trkpt lat="47.57257" lon="-0.66187">
        <ele>72.72</ele>
        <time>2014-03-16T08:20:52Z</time>
      </trkpt>
      <trkpt lat="47.57273" lon="-0.66173">
        <ele>72.72</ele>
        <time>2014-03-16T08:20:58Z</time>
      </trkpt>
      <trkpt lat="47.57294" lon="-0.66159">
        <ele>71.27</ele>
        <time>2014-03-16T08:21:05Z</time>
      </trkpt>
      <trkpt lat="47.57304" lon="-0.66151">
        <ele>70.79</ele>
        <time>2014-03-16T08:21:11Z</time>
      </trkpt>
      <trkpt lat="47.57316" lon="-0.66143">
        <ele>69.83</ele>
        <time>2014-03-16T08:21:18Z</time>
      </trkpt>
      <trkpt lat="47.57322" lon="-0.66138">
        <ele>69.35</ele>
        <time>2014-03-16T08:21:24Z</time>
      </trkpt>
      <trkpt lat="47.5733" lon="-0.66132">
        <ele>68.87</ele>
        <time>2014-03-16T08:21:30Z</time>
      </trkpt>
      <trkpt lat="47.57332" lon="-0.6613">
        <ele>68.87</ele>
        <time>2014-03-16T08:21:31Z</time>
      </trkpt>
      <trkpt lat="47.57346" lon="-0.66123">
        <ele>68.39</ele>
        <time>2014-03-16T08:21:37Z</time>
      </trkpt>
      <trkpt lat="47.57363" lon="-0.6611">
        <ele>66.95</ele>
        <time>2014-03-16T08:21:44Z</time>
      </trkpt>
      <trkpt lat="47.57371" lon="-0.66104">
        <ele>66.47</ele>
        <time>2014-03-16T08:21:49Z</time>
      </trkpt>
      <trkpt lat="47.57379" lon="-0.66099">
        <ele>66.47</ele>
        <time>2014-03-16T08:21:55Z</time>
      </trkpt>
      <trkpt lat="47.57386" lon="-0.66094">
        <ele>65.99</ele>
        <time>2014-03-16T08:22:01Z</time>
      </trkpt>
      <trkpt lat="47.574" lon="-0.66084">
        <ele>65.51</ele>
        <time>2014-03-16T08:22:08Z</time>
      </trkpt>
      <trkpt lat="47.57414" lon="-0.66073">
        <ele>64.55</ele>
        <time>2014-03-16T08:22:15Z</time>
      </trkpt>
      <trkpt lat="47.57427" lon="-0.66063">
        <ele>64.07</ele>
        <time>2014-03-16T08:22:20Z</time>
      </trkpt>
      <trkpt lat="47.57443" lon="-0.66047">
        <ele>62.14</ele>
        <time>2014-03-16T08:22:26Z</time>
      </trkpt>
      <trkpt lat="47.57464" lon="-0.6603">
        <ele>59.74</ele>
        <time>2014-03-16T08:22:33Z</time>
      </trkpt>
      <trkpt lat="47.5747" lon="-0.66026">
        <ele>59.26</ele>
        <time>2014-03-16T08:22:35Z</time>
      </trkpt>
      <trkpt lat="47.57487" lon="-0.66013">
        <ele>57.82</ele>
        <time>2014-03-16T08:22:41Z</time>
      </trkpt>
      <trkpt lat="47.57494" lon="-0.66004">
        <ele>56.86</ele>
        <time>2014-03-16T08:22:45Z</time>
      </trkpt>
      <trkpt lat="47.57502" lon="-0.66007">
        <ele>56.37</ele>
        <time>2014-03-16T08:22:49Z</time>
      </trkpt>
      <trkpt lat="47.57522" lon="-0.66013">
        <ele>54.93</ele>
        <time>2014-03-16T08:22:56Z</time>
      </trkpt>
      <trkpt lat="47.57536" lon="-0.66017">
        <ele>53.97</ele>
        <time>2014-03-16T08:23:00Z</time>
      </trkpt>
      <trkpt lat="47.57561" lon="-0.66029">
        <ele>52.53</ele>
        <time>2014-03-16T08:23:06Z</time>
      </trkpt>
      <trkpt lat="47.57581" lon="-0.66041">
        <ele>52.05</ele>
        <time>2014-03-16T08:23:12Z</time>
      </trkpt>
      <trkpt lat="47.57594" lon="-0.66052">
        <ele>52.05</ele>
        <time>2014-03-16T08:23:19Z</time>
      </trkpt>
      <trkpt lat="47.57606" lon="-0.66077">
        <ele>53.97</ele>
        <time>2014-03-16T08:23:26Z</time>
      </trkpt>
      <trkpt lat="47.57621" lon="-0.66106">
        <ele>54.93</ele>
        <time>2014-03-16T08:23:34Z</time>
      </trkpt>
      <trkpt lat="47.57642" lon="-0.66141">
        <ele>55.89</ele>
        <time>2014-03-16T08:23:43Z</time>
      </trkpt>
      <trkpt lat="47.57667" lon="-0.66178">
        <ele>55.89</ele>
        <time>2014-03-16T08:23:52Z</time>
      </trkpt>
      <trkpt lat="47.57685" lon="-0.66212">
        <ele>55.41</ele>
        <time>2014-03-16T08:24:00Z</time>
      </trkpt>
      <trkpt lat="47.57698" lon="-0.66224">
        <ele>55.41</ele>
        <time>2014-03-16T08:24:04Z</time>
      </trkpt>
      <trkpt lat="47.57718" lon="-0.66249">
        <ele>54.93</ele>
        <time>2014-03-16T08:24:12Z</time>
      </trkpt>
      <trkpt lat="47.57719" lon="-0.66256">
        <ele>53.97</ele>
        <time>2014-03-16T08:24:14Z</time>
      </trkpt>
      <trkpt lat="47.57712" lon="-0.66276">
        <ele>53.49</ele>
        <time>2014-03-16T08:24:21Z</time>
      </trkpt>
      <trkpt lat="47.57712" lon="-0.6628">
        <ele>53.49</ele>
        <time>2014-03-16T08:24:22Z</time>
      </trkpt>
      <trkpt lat="47.5772" lon="-0.66291">
        <ele>53.01</ele>
        <time>2014-03-16T08:24:29Z</time>
      </trkpt>
      <trkpt lat="47.57717" lon="-0.66295">
        <ele>53.01</ele>
        <time>2014-03-16T08:24:32Z</time>
      </trkpt>
      <trkpt lat="47.57706" lon="-0.66303">
        <ele>52.05</ele>
        <time>2014-03-16T08:24:36Z</time>
      </trkpt>
      <trkpt lat="47.57704" lon="-0.6631">
        <ele>51.57</ele>
        <time>2014-03-16T08:24:37Z</time>
      </trkpt>
      <trkpt lat="47.57693" lon="-0.66382">
        <ele>49.65</ele>
        <time>2014-03-16T08:24:45Z</time>
      </trkpt>
      <trkpt lat="47.57693" lon="-0.664">
        <ele>49.65</ele>
        <time>2014-03-16T08:24:47Z</time>
      </trkpt>
      <trkpt lat="47.57694" lon="-0.66417">
        <ele>49.16</ele>
        <time>2014-03-16T08:24:49Z</time>
      </trkpt>
      <trkpt lat="47.57705" lon="-0.66436">
        <ele>48.2</ele>
        <time>2014-03-16T08:24:53Z</time>
      </trkpt>
      <trkpt lat="47.57711" lon="-0.66434">
        <ele>47.72</ele>
        <time>2014-03-16T08:24:54Z</time>
      </trkpt>
      <trkpt lat="47.57749" lon="-0.66421">
        <ele>43.88</ele>
        <time>2014-03-16T08:24:59Z</time>
      </trkpt>
      <trkpt lat="47.57778" lon="-0.66412">
        <ele>40.03</ele>
        <time>2014-03-16T08:25:02Z</time>
      </trkpt>
      <trkpt lat="47.57801" lon="-0.66408">
        <ele>37.15</ele>
        <time>2014-03-16T08:25:04Z</time>
      </trkpt>
      <trkpt lat="47.57836" lon="-0.66414">
        <ele>32.82</ele>
        <time>2014-03-16T08:25:07Z</time>
      </trkpt>
      <trkpt lat="47.57857" lon="-0.66426">
        <ele>29.94</ele>
        <time>2014-03-16T08:25:09Z</time>
      </trkpt>
      <trkpt lat="47.57877" lon="-0.66441">
        <ele>29.46</ele>
        <time>2014-03-16T08:25:11Z</time>
      </trkpt>
      <trkpt lat="47.57903" lon="-0.66455">
        <ele>28.02</ele>
        <time>2014-03-16T08:25:14Z</time>
      </trkpt>
      <trkpt lat="47.57935" lon="-0.66486">
        <ele>26.09</ele>
        <time>2014-03-16T08:25:19Z</time>
      </trkpt>
      <trkpt lat="47.57945" lon="-0.6651">
        <ele>25.61</ele>
        <time>2014-03-16T08:25:22Z</time>
      </trkpt>
      <trkpt lat="47.57964" lon="-0.66543">
        <ele>24.17</ele>
        <time>2014-03-16T08:25:28Z</time>
      </trkpt>
      <trkpt lat="47.57976" lon="-0.6656">
        <ele>23.69</ele>
        <time>2014-03-16T08:25:32Z</time>
      </trkpt>
      <trkpt lat="47.57993" lon="-0.66581">
        <ele>22.73</ele>
        <time>2014-03-16T08:25:38Z</time>
      </trkpt>
      <trkpt lat="47.58009" lon="-0.66597">
        <ele>22.73</ele>
        <time>2014-03-16T08:25:42Z</time>
      </trkpt>
      <trkpt lat="47.58018" lon="-0.66603">
        <ele>21.77</ele>
        <time>2014-03-16T08:25:44Z</time>
      </trkpt>
      <trkpt lat="47.58043" lon="-0.66595">
        <ele>21.77</ele>
        <time>2014-03-16T08:25:50Z</time>
      </trkpt>
      <trkpt lat="47.58046" lon="-0.66591">
        <ele>21.77</ele>
        <time>2014-03-16T08:25:51Z</time>
      </trkpt>
      <trkpt lat="47.58068" lon="-0.6656">
        <ele>21.77</ele>
        <time>2014-03-16T08:25:59Z</time>
      </trkpt>
      <trkpt lat="47.5809" lon="-0.66535">
        <ele>20.81</ele>
        <time>2014-03-16T08:26:06Z</time>
      </trkpt>
      <trkpt lat="47.5811" lon="-0.66524">
        <ele>19.36</ele>
        <time>2014-03-16T08:26:10Z</time>
      </trkpt>
      <trkpt lat="47.58133" lon="-0.66533">
        <ele>19.84</ele>
        <time>2014-03-16T08:26:15Z</time>
      </trkpt>
      <trkpt lat="47.58137" lon="-0.66537">
        <ele>19.84</ele>
        <time>2014-03-16T08:26:16Z</time>
      </trkpt>
      <trkpt lat="47.58164" lon="-0.66569">
        <ele>19.84</ele>
        <time>2014-03-16T08:26:23Z</time>
      </trkpt>
      <trkpt lat="47.58209" lon="-0.66614">
        <ele>19.84</ele>
        <time>2014-03-16T08:26:34Z</time>
      </trkpt>
      <trkpt lat="47.58245" lon="-0.66653">
        <ele>19.84</ele>
        <time>2014-03-16T08:26:43Z</time>
      </trkpt>
      <trkpt lat="47.58288" lon="-0.667">
        <ele>20.32</ele>
        <time>2014-03-16T08:26:54Z</time>
      </trkpt>
      <trkpt lat="47.58303" lon="-0.66718">
        <ele>19.84</ele>
        <time>2014-03-16T08:26:58Z</time>
      </trkpt>
      <trkpt lat="47.58349" lon="-0.66761">
        <ele>19.84</ele>
        <time>2014-03-16T08:27:09Z</time>
      </trkpt>
      <trkpt lat="47.58376" lon="-0.66783">
        <ele>19.84</ele>
        <time>2014-03-16T08:27:15Z</time>
      </trkpt>
      <trkpt lat="47.58391" lon="-0.66799">
        <ele>19.84</ele>
        <time>2014-03-16T08:27:19Z</time>
      </trkpt>
      <trkpt lat="47.58406" lon="-0.66813">
        <ele>19.84</ele>
        <time>2014-03-16T08:27:23Z</time>
      </trkpt>
      <trkpt lat="47.58418" lon="-0.66824">
        <ele>19.84</ele>
        <time>2014-03-16T08:27:26Z</time>
      </trkpt>
      <trkpt lat="47.58439" lon="-0.66842">
        <ele>19.84</ele>
        <time>2014-03-16T08:27:32Z</time>
      </trkpt>
      <trkpt lat="47.58443" lon="-0.66847">
        <ele>19.84</ele>
        <time>2014-03-16T08:27:33Z</time>
      </trkpt>
      <trkpt lat="47.58458" lon="-0.66862">
        <ele>19.84</ele>
        <time>2014-03-16T08:27:37Z</time>
      </trkpt>
      <trkpt lat="47.58471" lon="-0.66873">
        <ele>20.32</ele>
        <time>2014-03-16T08:27:40Z</time>
      </trkpt>
      <trkpt lat="47.58494" lon="-0.66894">
        <ele>19.84</ele>
        <time>2014-03-16T08:27:46Z</time>
      </trkpt>
      <trkpt lat="47.58528" lon="-0.66928">
        <ele>19.84</ele>
        <time>2014-03-16T08:27:55Z</time>
      </trkpt>
      <trkpt lat="47.58566" lon="-0.66966">
        <ele>19.84</ele>
        <time>2014-03-16T08:28:05Z</time>
      </trkpt>
      <trkpt lat="47.58583" lon="-0.66989">
        <ele>19.84</ele>
        <time>2014-03-16T08:28:10Z</time>
      </trkpt>
      <trkpt lat="47.58606" lon="-0.67021">
        <ele>19.84</ele>
        <time>2014-03-16T08:28:17Z</time>
      </trkpt>
      <trkpt lat="47.58623" lon="-0.67061">
        <ele>19.84</ele>
        <time>2014-03-16T08:28:24Z</time>
      </trkpt>
      <trkpt lat="47.58643" lon="-0.67115">
        <ele>19.36</ele>
        <time>2014-03-16T08:28:33Z</time>
      </trkpt>
      <trkpt lat="47.58658" lon="-0.67142">
        <ele>19.84</ele>
        <time>2014-03-16T08:28:38Z</time>
      </trkpt>
      <trkpt lat="47.5867" lon="-0.67163">
        <ele>20.32</ele>
        <time>2014-03-16T08:28:42Z</time>
      </trkpt>
      <trkpt lat="47.58703" lon="-0.67218">
        <ele>19.84</ele>
        <time>2014-03-16T08:28:53Z</time>
      </trkpt>
      <trkpt lat="47.58717" lon="-0.67244">
        <ele>19.84</ele>
        <time>2014-03-16T08:28:58Z</time>
      </trkpt>
      <trkpt lat="47.58728" lon="-0.67264">
        <ele>19.84</ele>
        <time>2014-03-16T08:29:02Z</time>
      </trkpt>
      <trkpt lat="47.58749" lon="-0.67305">
        <ele>19.84</ele>
        <time>2014-03-16T08:29:10Z</time>
      </trkpt>
      <trkpt lat="47.58752" lon="-0.6731">
        <ele>19.84</ele>
        <time>2014-03-16T08:29:11Z</time>
      </trkpt>
      <trkpt lat="47.58772" lon="-0.67339">
        <ele>19.84</ele>
        <time>2014-03-16T08:29:18Z</time>
      </trkpt>
      <trkpt lat="47.58791" lon="-0.67377">
        <ele>19.36</ele>
        <time>2014-03-16T08:29:26Z</time>
      </trkpt>
      <trkpt lat="47.58799" lon="-0.67396">
        <ele>19.84</ele>
        <time>2014-03-16T08:29:30Z</time>
      </trkpt>
      <trkpt lat="47.58816" lon="-0.67438">
        <ele>19.84</ele>
        <time>2014-03-16T08:29:38Z</time>
      </trkpt>
      <trkpt lat="47.5882" lon="-0.67449">
        <ele>20.32</ele>
        <time>2014-03-16T08:29:40Z</time>
      </trkpt>
      <trkpt lat="47.58839" lon="-0.67487">
        <ele>19.84</ele>
        <time>2014-03-16T08:29:47Z</time>
      </trkpt>
      <trkpt lat="47.5885" lon="-0.67508">
        <ele>20.81</ele>
        <time>2014-03-16T08:29:51Z</time>
      </trkpt>
      <trkpt lat="47.58874" lon="-0.67555">
        <ele>19.36</ele>
        <time>2014-03-16T08:29:59Z</time>
      </trkpt>
      <trkpt lat="47.58883" lon="-0.67571">
        <ele>19.84</ele>
        <time>2014-03-16T08:30:02Z</time>
      </trkpt>
      <trkpt lat="47.58901" lon="-0.67609">
        <ele>19.84</ele>
        <time>2014-03-16T08:30:09Z</time>
      </trkpt>
      <trkpt lat="47.58907" lon="-0.67618">
        <ele>19.36</ele>
        <time>2014-03-16T08:30:11Z</time>
      </trkpt>
      <trkpt lat="47.58921" lon="-0.67647">
        <ele>19.36</ele>
        <time>2014-03-16T08:30:16Z</time>
      </trkpt>
      <trkpt lat="47.58944" lon="-0.67693">
        <ele>19.84</ele>
        <time>2014-03-16T08:30:24Z</time>
      </trkpt>
      <trkpt lat="47.58955" lon="-0.67715">
        <ele>19.36</ele>
        <time>2014-03-16T08:30:28Z</time>
      </trkpt>
      <trkpt lat="47.58962" lon="-0.67732">
        <ele>19.84</ele>
        <time>2014-03-16T08:30:31Z</time>
      </trkpt>
      <trkpt lat="47.58971" lon="-0.67747">
        <ele>19.36</ele>
        <time>2014-03-16T08:30:34Z</time>
      </trkpt>
      <trkpt lat="47.58993" lon="-0.67799">
        <ele>19.84</ele>
        <time>2014-03-16T08:30:43Z</time>
      </trkpt>
      <trkpt lat="47.58995" lon="-0.67805">
        <ele>19.84</ele>
        <time>2014-03-16T08:30:44Z</time>
      </trkpt>
      <trkpt lat="47.59014" lon="-0.67847">
        <ele>20.32</ele>
        <time>2014-03-16T08:30:52Z</time>
      </trkpt>
      <trkpt lat="47.59022" lon="-0.67867">
        <ele>20.81</ele>
        <time>2014-03-16T08:30:56Z</time>
      </trkpt>
      <trkpt lat="47.59038" lon="-0.67902">
        <ele>20.81</ele>
        <time>2014-03-16T08:31:02Z</time>
      </trkpt>
      <trkpt lat="47.59041" lon="-0.67913">
        <ele>20.81</ele>
        <time>2014-03-16T08:31:04Z</time>
      </trkpt>
      <trkpt lat="47.59051" lon="-0.67943">
        <ele>20.81</ele>
        <time>2014-03-16T08:31:09Z</time>
      </trkpt>
      <trkpt lat="47.5907" lon="-0.67996">
        <ele>20.81</ele>
        <time>2014-03-16T08:31:18Z</time>
      </trkpt>
      <trkpt lat="47.59087" lon="-0.68042">
        <ele>21.29</ele>
        <time>2014-03-16T08:31:26Z</time>
      </trkpt>
      <trkpt lat="47.59091" lon="-0.68054">
        <ele>21.77</ele>
        <time>2014-03-16T08:31:28Z</time>
      </trkpt>
      <trkpt lat="47.59103" lon="-0.68089">
        <ele>21.29</ele>
        <time>2014-03-16T08:31:34Z</time>
      </trkpt>
      <trkpt lat="47.59114" lon="-0.68124">
        <ele>21.29</ele>
        <time>2014-03-16T08:31:40Z</time>
      </trkpt>
      <trkpt lat="47.59142" lon="-0.6817">
        <ele>21.29</ele>
        <time>2014-03-16T08:31:47Z</time>
      </trkpt>
      <trkpt lat="47.59149" lon="-0.68185">
        <ele>20.81</ele>
        <time>2014-03-16T08:31:49Z</time>
      </trkpt>
      <trkpt lat="47.59163" lon="-0.6822">
        <ele>20.81</ele>
        <time>2014-03-16T08:31:54Z</time>
      </trkpt>
      <trkpt lat="47.59171" lon="-0.68237">
        <ele>20.81</ele>
        <time>2014-03-16T08:31:57Z</time>
      </trkpt>
      <trkpt lat="47.59187" lon="-0.68275">
        <ele>21.29</ele>
        <time>2014-03-16T08:32:03Z</time>
      </trkpt>
      <trkpt lat="47.5919" lon="-0.68288">
        <ele>20.81</ele>
        <time>2014-03-16T08:32:05Z</time>
      </trkpt>
      <trkpt lat="47.59198" lon="-0.68324">
        <ele>21.77</ele>
        <time>2014-03-16T08:32:10Z</time>
      </trkpt>
      <trkpt lat="47.59199" lon="-0.68331">
        <ele>21.77</ele>
        <time>2014-03-16T08:32:11Z</time>
      </trkpt>
      <trkpt lat="47.59201" lon="-0.68337">
        <ele>22.25</ele>
        <time>2014-03-16T08:32:12Z</time>
      </trkpt>
      <trkpt lat="47.59205" lon="-0.6835">
        <ele>22.25</ele>
        <time>2014-03-16T08:32:14Z</time>
      </trkpt>
      <trkpt lat="47.5921" lon="-0.6837">
        <ele>21.77</ele>
        <time>2014-03-16T08:32:17Z</time>
      </trkpt>
      <trkpt lat="47.59211" lon="-0.68377">
        <ele>21.77</ele>
        <time>2014-03-16T08:32:18Z</time>
      </trkpt>
      <trkpt lat="47.59219" lon="-0.68409">
        <ele>21.77</ele>
        <time>2014-03-16T08:32:23Z</time>
      </trkpt>
      <trkpt lat="47.59226" lon="-0.68425">
        <ele>22.25</ele>
        <time>2014-03-16T08:32:26Z</time>
      </trkpt>
      <trkpt lat="47.59232" lon="-0.68433">
        <ele>22.73</ele>
        <time>2014-03-16T08:32:28Z</time>
      </trkpt>
      <trkpt lat="47.59241" lon="-0.68441">
        <ele>22.25</ele>
        <time>2014-03-16T08:32:30Z</time>
      </trkpt>
      <trkpt lat="47.59246" lon="-0.68446">
        <ele>21.77</ele>
        <time>2014-03-16T08:32:31Z</time>
      </trkpt>
      <trkpt lat="47.59251" lon="-0.68451">
        <ele>21.77</ele>
        <time>2014-03-16T08:32:32Z</time>
      </trkpt>
      <trkpt lat="47.5926" lon="-0.68461">
        <ele>22.25</ele>
        <time>2014-03-16T08:32:34Z</time>
      </trkpt>
      <trkpt lat="47.59263" lon="-0.68467">
        <ele>21.77</ele>
        <time>2014-03-16T08:32:35Z</time>
      </trkpt>
      <trkpt lat="47.59275" lon="-0.68484">
        <ele>22.25</ele>
        <time>2014-03-16T08:32:38Z</time>
      </trkpt>
      <trkpt lat="47.59279" lon="-0.6849">
        <ele>22.25</ele>
        <time>2014-03-16T08:32:39Z</time>
      </trkpt>
      <trkpt lat="47.59294" lon="-0.68516">
        <ele>21.77</ele>
        <time>2014-03-16T08:32:43Z</time>
      </trkpt>
      <trkpt lat="47.59297" lon="-0.68522">
        <ele>22.25</ele>
        <time>2014-03-16T08:32:44Z</time>
      </trkpt>
      <trkpt lat="47.59305" lon="-0.68536">
        <ele>21.77</ele>
        <time>2014-03-16T08:32:46Z</time>
      </trkpt>
      <trkpt lat="47.5932" lon="-0.68561">
        <ele>21.29</ele>
        <time>2014-03-16T08:32:50Z</time>
      </trkpt>
      <trkpt lat="47.59324" lon="-0.68567">
        <ele>21.29</ele>
        <time>2014-03-16T08:32:51Z</time>
      </trkpt>
      <trkpt lat="47.59332" lon="-0.68578">
        <ele>20.81</ele>
        <time>2014-03-16T08:32:53Z</time>
      </trkpt>
      <trkpt lat="47.59349" lon="-0.686">
        <ele>20.81</ele>
        <time>2014-03-16T08:32:57Z</time>
      </trkpt>
      <trkpt lat="47.59358" lon="-0.6861">
        <ele>20.32</ele>
        <time>2014-03-16T08:32:59Z</time>
      </trkpt>
      <trkpt lat="47.59362" lon="-0.68615">
        <ele>20.32</ele>
        <time>2014-03-16T08:33:00Z</time>
      </trkpt>
      <trkpt lat="47.59367" lon="-0.68618">
        <ele>19.84</ele>
        <time>2014-03-16T08:33:01Z</time>
      </trkpt>
      <trkpt lat="47.59373" lon="-0.68621">
        <ele>19.84</ele>
        <time>2014-03-16T08:33:02Z</time>
      </trkpt>
      <trkpt lat="47.59378" lon="-0.68625">
        <ele>20.32</ele>
        <time>2014-03-16T08:33:03Z</time>
      </trkpt>
      <trkpt lat="47.59384" lon="-0.68627">
        <ele>19.84</ele>
        <time>2014-03-16T08:33:04Z</time>
      </trkpt>
      <trkpt lat="47.59389" lon="-0.68629">
        <ele>19.84</ele>
        <time>2014-03-16T08:33:05Z</time>
      </trkpt>
      <trkpt lat="47.59415" lon="-0.68639">
        <ele>20.32</ele>
        <time>2014-03-16T08:33:10Z</time>
      </trkpt>
      <trkpt lat="47.59419" lon="-0.68643">
        <ele>20.81</ele>
        <time>2014-03-16T08:33:11Z</time>
      </trkpt>
      <trkpt lat="47.59423" lon="-0.68647">
        <ele>21.29</ele>
        <time>2014-03-16T08:33:12Z</time>
      </trkpt>
      <trkpt lat="47.59427" lon="-0.68652">
        <ele>21.29</ele>
        <time>2014-03-16T08:33:13Z</time>
      </trkpt>
      <trkpt lat="47.59431" lon="-0.68656">
        <ele>21.77</ele>
        <time>2014-03-16T08:33:14Z</time>
      </trkpt>
      <trkpt lat="47.59435" lon="-0.6866">
        <ele>21.29</ele>
        <time>2014-03-16T08:33:15Z</time>
      </trkpt>
      <trkpt lat="47.5944" lon="-0.68664">
        <ele>21.29</ele>
        <time>2014-03-16T08:33:16Z</time>
      </trkpt>
      <trkpt lat="47.59461" lon="-0.68674">
        <ele>21.77</ele>
        <time>2014-03-16T08:33:21Z</time>
      </trkpt>
      <trkpt lat="47.59474" lon="-0.68679">
        <ele>21.77</ele>
        <time>2014-03-16T08:33:24Z</time>
      </trkpt>
      <trkpt lat="47.5948" lon="-0.6868">
        <ele>21.77</ele>
        <time>2014-03-16T08:33:25Z</time>
      </trkpt>
      <trkpt lat="47.59485" lon="-0.6868">
        <ele>21.77</ele>
        <time>2014-03-16T08:33:26Z</time>
      </trkpt>
      <trkpt lat="47.59489" lon="-0.6868">
        <ele>21.77</ele>
        <time>2014-03-16T08:33:27Z</time>
      </trkpt>
      <trkpt lat="47.59494" lon="-0.68682">
        <ele>21.77</ele>
        <time>2014-03-16T08:33:28Z</time>
      </trkpt>
      <trkpt lat="47.59508" lon="-0.68688">
        <ele>21.77</ele>
        <time>2014-03-16T08:33:31Z</time>
      </trkpt>
      <trkpt lat="47.59516" lon="-0.68695">
        <ele>21.77</ele>
        <time>2014-03-16T08:33:33Z</time>
      </trkpt>
      <trkpt lat="47.59521" lon="-0.68699">
        <ele>21.77</ele>
        <time>2014-03-16T08:33:34Z</time>
      </trkpt>
      <trkpt lat="47.59531" lon="-0.68704">
        <ele>21.29</ele>
        <time>2014-03-16T08:33:36Z</time>
      </trkpt>
      <trkpt lat="47.5954" lon="-0.68711">
        <ele>21.29</ele>
        <time>2014-03-16T08:33:38Z</time>
      </trkpt>
      <trkpt lat="47.5955" lon="-0.68717">
        <ele>21.29</ele>
        <time>2014-03-16T08:33:40Z</time>
      </trkpt>
      <trkpt lat="47.59555" lon="-0.68719">
        <ele>21.29</ele>
        <time>2014-03-16T08:33:41Z</time>
      </trkpt>
      <trkpt lat="47.5956" lon="-0.6872">
        <ele>21.29</ele>
        <time>2014-03-16T08:33:42Z</time>
      </trkpt>
      <trkpt lat="47.59565" lon="-0.68721">
        <ele>20.81</ele>
        <time>2014-03-16T08:33:43Z</time>
      </trkpt>
      <trkpt lat="47.59571" lon="-0.68721">
        <ele>20.81</ele>
        <time>2014-03-16T08:33:44Z</time>
      </trkpt>
      <trkpt lat="47.59586" lon="-0.68722">
        <ele>20.81</ele>
        <time>2014-03-16T08:33:47Z</time>
      </trkpt>
      <trkpt lat="47.59591" lon="-0.68724">
        <ele>20.81</ele>
        <time>2014-03-16T08:33:48Z</time>
      </trkpt>
      <trkpt lat="47.59628" lon="-0.68742">
        <ele>20.81</ele>
        <time>2014-03-16T08:33:55Z</time>
      </trkpt>
      <trkpt lat="47.5965" lon="-0.68752">
        <ele>20.32</ele>
        <time>2014-03-16T08:34:00Z</time>
      </trkpt>
      <trkpt lat="47.59672" lon="-0.68754">
        <ele>19.84</ele>
        <time>2014-03-16T08:34:04Z</time>
      </trkpt>
      <trkpt lat="47.59678" lon="-0.68756">
        <ele>19.84</ele>
        <time>2014-03-16T08:34:05Z</time>
      </trkpt>
      <trkpt lat="47.59683" lon="-0.68756">
        <ele>19.84</ele>
        <time>2014-03-16T08:34:06Z</time>
      </trkpt>
      <trkpt lat="47.59689" lon="-0.68756">
        <ele>19.36</ele>
        <time>2014-03-16T08:34:07Z</time>
      </trkpt>
      <trkpt lat="47.59693" lon="-0.68757">
        <ele>19.84</ele>
        <time>2014-03-16T08:34:08Z</time>
      </trkpt>
      <trkpt lat="47.59698" lon="-0.68757">
        <ele>19.84</ele>
        <time>2014-03-16T08:34:09Z</time>
      </trkpt>
      <trkpt lat="47.59703" lon="-0.68757">
        <ele>19.84</ele>
        <time>2014-03-16T08:34:10Z</time>
      </trkpt>
      <trkpt lat="47.59712" lon="-0.68758">
        <ele>19.84</ele>
        <time>2014-03-16T08:34:12Z</time>
      </trkpt>
      <trkpt lat="47.59717" lon="-0.68758">
        <ele>19.84</ele>
        <time>2014-03-16T08:34:13Z</time>
      </trkpt>
      <trkpt lat="47.59722" lon="-0.68757">
        <ele>19.36</ele>
        <time>2014-03-16T08:34:14Z</time>
      </trkpt>
      <trkpt lat="47.59727" lon="-0.68755">
        <ele>19.36</ele>
        <time>2014-03-16T08:34:15Z</time>
      </trkpt>
      <trkpt lat="47.59732" lon="-0.68754">
        <ele>19.84</ele>
        <time>2014-03-16T08:34:16Z</time>
      </trkpt>
      <trkpt lat="47.59737" lon="-0.68754">
        <ele>19.36</ele>
        <time>2014-03-16T08:34:17Z</time>
      </trkpt>
      <trkpt lat="47.59742" lon="-0.68753">
        <ele>19.36</ele>
        <time>2014-03-16T08:34:18Z</time>
      </trkpt>
      <trkpt lat="47.59747" lon="-0.68754">
        <ele>19.84</ele>
        <time>2014-03-16T08:34:19Z</time>
      </trkpt>
      <trkpt lat="47.59771" lon="-0.68753">
        <ele>19.84</ele>
        <time>2014-03-16T08:34:24Z</time>
      </trkpt>
      <trkpt lat="47.59776" lon="-0.68752">
        <ele>19.84</ele>
        <time>2014-03-16T08:34:25Z</time>
      </trkpt>
      <trkpt lat="47.5981" lon="-0.68745">
        <ele>19.84</ele>
        <time>2014-03-16T08:34:32Z</time>
      </trkpt>
      <trkpt lat="47.5983" lon="-0.68743">
        <ele>19.84</ele>
        <time>2014-03-16T08:34:36Z</time>
      </trkpt>
      <trkpt lat="47.59862" lon="-0.68739">
        <ele>19.84</ele>
        <time>2014-03-16T08:34:43Z</time>
      </trkpt>
      <trkpt lat="47.59866" lon="-0.68739">
        <ele>19.36</ele>
        <time>2014-03-16T08:34:44Z</time>
      </trkpt>
      <trkpt lat="47.59871" lon="-0.68738">
        <ele>19.36</ele>
        <time>2014-03-16T08:34:45Z</time>
      </trkpt>
      <trkpt lat="47.59898" lon="-0.68732">
        <ele>19.84</ele>
        <time>2014-03-16T08:34:51Z</time>
      </trkpt>
      <trkpt lat="47.59903" lon="-0.68731">
        <ele>19.84</ele>
        <time>2014-03-16T08:34:52Z</time>
      </trkpt>
      <trkpt lat="47.59907" lon="-0.6873">
        <ele>19.84</ele>
        <time>2014-03-16T08:34:53Z</time>
      </trkpt>
      <trkpt lat="47.59916" lon="-0.68727">
        <ele>20.32</ele>
        <time>2014-03-16T08:34:55Z</time>
      </trkpt>
      <trkpt lat="47.5992" lon="-0.68727">
        <ele>20.32</ele>
        <time>2014-03-16T08:34:56Z</time>
      </trkpt>
      <trkpt lat="47.59925" lon="-0.68727">
        <ele>20.32</ele>
        <time>2014-03-16T08:34:57Z</time>
      </trkpt>
      <trkpt lat="47.59934" lon="-0.68727">
        <ele>19.84</ele>
        <time>2014-03-16T08:34:59Z</time>
      </trkpt>
      <trkpt lat="47.59939" lon="-0.68726">
        <ele>19.84</ele>
        <time>2014-03-16T08:35:00Z</time>
      </trkpt>
      <trkpt lat="47.59949" lon="-0.68723">
        <ele>19.84</ele>
        <time>2014-03-16T08:35:02Z</time>
      </trkpt>
      <trkpt lat="47.59962" lon="-0.68722">
        <ele>19.84</ele>
        <time>2014-03-16T08:35:05Z</time>
      </trkpt>
      <trkpt lat="47.59966" lon="-0.68721">
        <ele>19.36</ele>
        <time>2014-03-16T08:35:06Z</time>
      </trkpt>
      <trkpt lat="47.59975" lon="-0.68718">
        <ele>19.84</ele>
        <time>2014-03-16T08:35:08Z</time>
      </trkpt>
      <trkpt lat="47.59979" lon="-0.68715">
        <ele>19.84</ele>
        <time>2014-03-16T08:35:09Z</time>
      </trkpt>
      <trkpt lat="47.59982" lon="-0.68712">
        <ele>19.84</ele>
        <time>2014-03-16T08:35:10Z</time>
      </trkpt>
      <trkpt lat="47.59986" lon="-0.68711">
        <ele>19.84</ele>
        <time>2014-03-16T08:35:11Z</time>
      </trkpt>
      <trkpt lat="47.5999" lon="-0.6871">
        <ele>19.84</ele>
        <time>2014-03-16T08:35:12Z</time>
      </trkpt>
      <trkpt lat="47.59995" lon="-0.68709">
        <ele>19.84</ele>
        <time>2014-03-16T08:35:13Z</time>
      </trkpt>
      <trkpt lat="47.60007" lon="-0.68707">
        <ele>20.81</ele>
        <time>2014-03-16T08:35:16Z</time>
      </trkpt>
      <trkpt lat="47.60012" lon="-0.68706">
        <ele>19.84</ele>
        <time>2014-03-16T08:35:17Z</time>
      </trkpt>
      <trkpt lat="47.60029" lon="-0.68702">
        <ele>19.84</ele>
        <time>2014-03-16T08:35:21Z</time>
      </trkpt>
      <trkpt lat="47.60047" lon="-0.68698">
        <ele>19.84</ele>
        <time>2014-03-16T08:35:25Z</time>
      </trkpt>
      <trkpt lat="47.60052" lon="-0.68697">
        <ele>19.84</ele>
        <time>2014-03-16T08:35:26Z</time>
      </trkpt>
      <trkpt lat="47.6009" lon="-0.68687">
        <ele>19.84</ele>
        <time>2014-03-16T08:35:34Z</time>
      </trkpt>
      <trkpt lat="47.60132" lon="-0.68671">
        <ele>19.84</ele>
        <time>2014-03-16T08:35:43Z</time>
      </trkpt>
      <trkpt lat="47.60152" lon="-0.6866">
        <ele>19.36</ele>
        <time>2014-03-16T08:35:48Z</time>
      </trkpt>
      <trkpt lat="47.60156" lon="-0.68659">
        <ele>19.36</ele>
        <time>2014-03-16T08:35:49Z</time>
      </trkpt>
      <trkpt lat="47.60165" lon="-0.6866">
        <ele>19.36</ele>
        <time>2014-03-16T08:35:51Z</time>
      </trkpt>
      <trkpt lat="47.60169" lon="-0.68662">
        <ele>18.88</ele>
        <time>2014-03-16T08:35:52Z</time>
      </trkpt>
      <trkpt lat="47.60172" lon="-0.68664">
        <ele>18.88</ele>
        <time>2014-03-16T08:35:53Z</time>
      </trkpt>
      <trkpt lat="47.60174" lon="-0.68666">
        <ele>19.36</ele>
        <time>2014-03-16T08:35:54Z</time>
      </trkpt>
      <trkpt lat="47.60175" lon="-0.68668">
        <ele>19.36</ele>
        <time>2014-03-16T08:35:55Z</time>
      </trkpt>
      <trkpt lat="47.60176" lon="-0.6867">
        <ele>19.36</ele>
        <time>2014-03-16T08:35:56Z</time>
      </trkpt>
      <trkpt lat="47.60177" lon="-0.68671">
        <ele>19.36</ele>
        <time>2014-03-16T08:35:57Z</time>
      </trkpt>
      <trkpt lat="47.60177" lon="-0.68673">
        <ele>18.88</ele>
        <time>2014-03-16T08:36:02Z</time>
      </trkpt>
      <trkpt lat="47.60177" lon="-0.68673">
        <ele>19.84</ele>
        <time>2014-03-16T08:36:20Z</time>
      </trkpt>
      <trkpt lat="47.60177" lon="-0.68673">
        <ele>19.36</ele>
        <time>2014-03-16T08:36:25Z</time>
      </trkpt>
      <trkpt lat="47.60175" lon="-0.68702">
        <ele>20.32</ele>
        <time>2014-03-16T08:36:33Z</time>
      </trkpt>
      <trkpt lat="47.60166" lon="-0.68742">
        <ele>22.73</ele>
        <time>2014-03-16T08:36:41Z</time>
      </trkpt>
      <trkpt lat="47.60162" lon="-0.68759">
        <ele>24.17</ele>
        <time>2014-03-16T08:36:45Z</time>
      </trkpt>
      <trkpt lat="47.60158" lon="-0.68778">
        <ele>25.61</ele>
        <time>2014-03-16T08:36:50Z</time>
      </trkpt>
      <trkpt lat="47.60161" lon="-0.68788">
        <ele>27.05</ele>
        <time>2014-03-16T08:36:58Z</time>
      </trkpt>
      <trkpt lat="47.60161" lon="-0.68789">
        <ele>27.05</ele>
        <time>2014-03-16T08:37:01Z</time>
      </trkpt>
      <trkpt lat="47.60156" lon="-0.68792">
        <ele>27.53</ele>
        <time>2014-03-16T08:37:06Z</time>
      </trkpt>
      <trkpt lat="47.6014" lon="-0.688">
        <ele>28.5</ele>
        <time>2014-03-16T08:37:13Z</time>
      </trkpt>
      <trkpt lat="47.6012" lon="-0.68814">
        <ele>30.42</ele>
        <time>2014-03-16T08:37:21Z</time>
      </trkpt>
      <trkpt lat="47.60101" lon="-0.68829">
        <ele>31.86</ele>
        <time>2014-03-16T08:37:29Z</time>
      </trkpt>
      <trkpt lat="47.60082" lon="-0.68839">
        <ele>33.3</ele>
        <time>2014-03-16T08:37:37Z</time>
      </trkpt>
      <trkpt lat="47.60066" lon="-0.6885">
        <ele>34.26</ele>
        <time>2014-03-16T08:37:44Z</time>
      </trkpt>
      <trkpt lat="47.60049" lon="-0.68856">
        <ele>34.74</ele>
        <time>2014-03-16T08:37:51Z</time>
      </trkpt>
      <trkpt lat="47.60031" lon="-0.68865">
        <ele>36.67</ele>
        <time>2014-03-16T08:37:59Z</time>
      </trkpt>
      <trkpt lat="47.60018" lon="-0.68874">
        <ele>37.63</ele>
        <time>2014-03-16T08:38:05Z</time>
      </trkpt>
      <trkpt lat="47.60002" lon="-0.68891">
        <ele>39.07</ele>
        <time>2014-03-16T08:38:12Z</time>
      </trkpt>
      <trkpt lat="47.59986" lon="-0.68911">
        <ele>40.99</ele>
        <time>2014-03-16T08:38:20Z</time>
      </trkpt>
      <trkpt lat="47.59975" lon="-0.68929">
        <ele>41.95</ele>
        <time>2014-03-16T08:38:27Z</time>
      </trkpt>
      <trkpt lat="47.59965" lon="-0.68948">
        <ele>43.4</ele>
        <time>2014-03-16T08:38:34Z</time>
      </trkpt>
      <trkpt lat="47.59952" lon="-0.68977">
        <ele>44.84</ele>
        <time>2014-03-16T08:38:44Z</time>
      </trkpt>
      <trkpt lat="47.59944" lon="-0.68998">
        <ele>45.8</ele>
        <time>2014-03-16T08:38:51Z</time>
      </trkpt>
      <trkpt lat="47.59941" lon="-0.69011">
        <ele>46.28</ele>
        <time>2014-03-16T08:38:55Z</time>
      </trkpt>
      <trkpt lat="47.59949" lon="-0.69019">
        <ele>47.24</ele>
        <time>2014-03-16T08:39:00Z</time>
      </trkpt>
      <trkpt lat="47.5996" lon="-0.6902">
        <ele>49.16</ele>
        <time>2014-03-16T08:39:06Z</time>
      </trkpt>
      <trkpt lat="47.59973" lon="-0.69026">
        <ele>50.61</ele>
        <time>2014-03-16T08:39:13Z</time>
      </trkpt>
      <trkpt lat="47.59975" lon="-0.69026">
        <ele>51.09</ele>
        <time>2014-03-16T08:39:14Z</time>
      </trkpt>
      <trkpt lat="47.59992" lon="-0.69036">
        <ele>51.57</ele>
        <time>2014-03-16T08:39:22Z</time>
      </trkpt>
      <trkpt lat="47.60012" lon="-0.69047">
        <ele>52.05</ele>
        <time>2014-03-16T08:39:30Z</time>
      </trkpt>
      <trkpt lat="47.60031" lon="-0.69058">
        <ele>52.05</ele>
        <time>2014-03-16T08:39:37Z</time>
      </trkpt>
      <trkpt lat="47.60059" lon="-0.69075">
        <ele>51.57</ele>
        <time>2014-03-16T08:39:44Z</time>
      </trkpt>
      <trkpt lat="47.60077" lon="-0.69088">
        <ele>51.09</ele>
        <time>2014-03-16T08:39:48Z</time>
      </trkpt>
      <trkpt lat="47.60115" lon="-0.69112">
        <ele>50.13</ele>
        <time>2014-03-16T08:39:56Z</time>
      </trkpt>
      <trkpt lat="47.6012" lon="-0.69114">
        <ele>50.13</ele>
        <time>2014-03-16T08:39:57Z</time>
      </trkpt>
      <trkpt lat="47.60125" lon="-0.69116">
        <ele>49.65</ele>
        <time>2014-03-16T08:39:58Z</time>
      </trkpt>
      <trkpt lat="47.6013" lon="-0.69118">
        <ele>49.65</ele>
        <time>2014-03-16T08:39:59Z</time>
      </trkpt>
      <trkpt lat="47.60135" lon="-0.6912">
        <ele>49.65</ele>
        <time>2014-03-16T08:40:00Z</time>
      </trkpt>
      <trkpt lat="47.60141" lon="-0.69122">
        <ele>49.16</ele>
        <time>2014-03-16T08:40:01Z</time>
      </trkpt>
      <trkpt lat="47.60147" lon="-0.69123">
        <ele>49.16</ele>
        <time>2014-03-16T08:40:02Z</time>
      </trkpt>
      <trkpt lat="47.60157" lon="-0.69124">
        <ele>49.65</ele>
        <time>2014-03-16T08:40:04Z</time>
      </trkpt>
      <trkpt lat="47.60194" lon="-0.69127">
        <ele>47.72</ele>
        <time>2014-03-16T08:40:10Z</time>
      </trkpt>
      <trkpt lat="47.6021" lon="-0.69131">
        <ele>47.24</ele>
        <time>2014-03-16T08:40:13Z</time>
      </trkpt>
      <trkpt lat="47.60215" lon="-0.69132">
        <ele>47.24</ele>
        <time>2014-03-16T08:40:14Z</time>
      </trkpt>
      <trkpt lat="47.6022" lon="-0.69132">
        <ele>47.24</ele>
        <time>2014-03-16T08:40:15Z</time>
      </trkpt>
      <trkpt lat="47.60238" lon="-0.69131">
        <ele>45.8</ele>
        <time>2014-03-16T08:40:18Z</time>
      </trkpt>
      <trkpt lat="47.60244" lon="-0.69131">
        <ele>46.28</ele>
        <time>2014-03-16T08:40:19Z</time>
      </trkpt>
      <trkpt lat="47.60281" lon="-0.69134">
        <ele>45.8</ele>
        <time>2014-03-16T08:40:26Z</time>
      </trkpt>
      <trkpt lat="47.6029" lon="-0.69135">
        <ele>45.32</ele>
        <time>2014-03-16T08:40:28Z</time>
      </trkpt>
      <trkpt lat="47.60321" lon="-0.69145">
        <ele>44.84</ele>
        <time>2014-03-16T08:40:34Z</time>
      </trkpt>
      <trkpt lat="47.60332" lon="-0.69151">
        <ele>44.36</ele>
        <time>2014-03-16T08:40:36Z</time>
      </trkpt>
      <trkpt lat="47.60337" lon="-0.69153">
        <ele>44.36</ele>
        <time>2014-03-16T08:40:37Z</time>
      </trkpt>
      <trkpt lat="47.6036" lon="-0.69165">
        <ele>44.36</ele>
        <time>2014-03-16T08:40:41Z</time>
      </trkpt>
      <trkpt lat="47.60376" lon="-0.69172">
        <ele>44.36</ele>
        <time>2014-03-16T08:40:44Z</time>
      </trkpt>
      <trkpt lat="47.60381" lon="-0.6917">
        <ele>43.4</ele>
        <time>2014-03-16T08:40:45Z</time>
      </trkpt>
      <trkpt lat="47.60385" lon="-0.69167">
        <ele>43.4</ele>
        <time>2014-03-16T08:40:46Z</time>
      </trkpt>
      <trkpt lat="47.60392" lon="-0.69141">
        <ele>42.92</ele>
        <time>2014-03-16T08:40:50Z</time>
      </trkpt>
      <trkpt lat="47.60391" lon="-0.69133">
        <ele>42.44</ele>
        <time>2014-03-16T08:40:51Z</time>
      </trkpt>
      <trkpt lat="47.6039" lon="-0.69125">
        <ele>41.95</ele>
        <time>2014-03-16T08:40:52Z</time>
      </trkpt>
      <trkpt lat="47.60388" lon="-0.69116">
        <ele>41.95</ele>
        <time>2014-03-16T08:40:53Z</time>
      </trkpt>
      <trkpt lat="47.60376" lon="-0.6905">
        <ele>37.15</ele>
        <time>2014-03-16T08:41:00Z</time>
      </trkpt>
      <trkpt lat="47.6037" lon="-0.69017">
        <ele>34.26</ele>
        <time>2014-03-16T08:41:03Z</time>
      </trkpt>
      <trkpt lat="47.60369" lon="-0.68994">
        <ele>33.3</ele>
        <time>2014-03-16T08:41:05Z</time>
      </trkpt>
      <trkpt lat="47.6037" lon="-0.68982">
        <ele>32.82</ele>
        <time>2014-03-16T08:41:06Z</time>
      </trkpt>
      <trkpt lat="47.6038" lon="-0.68929">
        <ele>29.94</ele>
        <time>2014-03-16T08:41:11Z</time>
      </trkpt>
      <trkpt lat="47.60385" lon="-0.68913">
        <ele>28.02</ele>
        <time>2014-03-16T08:41:15Z</time>
      </trkpt>
      <trkpt lat="47.60385" lon="-0.68913">
        <ele>28.02</ele>
        <time>2014-03-16T08:41:25Z</time>
      </trkpt>
      <trkpt lat="47.60386" lon="-0.68907">
        <ele>28.5</ele>
        <time>2014-03-16T08:41:30Z</time>
      </trkpt>
      <trkpt lat="47.60379" lon="-0.6889">
        <ele>27.53</ele>
        <time>2014-03-16T08:41:35Z</time>
      </trkpt>
      <trkpt lat="47.60367" lon="-0.68882">
        <ele>28.02</ele>
        <time>2014-03-16T08:41:38Z</time>
      </trkpt>
      <trkpt lat="47.60344" lon="-0.68864">
        <ele>28.02</ele>
        <time>2014-03-16T08:41:43Z</time>
      </trkpt>
      <trkpt lat="47.60325" lon="-0.6883">
        <ele>27.05</ele>
        <time>2014-03-16T08:41:48Z</time>
      </trkpt>
      <trkpt lat="47.60308" lon="-0.68797">
        <ele>25.61</ele>
        <time>2014-03-16T08:41:52Z</time>
      </trkpt>
      <trkpt lat="47.60284" lon="-0.68771">
        <ele>24.17</ele>
        <time>2014-03-16T08:41:57Z</time>
      </trkpt>
      <trkpt lat="47.60286" lon="-0.68739">
        <ele>22.73</ele>
        <time>2014-03-16T08:42:01Z</time>
      </trkpt>
      <trkpt lat="47.60292" lon="-0.68713">
        <ele>22.25</ele>
        <time>2014-03-16T08:42:04Z</time>
      </trkpt>
      <trkpt lat="47.60308" lon="-0.68679">
        <ele>21.29</ele>
        <time>2014-03-16T08:42:09Z</time>
      </trkpt>
      <trkpt lat="47.60325" lon="-0.68664">
        <ele>20.81</ele>
        <time>2014-03-16T08:42:13Z</time>
      </trkpt>
      <trkpt lat="47.60339" lon="-0.68662">
        <ele>21.77</ele>
        <time>2014-03-16T08:42:17Z</time>
      </trkpt>
      <trkpt lat="47.6035" lon="-0.6866">
        <ele>21.77</ele>
        <time>2014-03-16T08:42:20Z</time>
      </trkpt>
      <trkpt lat="47.60366" lon="-0.68656">
        <ele>22.25</ele>
        <time>2014-03-16T08:42:24Z</time>
      </trkpt>
      <trkpt lat="47.60384" lon="-0.68653">
        <ele>23.21</ele>
        <time>2014-03-16T08:42:28Z</time>
      </trkpt>
      <trkpt lat="47.60425" lon="-0.68663">
        <ele>23.21</ele>
        <time>2014-03-16T08:42:36Z</time>
      </trkpt>
      <trkpt lat="47.60449" lon="-0.68671">
        <ele>22.25</ele>
        <time>2014-03-16T08:42:43Z</time>
      </trkpt>
      <trkpt lat="47.60453" lon="-0.68672">
        <ele>22.25</ele>
        <time>2014-03-16T08:42:45Z</time>
      </trkpt>
      <trkpt lat="47.60467" lon="-0.68673">
        <ele>22.73</ele>
        <time>2014-03-16T08:42:49Z</time>
      </trkpt>
      <trkpt lat="47.60515" lon="-0.68684">
        <ele>22.73</ele>
        <time>2014-03-16T08:42:59Z</time>
      </trkpt>
      <trkpt lat="47.6056" lon="-0.68694">
        <ele>22.73</ele>
        <time>2014-03-16T08:43:08Z</time>
      </trkpt>
      <trkpt lat="47.60607" lon="-0.68705">
        <ele>23.21</ele>
        <time>2014-03-16T08:43:17Z</time>
      </trkpt>
      <trkpt lat="47.60617" lon="-0.68707">
        <ele>23.69</ele>
        <time>2014-03-16T08:43:19Z</time>
      </trkpt>
      <trkpt lat="47.60657" lon="-0.68716">
        <ele>23.21</ele>
        <time>2014-03-16T08:43:27Z</time>
      </trkpt>
      <trkpt lat="47.60685" lon="-0.68722">
        <ele>23.21</ele>
        <time>2014-03-16T08:43:33Z</time>
      </trkpt>
      <trkpt lat="47.60725" lon="-0.6873">
        <ele>23.21</ele>
        <time>2014-03-16T08:43:41Z</time>
      </trkpt>
      <trkpt lat="47.60736" lon="-0.68731">
        <ele>23.21</ele>
        <time>2014-03-16T08:43:43Z</time>
      </trkpt>
      <trkpt lat="47.60758" lon="-0.68735">
        <ele>22.73</ele>
        <time>2014-03-16T08:43:47Z</time>
      </trkpt>
      <trkpt lat="47.60794" lon="-0.68741">
        <ele>23.21</ele>
        <time>2014-03-16T08:43:54Z</time>
      </trkpt>
      <trkpt lat="47.60849" lon="-0.68754">
        <ele>22.73</ele>
        <time>2014-03-16T08:44:04Z</time>
      </trkpt>
      <trkpt lat="47.60898" lon="-0.68766">
        <ele>22.73</ele>
        <time>2014-03-16T08:44:13Z</time>
      </trkpt>
      <trkpt lat="47.60941" lon="-0.68776">
        <ele>22.25</ele>
        <time>2014-03-16T08:44:21Z</time>
      </trkpt>
      <trkpt lat="47.60998" lon="-0.68789">
        <ele>22.25</ele>
        <time>2014-03-16T08:44:31Z</time>
      </trkpt>
      <trkpt lat="47.61015" lon="-0.68792">
        <ele>22.73</ele>
        <time>2014-03-16T08:44:34Z</time>
      </trkpt>
      <trkpt lat="47.61066" lon="-0.68803">
        <ele>22.25</ele>
        <time>2014-03-16T08:44:43Z</time>
      </trkpt>
      <trkpt lat="47.61118" lon="-0.68814">
        <ele>22.73</ele>
        <time>2014-03-16T08:44:52Z</time>
      </trkpt>
      <trkpt lat="47.61129" lon="-0.68816">
        <ele>22.73</ele>
        <time>2014-03-16T08:44:54Z</time>
      </trkpt>
      <trkpt lat="47.6115" lon="-0.68826">
        <ele>22.73</ele>
        <time>2014-03-16T08:44:58Z</time>
      </trkpt>
      <trkpt lat="47.61181" lon="-0.68854">
        <ele>22.73</ele>
        <time>2014-03-16T08:45:05Z</time>
      </trkpt>
      <trkpt lat="47.61215" lon="-0.68887">
        <ele>21.77</ele>
        <time>2014-03-16T08:45:12Z</time>
      </trkpt>
      <trkpt lat="47.61235" lon="-0.68907">
        <ele>21.77</ele>
        <time>2014-03-16T08:45:16Z</time>
      </trkpt>
      <trkpt lat="47.61278" lon="-0.68963">
        <ele>21.77</ele>
        <time>2014-03-16T08:45:26Z</time>
      </trkpt>
      <trkpt lat="47.61323" lon="-0.6902">
        <ele>21.77</ele>
        <time>2014-03-16T08:45:37Z</time>
      </trkpt>
      <trkpt lat="47.61344" lon="-0.69043">
        <ele>21.77</ele>
        <time>2014-03-16T08:45:42Z</time>
      </trkpt>
      <trkpt lat="47.61358" lon="-0.69054">
        <ele>21.77</ele>
        <time>2014-03-16T08:45:45Z</time>
      </trkpt>
      <trkpt lat="47.614" lon="-0.69104">
        <ele>21.77</ele>
        <time>2014-03-16T08:45:55Z</time>
      </trkpt>
      <trkpt lat="47.61421" lon="-0.6913">
        <ele>21.77</ele>
        <time>2014-03-16T08:46:00Z</time>
      </trkpt>
      <trkpt lat="47.61457" lon="-0.69178">
        <ele>21.77</ele>
        <time>2014-03-16T08:46:09Z</time>
      </trkpt>
      <trkpt lat="47.61471" lon="-0.69197">
        <ele>22.73</ele>
        <time>2014-03-16T08:46:13Z</time>
      </trkpt>
      <trkpt lat="47.61486" lon="-0.69226">
        <ele>22.25</ele>
        <time>2014-03-16T08:46:18Z</time>
      </trkpt>
      <trkpt lat="47.61492" lon="-0.69238">
        <ele>22.25</ele>
        <time>2014-03-16T08:46:20Z</time>
      </trkpt>
      <trkpt lat="47.61517" lon="-0.69287">
        <ele>22.25</ele>
        <time>2014-03-16T08:46:28Z</time>
      </trkpt>
      <trkpt lat="47.61545" lon="-0.69333">
        <ele>22.73</ele>
        <time>2014-03-16T08:46:36Z</time>
      </trkpt>
      <trkpt lat="47.61564" lon="-0.69378">
        <ele>22.25</ele>
        <time>2014-03-16T08:46:43Z</time>
      </trkpt>
      <trkpt lat="47.61575" lon="-0.69408">
        <ele>23.69</ele>
        <time>2014-03-16T08:46:48Z</time>
      </trkpt>
      <trkpt lat="47.6159" lon="-0.6944">
        <ele>26.09</ele>
        <time>2014-03-16T08:46:55Z</time>
      </trkpt>
      <trkpt lat="47.61603" lon="-0.69456">
        <ele>26.09</ele>
        <time>2014-03-16T08:47:00Z</time>
      </trkpt>
      <trkpt lat="47.61631" lon="-0.69463">
        <ele>27.05</ele>
        <time>2014-03-16T08:47:08Z</time>
      </trkpt>
      <trkpt lat="47.61658" lon="-0.69467">
        <ele>25.13</ele>
        <time>2014-03-16T08:47:15Z</time>
      </trkpt>
      <trkpt lat="47.61682" lon="-0.69472">
        <ele>23.69</ele>
        <time>2014-03-16T08:47:21Z</time>
      </trkpt>
      <trkpt lat="47.61698" lon="-0.69474">
        <ele>22.73</ele>
        <time>2014-03-16T08:47:26Z</time>
      </trkpt>
      <trkpt lat="47.61699" lon="-0.69481">
        <ele>21.77</ele>
        <time>2014-03-16T08:47:31Z</time>
      </trkpt>
      <trkpt lat="47.6169" lon="-0.69484">
        <ele>20.32</ele>
        <time>2014-03-16T08:47:34Z</time>
      </trkpt>
      <trkpt lat="47.61671" lon="-0.69486">
        <ele>20.81</ele>
        <time>2014-03-16T08:47:39Z</time>
      </trkpt>
      <trkpt lat="47.61665" lon="-0.69491">
        <ele>20.81</ele>
        <time>2014-03-16T08:47:41Z</time>
      </trkpt>
      <trkpt lat="47.61657" lon="-0.69511">
        <ele>20.32</ele>
        <time>2014-03-16T08:47:47Z</time>
      </trkpt>
      <trkpt lat="47.61658" lon="-0.69534">
        <ele>20.32</ele>
        <time>2014-03-16T08:47:53Z</time>
      </trkpt>
      <trkpt lat="47.61656" lon="-0.69574">
        <ele>21.29</ele>
        <time>2014-03-16T08:48:01Z</time>
      </trkpt>
      <trkpt lat="47.61656" lon="-0.69608">
        <ele>20.81</ele>
        <time>2014-03-16T08:48:08Z</time>
      </trkpt>
      <trkpt lat="47.61655" lon="-0.69646">
        <ele>20.81</ele>
        <time>2014-03-16T08:48:15Z</time>
      </trkpt>
      <trkpt lat="47.61656" lon="-0.6968">
        <ele>20.81</ele>
        <time>2014-03-16T08:48:21Z</time>
      </trkpt>
      <trkpt lat="47.61656" lon="-0.69688">
        <ele>21.29</ele>
        <time>2014-03-16T08:48:23Z</time>
      </trkpt>
      <trkpt lat="47.61653" lon="-0.69702">
        <ele>21.29</ele>
        <time>2014-03-16T08:48:29Z</time>
      </trkpt>
      <trkpt lat="47.61656" lon="-0.69721">
        <ele>20.32</ele>
        <time>2014-03-16T08:48:35Z</time>
      </trkpt>
      <trkpt lat="47.61656" lon="-0.69727">
        <ele>20.81</ele>
        <time>2014-03-16T08:48:37Z</time>
      </trkpt>
      <trkpt lat="47.61659" lon="-0.69755">
        <ele>21.29</ele>
        <time>2014-03-16T08:48:43Z</time>
      </trkpt>
      <trkpt lat="47.61659" lon="-0.69783">
        <ele>21.29</ele>
        <time>2014-03-16T08:48:49Z</time>
      </trkpt>
      <trkpt lat="47.61662" lon="-0.69813">
        <ele>21.29</ele>
        <time>2014-03-16T08:48:56Z</time>
      </trkpt>
      <trkpt lat="47.6166" lon="-0.69825">
        <ele>20.81</ele>
        <time>2014-03-16T08:48:59Z</time>
      </trkpt>
      <trkpt lat="47.61661" lon="-0.69851">
        <ele>20.32</ele>
        <time>2014-03-16T08:49:05Z</time>
      </trkpt>
      <trkpt lat="47.61662" lon="-0.69883">
        <ele>20.32</ele>
        <time>2014-03-16T08:49:13Z</time>
      </trkpt>
      <trkpt lat="47.61664" lon="-0.6991">
        <ele>20.81</ele>
        <time>2014-03-16T08:49:20Z</time>
      </trkpt>
      <trkpt lat="47.61664" lon="-0.69934">
        <ele>20.81</ele>
        <time>2014-03-16T08:49:27Z</time>
      </trkpt>
      <trkpt lat="47.61656" lon="-0.69957">
        <ele>20.32</ele>
        <time>2014-03-16T08:49:35Z</time>
      </trkpt>
      <trkpt lat="47.61651" lon="-0.69969">
        <ele>20.32</ele>
        <time>2014-03-16T08:49:39Z</time>
      </trkpt>
      <trkpt lat="47.61647" lon="-0.69979">
        <ele>20.81</ele>
        <time>2014-03-16T08:49:43Z</time>
      </trkpt>
      <trkpt lat="47.61649" lon="-0.70005">
        <ele>20.81</ele>
        <time>2014-03-16T08:49:51Z</time>
      </trkpt>
      <trkpt lat="47.61654" lon="-0.70027">
        <ele>21.29</ele>
        <time>2014-03-16T08:49:57Z</time>
      </trkpt>
      <trkpt lat="47.61659" lon="-0.7005">
        <ele>21.77</ele>
        <time>2014-03-16T08:50:04Z</time>
      </trkpt>
      <trkpt lat="47.61664" lon="-0.70068">
        <ele>21.77</ele>
        <time>2014-03-16T08:50:10Z</time>
      </trkpt>
      <trkpt lat="47.61669" lon="-0.70085">
        <ele>21.77</ele>
        <time>2014-03-16T08:50:16Z</time>
      </trkpt>
      <trkpt lat="47.61677" lon="-0.70108">
        <ele>21.77</ele>
        <time>2014-03-16T08:50:25Z</time>
      </trkpt>
      <trkpt lat="47.61684" lon="-0.70127">
        <ele>21.77</ele>
        <time>2014-03-16T08:50:31Z</time>
      </trkpt>
      <trkpt lat="47.61694" lon="-0.7015">
        <ele>21.77</ele>
        <time>2014-03-16T08:50:40Z</time>
      </trkpt>
      <trkpt lat="47.61707" lon="-0.70173">
        <ele>21.77</ele>
        <time>2014-03-16T08:50:50Z</time>
      </trkpt>
      <trkpt lat="47.61708" lon="-0.70175">
        <ele>21.77</ele>
        <time>2014-03-16T08:50:51Z</time>
      </trkpt>
      <trkpt lat="47.61718" lon="-0.70191">
        <ele>21.29</ele>
        <time>2014-03-16T08:50:59Z</time>
      </trkpt>
      <trkpt lat="47.6172" lon="-0.70194">
        <ele>21.29</ele>
        <time>2014-03-16T08:51:00Z</time>
      </trkpt>
      <trkpt lat="47.61736" lon="-0.7021">
        <ele>21.77</ele>
        <time>2014-03-16T08:51:10Z</time>
      </trkpt>
      <trkpt lat="47.61753" lon="-0.70212">
        <ele>21.77</ele>
        <time>2014-03-16T08:51:18Z</time>
      </trkpt>
      <trkpt lat="47.61773" lon="-0.702">
        <ele>21.29</ele>
        <time>2014-03-16T08:51:27Z</time>
      </trkpt>
      <trkpt lat="47.61797" lon="-0.70186">
        <ele>21.29</ele>
        <time>2014-03-16T08:51:36Z</time>
      </trkpt>
      <trkpt lat="47.61811" lon="-0.70178">
        <ele>21.77</ele>
        <time>2014-03-16T08:51:42Z</time>
      </trkpt>
      <trkpt lat="47.61835" lon="-0.70164">
        <ele>22.25</ele>
        <time>2014-03-16T08:51:49Z</time>
      </trkpt>
      <trkpt lat="47.6186" lon="-0.7015">
        <ele>22.25</ele>
        <time>2014-03-16T08:51:56Z</time>
      </trkpt>
      <trkpt lat="47.61869" lon="-0.70146">
        <ele>22.73</ele>
        <time>2014-03-16T08:52:00Z</time>
      </trkpt>
      <trkpt lat="47.61871" lon="-0.70146">
        <ele>22.73</ele>
        <time>2014-03-16T08:52:01Z</time>
      </trkpt>
      <trkpt lat="47.61872" lon="-0.70147">
        <ele>22.73</ele>
        <time>2014-03-16T08:52:02Z</time>
      </trkpt>
      <trkpt lat="47.61872" lon="-0.7015">
        <ele>22.73</ele>
        <time>2014-03-16T08:52:08Z</time>
      </trkpt>
      <trkpt lat="47.61872" lon="-0.7015">
        <ele>22.25</ele>
        <time>2014-03-16T08:52:20Z</time>
      </trkpt>
      <trkpt lat="47.61872" lon="-0.7015">
        <ele>23.21</ele>
        <time>2014-03-16T08:52:34Z</time>
      </trkpt>
      <trkpt lat="47.61872" lon="-0.7015">
        <ele>22.25</ele>
        <time>2014-03-16T08:52:49Z</time>
      </trkpt>
      <trkpt lat="47.61872" lon="-0.7015">
        <ele>23.21</ele>
        <time>2014-03-16T08:53:03Z</time>
      </trkpt>
      <trkpt lat="47.61872" lon="-0.7015">
        <ele>22.25</ele>
        <time>2014-03-16T08:53:16Z</time>
      </trkpt>
      <trkpt lat="47.61872" lon="-0.7015">
        <ele>22.25</ele>
        <time>2014-03-16T08:53:36Z</time>
      </trkpt>
      <trkpt lat="47.61872" lon="-0.7015">
        <ele>21.77</ele>
        <time>2014-03-16T08:53:52Z</time>
      </trkpt>
      <trkpt lat="47.61872" lon="-0.7015">
        <ele>21.77</ele>
        <time>2014-03-16T08:54:07Z</time>
      </trkpt>
      <trkpt lat="47.61872" lon="-0.7015">
        <ele>21.29</ele>
        <time>2014-03-16T08:54:24Z</time>
      </trkpt>
      <trkpt lat="47.61872" lon="-0.7015">
        <ele>22.25</ele>
        <time>2014-03-16T08:54:39Z</time>
      </trkpt>
      <trkpt lat="47.61872" lon="-0.70149">
        <ele>21.77</ele>
        <time>2014-03-16T08:54:53Z</time>
      </trkpt>
      <trkpt lat="47.61872" lon="-0.70149">
        <ele>21.77</ele>
        <time>2014-03-16T08:55:07Z</time>
      </trkpt>
      <trkpt lat="47.61873" lon="-0.7015">
        <ele>21.77</ele>
        <time>2014-03-16T08:55:26Z</time>
      </trkpt>
      <trkpt lat="47.61873" lon="-0.7015">
        <ele>21.77</ele>
        <time>2014-03-16T08:55:44Z</time>
      </trkpt>
      <trkpt lat="47.61873" lon="-0.7015">
        <ele>21.77</ele>
        <time>2014-03-16T08:55:53Z</time>
      </trkpt>
      <trkpt lat="47.61873" lon="-0.7015">
        <ele>22.25</ele>
        <time>2014-03-16T08:56:04Z</time>
      </trkpt>
      <trkpt lat="47.61873" lon="-0.70149">
        <ele>22.25</ele>
        <time>2014-03-16T08:56:17Z</time>
      </trkpt>
      <trkpt lat="47.61873" lon="-0.70149">
        <ele>22.25</ele>
        <time>2014-03-16T08:56:27Z</time>
      </trkpt>
      <trkpt lat="47.61873" lon="-0.70149">
        <ele>22.25</ele>
        <time>2014-03-16T08:56:36Z</time>
      </trkpt>
      <trkpt lat="47.61873" lon="-0.70149">
        <ele>22.25</ele>
        <time>2014-03-16T08:56:43Z</time>
      </trkpt>
      <trkpt lat="47.61873" lon="-0.70149">
        <ele>22.25</ele>
        <time>2014-03-16T08:56:58Z</time>
      </trkpt>
      <trkpt lat="47.61873" lon="-0.70149">
        <ele>22.25</ele>
        <time>2014-03-16T08:57:10Z</time>
      </trkpt>
      <trkpt lat="47.61873" lon="-0.70149">
        <ele>22.25</ele>
        <time>2014-03-16T08:57:22Z</time>
      </trkpt>
      <trkpt lat="47.61873" lon="-0.70149">
        <ele>22.73</ele>
        <time>2014-03-16T08:57:35Z</time>
      </trkpt>
      <trkpt lat="47.61873" lon="-0.70149">
        <ele>22.73</ele>
        <time>2014-03-16T08:57:52Z</time>
      </trkpt>
      <trkpt lat="47.61872" lon="-0.70149">
        <ele>22.73</ele>
        <time>2014-03-16T08:58:06Z</time>
      </trkpt>
      <trkpt lat="47.61872" lon="-0.70149">
        <ele>22.25</ele>
        <time>2014-03-16T08:58:23Z</time>
      </trkpt>
      <trkpt lat="47.61872" lon="-0.70149">
        <ele>22.73</ele>
        <time>2014-03-16T08:58:41Z</time>
      </trkpt>
      <trkpt lat="47.61875" lon="-0.70157">
        <ele>22.73</ele>
        <time>2014-03-16T08:58:47Z</time>
      </trkpt>
      <trkpt lat="47.61876" lon="-0.70159">
        <ele>22.73</ele>
        <time>2014-03-16T08:58:48Z</time>
      </trkpt>
      <trkpt lat="47.61878" lon="-0.70161">
        <ele>23.21</ele>
        <time>2014-03-16T08:58:49Z</time>
      </trkpt>
      <trkpt lat="47.6188" lon="-0.70163">
        <ele>23.21</ele>
        <time>2014-03-16T08:58:50Z</time>
      </trkpt>
      <trkpt lat="47.61882" lon="-0.70165">
        <ele>22.25</ele>
        <time>2014-03-16T08:58:51Z</time>
      </trkpt>
      <trkpt lat="47.61885" lon="-0.70168">
        <ele>22.73</ele>
        <time>2014-03-16T08:58:52Z</time>
      </trkpt>
      <trkpt lat="47.61888" lon="-0.70171">
        <ele>22.73</ele>
        <time>2014-03-16T08:58:53Z</time>
      </trkpt>
      <trkpt lat="47.6189" lon="-0.70175">
        <ele>23.21</ele>
        <time>2014-03-16T08:58:54Z</time>
      </trkpt>
      <trkpt lat="47.61907" lon="-0.702">
        <ele>23.21</ele>
        <time>2014-03-16T08:59:00Z</time>
      </trkpt>
      <trkpt lat="47.61931" lon="-0.70225">
        <ele>24.17</ele>
        <time>2014-03-16T08:59:07Z</time>
      </trkpt>
      <trkpt lat="47.61941" lon="-0.70237">
        <ele>24.17</ele>
        <time>2014-03-16T08:59:13Z</time>
      </trkpt>
      <trkpt lat="47.61942" lon="-0.70241">
        <ele>24.17</ele>
        <time>2014-03-16T08:59:14Z</time>
      </trkpt>
      <trkpt lat="47.61943" lon="-0.70246">
        <ele>23.69</ele>
        <time>2014-03-16T08:59:15Z</time>
      </trkpt>
      <trkpt lat="47.61953" lon="-0.70287">
        <ele>22.73</ele>
        <time>2014-03-16T08:59:22Z</time>
      </trkpt>
      <trkpt lat="47.6196" lon="-0.703">
        <ele>23.21</ele>
        <time>2014-03-16T08:59:26Z</time>
      </trkpt>
      <trkpt lat="47.61963" lon="-0.703">
        <ele>22.73</ele>
        <time>2014-03-16T08:59:27Z</time>
      </trkpt>
      <trkpt lat="47.61979" lon="-0.70299">
        <ele>23.21</ele>
        <time>2014-03-16T08:59:32Z</time>
      </trkpt>
      <trkpt lat="47.62" lon="-0.70299">
        <ele>25.13</ele>
        <time>2014-03-16T08:59:38Z</time>
      </trkpt>
      <trkpt lat="47.62023" lon="-0.70292">
        <ele>26.09</ele>
        <time>2014-03-16T08:59:44Z</time>
      </trkpt>
      <trkpt lat="47.62037" lon="-0.70282">
        <ele>26.57</ele>
        <time>2014-03-16T08:59:49Z</time>
      </trkpt>
      <trkpt lat="47.62052" lon="-0.70263">
        <ele>27.05</ele>
        <time>2014-03-16T08:59:55Z</time>
      </trkpt>
      <trkpt lat="47.62068" lon="-0.70249">
        <ele>27.05</ele>
        <time>2014-03-16T09:00:00Z</time>
      </trkpt>
      <trkpt lat="47.62092" lon="-0.70241">
        <ele>27.05</ele>
        <time>2014-03-16T09:00:06Z</time>
      </trkpt>
      <trkpt lat="47.62103" lon="-0.70238">
        <ele>27.05</ele>
        <time>2014-03-16T09:00:09Z</time>
      </trkpt>
      <trkpt lat="47.62108" lon="-0.70238">
        <ele>27.05</ele>
        <time>2014-03-16T09:00:10Z</time>
      </trkpt>
      <trkpt lat="47.62121" lon="-0.70239">
        <ele>27.53</ele>
        <time>2014-03-16T09:00:13Z</time>
      </trkpt>
      <trkpt lat="47.62148" lon="-0.70242">
        <ele>28.5</ele>
        <time>2014-03-16T09:00:19Z</time>
      </trkpt>
      <trkpt lat="47.62152" lon="-0.70244">
        <ele>28.02</ele>
        <time>2014-03-16T09:00:20Z</time>
      </trkpt>
      <trkpt lat="47.62157" lon="-0.70246">
        <ele>28.02</ele>
        <time>2014-03-16T09:00:21Z</time>
      </trkpt>
      <trkpt lat="47.62174" lon="-0.70253">
        <ele>28.98</ele>
        <time>2014-03-16T09:00:25Z</time>
      </trkpt>
      <trkpt lat="47.62189" lon="-0.70258">
        <ele>28.5</ele>
        <time>2014-03-16T09:00:28Z</time>
      </trkpt>
      <trkpt lat="47.62204" lon="-0.70264">
        <ele>28.5</ele>
        <time>2014-03-16T09:00:31Z</time>
      </trkpt>
      <trkpt lat="47.62209" lon="-0.70266">
        <ele>28.02</ele>
        <time>2014-03-16T09:00:32Z</time>
      </trkpt>
      <trkpt lat="47.62214" lon="-0.70267">
        <ele>28.5</ele>
        <time>2014-03-16T09:00:33Z</time>
      </trkpt>
      <trkpt lat="47.62218" lon="-0.70269">
        <ele>28.02</ele>
        <time>2014-03-16T09:00:34Z</time>
      </trkpt>
      <trkpt lat="47.62223" lon="-0.7027">
        <ele>28.02</ele>
        <time>2014-03-16T09:00:35Z</time>
      </trkpt>
      <trkpt lat="47.62243" lon="-0.70274">
        <ele>28.02</ele>
        <time>2014-03-16T09:00:39Z</time>
      </trkpt>
      <trkpt lat="47.62252" lon="-0.70274">
        <ele>28.98</ele>
        <time>2014-03-16T09:00:41Z</time>
      </trkpt>
      <trkpt lat="47.62256" lon="-0.70273">
        <ele>29.46</ele>
        <time>2014-03-16T09:00:42Z</time>
      </trkpt>
      <trkpt lat="47.62258" lon="-0.70272">
        <ele>29.94</ele>
        <time>2014-03-16T09:00:43Z</time>
      </trkpt>
      <trkpt lat="47.6226" lon="-0.70272">
        <ele>29.94</ele>
        <time>2014-03-16T09:00:44Z</time>
      </trkpt>
      <trkpt lat="47.62263" lon="-0.70273">
        <ele>29.94</ele>
        <time>2014-03-16T09:00:45Z</time>
      </trkpt>
      <trkpt lat="47.62266" lon="-0.70275">
        <ele>30.42</ele>
        <time>2014-03-16T09:00:46Z</time>
      </trkpt>
      <trkpt lat="47.6227" lon="-0.70277">
        <ele>29.46</ele>
        <time>2014-03-16T09:00:47Z</time>
      </trkpt>
      <trkpt lat="47.62273" lon="-0.70278">
        <ele>30.42</ele>
        <time>2014-03-16T09:00:48Z</time>
      </trkpt>
      <trkpt lat="47.62276" lon="-0.70279">
        <ele>29.94</ele>
        <time>2014-03-16T09:00:49Z</time>
      </trkpt>
      <trkpt lat="47.62279" lon="-0.70281">
        <ele>30.42</ele>
        <time>2014-03-16T09:00:50Z</time>
      </trkpt>
      <trkpt lat="47.62282" lon="-0.70283">
        <ele>29.94</ele>
        <time>2014-03-16T09:00:51Z</time>
      </trkpt>
      <trkpt lat="47.62285" lon="-0.70286">
        <ele>29.94</ele>
        <time>2014-03-16T09:00:52Z</time>
      </trkpt>
      <trkpt lat="47.62289" lon="-0.70288">
        <ele>30.42</ele>
        <time>2014-03-16T09:00:53Z</time>
      </trkpt>
      <trkpt lat="47.62292" lon="-0.7029">
        <ele>29.94</ele>
        <time>2014-03-16T09:00:54Z</time>
      </trkpt>
      <trkpt lat="47.62296" lon="-0.70291">
        <ele>29.94</ele>
        <time>2014-03-16T09:00:55Z</time>
      </trkpt>
      <trkpt lat="47.62299" lon="-0.70294">
        <ele>29.94</ele>
        <time>2014-03-16T09:00:56Z</time>
      </trkpt>
      <trkpt lat="47.62322" lon="-0.70307">
        <ele>30.42</ele>
        <time>2014-03-16T09:01:02Z</time>
      </trkpt>
      <trkpt lat="47.6234" lon="-0.70322">
        <ele>30.9</ele>
        <time>2014-03-16T09:01:07Z</time>
      </trkpt>
      <trkpt lat="47.62344" lon="-0.70325">
        <ele>30.9</ele>
        <time>2014-03-16T09:01:08Z</time>
      </trkpt>
      <trkpt lat="47.62356" lon="-0.70334">
        <ele>31.86</ele>
        <time>2014-03-16T09:01:11Z</time>
      </trkpt>
      <trkpt lat="47.6238" lon="-0.70365">
        <ele>31.86</ele>
        <time>2014-03-16T09:01:19Z</time>
      </trkpt>
      <trkpt lat="47.62403" lon="-0.70379">
        <ele>32.34</ele>
        <time>2014-03-16T09:01:26Z</time>
      </trkpt>
      <trkpt lat="47.62416" lon="-0.70388">
        <ele>30.9</ele>
        <time>2014-03-16T09:01:31Z</time>
      </trkpt>
      <trkpt lat="47.62419" lon="-0.70387">
        <ele>29.94</ele>
        <time>2014-03-16T09:01:32Z</time>
      </trkpt>
      <trkpt lat="47.6242" lon="-0.70385">
        <ele>29.94</ele>
        <time>2014-03-16T09:01:33Z</time>
      </trkpt>
      <trkpt lat="47.62422" lon="-0.70385">
        <ele>29.94</ele>
        <time>2014-03-16T09:01:34Z</time>
      </trkpt>
      <trkpt lat="47.62424" lon="-0.70384">
        <ele>29.94</ele>
        <time>2014-03-16T09:01:35Z</time>
      </trkpt>
      <trkpt lat="47.62426" lon="-0.70385">
        <ele>29.46</ele>
        <time>2014-03-16T09:01:36Z</time>
      </trkpt>
      <trkpt lat="47.62428" lon="-0.70387">
        <ele>28.02</ele>
        <time>2014-03-16T09:01:37Z</time>
      </trkpt>
      <trkpt lat="47.6243" lon="-0.7039">
        <ele>27.05</ele>
        <time>2014-03-16T09:01:38Z</time>
      </trkpt>
      <trkpt lat="47.62432" lon="-0.70393">
        <ele>26.57</ele>
        <time>2014-03-16T09:01:39Z</time>
      </trkpt>
      <trkpt lat="47.62435" lon="-0.70394">
        <ele>25.61</ele>
        <time>2014-03-16T09:01:40Z</time>
      </trkpt>
      <trkpt lat="47.62437" lon="-0.70395">
        <ele>25.61</ele>
        <time>2014-03-16T09:01:41Z</time>
      </trkpt>
      <trkpt lat="47.62439" lon="-0.70395">
        <ele>25.13</ele>
        <time>2014-03-16T09:01:42Z</time>
      </trkpt>
      <trkpt lat="47.62441" lon="-0.70393">
        <ele>25.13</ele>
        <time>2014-03-16T09:01:43Z</time>
      </trkpt>
      <trkpt lat="47.62444" lon="-0.70391">
        <ele>24.65</ele>
        <time>2014-03-16T09:01:44Z</time>
      </trkpt>
      <trkpt lat="47.62446" lon="-0.70391">
        <ele>24.17</ele>
        <time>2014-03-16T09:01:45Z</time>
      </trkpt>
      <trkpt lat="47.62449" lon="-0.70391">
        <ele>23.69</ele>
        <time>2014-03-16T09:01:46Z</time>
      </trkpt>
      <trkpt lat="47.62451" lon="-0.70394">
        <ele>23.21</ele>
        <time>2014-03-16T09:01:47Z</time>
      </trkpt>
      <trkpt lat="47.62453" lon="-0.70396">
        <ele>23.21</ele>
        <time>2014-03-16T09:01:48Z</time>
      </trkpt>
      <trkpt lat="47.62453" lon="-0.70398">
        <ele>22.73</ele>
        <time>2014-03-16T09:01:49Z</time>
      </trkpt>
      <trkpt lat="47.62452" lon="-0.704">
        <ele>22.25</ele>
        <time>2014-03-16T09:01:50Z</time>
      </trkpt>
      <trkpt lat="47.6245" lon="-0.70402">
        <ele>22.25</ele>
        <time>2014-03-16T09:01:51Z</time>
      </trkpt>
      <trkpt lat="47.62442" lon="-0.70405">
        <ele>21.77</ele>
        <time>2014-03-16T09:01:55Z</time>
      </trkpt>
      <trkpt lat="47.62433" lon="-0.7041">
        <ele>21.77</ele>
        <time>2014-03-16T09:02:02Z</time>
      </trkpt>
      <trkpt lat="47.62435" lon="-0.7041">
        <ele>21.77</ele>
        <time>2014-03-16T09:02:06Z</time>
      </trkpt>
      <trkpt lat="47.62439" lon="-0.70407">
        <ele>22.25</ele>
        <time>2014-03-16T09:02:11Z</time>
      </trkpt>
      <trkpt lat="47.62442" lon="-0.70407">
        <ele>21.77</ele>
        <time>2014-03-16T09:02:12Z</time>
      </trkpt>
      <trkpt lat="47.62445" lon="-0.70407">
        <ele>22.25</ele>
        <time>2014-03-16T09:02:13Z</time>
      </trkpt>
      <trkpt lat="47.62449" lon="-0.70406">
        <ele>22.25</ele>
        <time>2014-03-16T09:02:14Z</time>
      </trkpt>
      <trkpt lat="47.62451" lon="-0.70403">
        <ele>22.73</ele>
        <time>2014-03-16T09:02:15Z</time>
      </trkpt>
      <trkpt lat="47.62452" lon="-0.70401">
        <ele>23.21</ele>
        <time>2014-03-16T09:02:16Z</time>
      </trkpt>
      <trkpt lat="47.62453" lon="-0.70399">
        <ele>23.21</ele>
        <time>2014-03-16T09:02:17Z</time>
      </trkpt>
      <trkpt lat="47.62454" lon="-0.70396">
        <ele>23.21</ele>
        <time>2014-03-16T09:02:18Z</time>
      </trkpt>
      <trkpt lat="47.62454" lon="-0.70392">
        <ele>22.73</ele>
        <time>2014-03-16T09:02:19Z</time>
      </trkpt>
      <trkpt lat="47.62454" lon="-0.70389">
        <ele>23.21</ele>
        <time>2014-03-16T09:02:20Z</time>
      </trkpt>
      <trkpt lat="47.62453" lon="-0.70386">
        <ele>23.21</ele>
        <time>2014-03-16T09:02:21Z</time>
      </trkpt>
      <trkpt lat="47.62452" lon="-0.70384">
        <ele>23.69</ele>
        <time>2014-03-16T09:02:22Z</time>
      </trkpt>
      <trkpt lat="47.62452" lon="-0.70382">
        <ele>24.17</ele>
        <time>2014-03-16T09:02:23Z</time>
      </trkpt>
      <trkpt lat="47.62451" lon="-0.70381">
        <ele>24.17</ele>
        <time>2014-03-16T09:02:24Z</time>
      </trkpt>
      <trkpt lat="47.62447" lon="-0.70375">
        <ele>26.09</ele>
        <time>2014-03-16T09:02:28Z</time>
      </trkpt>
      <trkpt lat="47.62446" lon="-0.70373">
        <ele>26.09</ele>
        <time>2014-03-16T09:02:33Z</time>
      </trkpt>
      <trkpt lat="47.62442" lon="-0.7037">
        <ele>27.53</ele>
        <time>2014-03-16T09:02:41Z</time>
      </trkpt>
      <trkpt lat="47.62444" lon="-0.70366">
        <ele>28.5</ele>
        <time>2014-03-16T09:02:48Z</time>
      </trkpt>
      <trkpt lat="47.62442" lon="-0.70357">
        <ele>30.9</ele>
        <time>2014-03-16T09:02:57Z</time>
      </trkpt>
      <trkpt lat="47.62442" lon="-0.70353">
        <ele>31.38</ele>
        <time>2014-03-16T09:03:04Z</time>
      </trkpt>
      <trkpt lat="47.62442" lon="-0.70351">
        <ele>31.38</ele>
        <time>2014-03-16T09:03:14Z</time>
      </trkpt>
      <trkpt lat="47.62441" lon="-0.7035">
        <ele>31.38</ele>
        <time>2014-03-16T09:03:15Z</time>
      </trkpt>
      <trkpt lat="47.62441" lon="-0.70348">
        <ele>31.38</ele>
        <time>2014-03-16T09:03:16Z</time>
      </trkpt>
      <trkpt lat="47.62441" lon="-0.70346">
        <ele>31.38</ele>
        <time>2014-03-16T09:03:17Z</time>
      </trkpt>
      <trkpt lat="47.62442" lon="-0.70344">
        <ele>31.86</ele>
        <time>2014-03-16T09:03:18Z</time>
      </trkpt>
      <trkpt lat="47.62443" lon="-0.70342">
        <ele>31.86</ele>
        <time>2014-03-16T09:03:19Z</time>
      </trkpt>
      <trkpt lat="47.62443" lon="-0.70341">
        <ele>31.86</ele>
        <time>2014-03-16T09:03:20Z</time>
      </trkpt>
      <trkpt lat="47.62444" lon="-0.7034">
        <ele>31.86</ele>
        <time>2014-03-16T09:03:21Z</time>
      </trkpt>
      <trkpt lat="47.62445" lon="-0.70338">
        <ele>31.38</ele>
        <time>2014-03-16T09:03:22Z</time>
      </trkpt>
      <trkpt lat="47.62447" lon="-0.70337">
        <ele>31.86</ele>
        <time>2014-03-16T09:03:23Z</time>
      </trkpt>
      <trkpt lat="47.62448" lon="-0.70335">
        <ele>31.86</ele>
        <time>2014-03-16T09:03:24Z</time>
      </trkpt>
      <trkpt lat="47.62459" lon="-0.70314">
        <ele>32.34</ele>
        <time>2014-03-16T09:03:32Z</time>
      </trkpt>
      <trkpt lat="47.6247" lon="-0.70295">
        <ele>31.86</ele>
        <time>2014-03-16T09:03:39Z</time>
      </trkpt>
      <trkpt lat="47.62483" lon="-0.70275">
        <ele>32.34</ele>
        <time>2014-03-16T09:03:47Z</time>
      </trkpt>
      <trkpt lat="47.62498" lon="-0.70268">
        <ele>33.3</ele>
        <time>2014-03-16T09:03:54Z</time>
      </trkpt>
      <trkpt lat="47.62519" lon="-0.70266">
        <ele>33.3</ele>
        <time>2014-03-16T09:04:02Z</time>
      </trkpt>
      <trkpt lat="47.62539" lon="-0.70253">
        <ele>33.78</ele>
        <time>2014-03-16T09:04:09Z</time>
      </trkpt>
      <trkpt lat="47.62554" lon="-0.70246">
        <ele>34.74</ele>
        <time>2014-03-16T09:04:14Z</time>
      </trkpt>
      <trkpt lat="47.62562" lon="-0.70238">
        <ele>35.23</ele>
        <time>2014-03-16T09:04:18Z</time>
      </trkpt>
      <trkpt lat="47.62571" lon="-0.70231">
        <ele>35.71</ele>
        <time>2014-03-16T09:04:22Z</time>
      </trkpt>
      <trkpt lat="47.6259" lon="-0.70228">
        <ele>35.71</ele>
        <time>2014-03-16T09:04:27Z</time>
      </trkpt>
      <trkpt lat="47.6261" lon="-0.70228">
        <ele>35.71</ele>
        <time>2014-03-16T09:04:32Z</time>
      </trkpt>
      <trkpt lat="47.62634" lon="-0.70229">
        <ele>36.19</ele>
        <time>2014-03-16T09:04:38Z</time>
      </trkpt>
      <trkpt lat="47.62656" lon="-0.7023">
        <ele>36.67</ele>
        <time>2014-03-16T09:04:44Z</time>
      </trkpt>
      <trkpt lat="47.62665" lon="-0.70228">
        <ele>36.67</ele>
        <time>2014-03-16T09:04:47Z</time>
      </trkpt>
      <trkpt lat="47.62667" lon="-0.70225">
        <ele>37.15</ele>
        <time>2014-03-16T09:04:48Z</time>
      </trkpt>
      <trkpt lat="47.6268" lon="-0.7021">
        <ele>38.11</ele>
        <time>2014-03-16T09:04:54Z</time>
      </trkpt>
      <trkpt lat="47.62695" lon="-0.70194">
        <ele>39.07</ele>
        <time>2014-03-16T09:05:00Z</time>
      </trkpt>
      <trkpt lat="47.62698" lon="-0.70189">
        <ele>39.55</ele>
        <time>2014-03-16T09:05:02Z</time>
      </trkpt>
      <trkpt lat="47.62713" lon="-0.70187">
        <ele>39.07</ele>
        <time>2014-03-16T09:05:08Z</time>
      </trkpt>
      <trkpt lat="47.62722" lon="-0.70202">
        <ele>39.55</ele>
        <time>2014-03-16T09:05:12Z</time>
      </trkpt>
      <trkpt lat="47.62735" lon="-0.70217">
        <ele>38.11</ele>
        <time>2014-03-16T09:05:16Z</time>
      </trkpt>
      <trkpt lat="47.62745" lon="-0.70228">
        <ele>37.63</ele>
        <time>2014-03-16T09:05:18Z</time>
      </trkpt>
      <trkpt lat="47.62753" lon="-0.70237">
        <ele>37.15</ele>
        <time>2014-03-16T09:05:20Z</time>
      </trkpt>
      <trkpt lat="47.6276" lon="-0.70249">
        <ele>36.19</ele>
        <time>2014-03-16T09:05:22Z</time>
      </trkpt>
      <trkpt lat="47.62775" lon="-0.70269">
        <ele>34.74</ele>
        <time>2014-03-16T09:05:26Z</time>
      </trkpt>
      <trkpt lat="47.62783" lon="-0.70274">
        <ele>33.78</ele>
        <time>2014-03-16T09:05:28Z</time>
      </trkpt>
      <trkpt lat="47.62798" lon="-0.70263">
        <ele>34.26</ele>
        <time>2014-03-16T09:05:32Z</time>
      </trkpt>
      <trkpt lat="47.62817" lon="-0.70239">
        <ele>35.23</ele>
        <time>2014-03-16T09:05:39Z</time>
      </trkpt>
      <trkpt lat="47.62833" lon="-0.7022">
        <ele>35.23</ele>
        <time>2014-03-16T09:05:45Z</time>
      </trkpt>
      <trkpt lat="47.62842" lon="-0.70202">
        <ele>36.19</ele>
        <time>2014-03-16T09:05:51Z</time>
      </trkpt>
      <trkpt lat="47.62849" lon="-0.70186">
        <ele>37.15</ele>
        <time>2014-03-16T09:05:56Z</time>
      </trkpt>
      <trkpt lat="47.62855" lon="-0.70174">
        <ele>36.67</ele>
        <time>2014-03-16T09:06:00Z</time>
      </trkpt>
      <trkpt lat="47.6286" lon="-0.70159">
        <ele>37.63</ele>
        <time>2014-03-16T09:06:07Z</time>
      </trkpt>
      <trkpt lat="47.62861" lon="-0.70157">
        <ele>37.15</ele>
        <time>2014-03-16T09:06:09Z</time>
      </trkpt>
      <trkpt lat="47.62861" lon="-0.70164">
        <ele>37.15</ele>
        <time>2014-03-16T09:06:14Z</time>
      </trkpt>
      <trkpt lat="47.62853" lon="-0.70187">
        <ele>36.67</ele>
        <time>2014-03-16T09:06:20Z</time>
      </trkpt>
      <trkpt lat="47.62845" lon="-0.70208">
        <ele>36.19</ele>
        <time>2014-03-16T09:06:25Z</time>
      </trkpt>
      <trkpt lat="47.62852" lon="-0.70218">
        <ele>34.74</ele>
        <time>2014-03-16T09:06:28Z</time>
      </trkpt>
      <trkpt lat="47.6287" lon="-0.70232">
        <ele>34.26</ele>
        <time>2014-03-16T09:06:32Z</time>
      </trkpt>
      <trkpt lat="47.62885" lon="-0.70253">
        <ele>32.82</ele>
        <time>2014-03-16T09:06:36Z</time>
      </trkpt>
      <trkpt lat="47.62892" lon="-0.70259">
        <ele>32.34</ele>
        <time>2014-03-16T09:06:38Z</time>
      </trkpt>
      <trkpt lat="47.62907" lon="-0.70261">
        <ele>32.34</ele>
        <time>2014-03-16T09:06:41Z</time>
      </trkpt>
      <trkpt lat="47.62928" lon="-0.70251">
        <ele>33.3</ele>
        <time>2014-03-16T09:06:47Z</time>
      </trkpt>
      <trkpt lat="47.62947" lon="-0.70249">
        <ele>33.3</ele>
        <time>2014-03-16T09:06:53Z</time>
      </trkpt>
      <trkpt lat="47.62958" lon="-0.70249">
        <ele>33.3</ele>
        <time>2014-03-16T09:06:56Z</time>
      </trkpt>
      <trkpt lat="47.62978" lon="-0.70246">
        <ele>33.78</ele>
        <time>2014-03-16T09:07:02Z</time>
      </trkpt>
      <trkpt lat="47.63" lon="-0.70237">
        <ele>33.78</ele>
        <time>2014-03-16T09:07:08Z</time>
      </trkpt>
      <trkpt lat="47.63017" lon="-0.70232">
        <ele>33.78</ele>
        <time>2014-03-16T09:07:13Z</time>
      </trkpt>
      <trkpt lat="47.63038" lon="-0.70222">
        <ele>34.26</ele>
        <time>2014-03-16T09:07:20Z</time>
      </trkpt>
      <trkpt lat="47.63067" lon="-0.70211">
        <ele>35.23</ele>
        <time>2014-03-16T09:07:28Z</time>
      </trkpt>
      <trkpt lat="47.63096" lon="-0.70203">
        <ele>35.71</ele>
        <time>2014-03-16T09:07:35Z</time>
      </trkpt>
      <trkpt lat="47.63115" lon="-0.70197">
        <ele>36.67</ele>
        <time>2014-03-16T09:07:41Z</time>
      </trkpt>
      <trkpt lat="47.63127" lon="-0.70181">
        <ele>36.19</ele>
        <time>2014-03-16T09:07:47Z</time>
      </trkpt>
      <trkpt lat="47.63131" lon="-0.70167">
        <ele>37.63</ele>
        <time>2014-03-16T09:07:50Z</time>
      </trkpt>
      <trkpt lat="47.63135" lon="-0.70151">
        <ele>37.63</ele>
        <time>2014-03-16T09:07:54Z</time>
      </trkpt>
      <trkpt lat="47.63141" lon="-0.70122">
        <ele>39.07</ele>
        <time>2014-03-16T09:08:00Z</time>
      </trkpt>
      <trkpt lat="47.63144" lon="-0.70103">
        <ele>39.55</ele>
        <time>2014-03-16T09:08:04Z</time>
      </trkpt>
      <trkpt lat="47.63146" lon="-0.70076">
        <ele>40.51</ele>
        <time>2014-03-16T09:08:10Z</time>
      </trkpt>
      <trkpt lat="47.63149" lon="-0.70069">
        <ele>41.47</ele>
        <time>2014-03-16T09:08:13Z</time>
      </trkpt>
      <trkpt lat="47.63147" lon="-0.70042">
        <ele>42.44</ele>
        <time>2014-03-16T09:08:20Z</time>
      </trkpt>
      <trkpt lat="47.63148" lon="-0.70007">
        <ele>42.92</ele>
        <time>2014-03-16T09:08:27Z</time>
      </trkpt>
      <trkpt lat="47.63155" lon="-0.69972">
        <ele>43.88</ele>
        <time>2014-03-16T09:08:34Z</time>
      </trkpt>
      <trkpt lat="47.63158" lon="-0.69941">
        <ele>44.36</ele>
        <time>2014-03-16T09:08:41Z</time>
      </trkpt>
      <trkpt lat="47.63159" lon="-0.69922">
        <ele>45.32</ele>
        <time>2014-03-16T09:08:45Z</time>
      </trkpt>
      <trkpt lat="47.63162" lon="-0.69896">
        <ele>45.32</ele>
        <time>2014-03-16T09:08:51Z</time>
      </trkpt>
      <trkpt lat="47.63168" lon="-0.69866">
        <ele>45.8</ele>
        <time>2014-03-16T09:08:57Z</time>
      </trkpt>
      <trkpt lat="47.63174" lon="-0.69835">
        <ele>46.28</ele>
        <time>2014-03-16T09:09:03Z</time>
      </trkpt>
      <trkpt lat="47.63177" lon="-0.69827">
        <ele>45.8</ele>
        <time>2014-03-16T09:09:05Z</time>
      </trkpt>
      <trkpt lat="47.63182" lon="-0.69804">
        <ele>45.32</ele>
        <time>2014-03-16T09:09:09Z</time>
      </trkpt>
      <trkpt lat="47.63192" lon="-0.69761">
        <ele>45.32</ele>
        <time>2014-03-16T09:09:16Z</time>
      </trkpt>
      <trkpt lat="47.63194" lon="-0.69754">
        <ele>45.32</ele>
        <time>2014-03-16T09:09:17Z</time>
      </trkpt>
      <trkpt lat="47.63211" lon="-0.69686">
        <ele>42.92</ele>
        <time>2014-03-16T09:09:25Z</time>
      </trkpt>
      <trkpt lat="47.63216" lon="-0.69659">
        <ele>41.47</ele>
        <time>2014-03-16T09:09:28Z</time>
      </trkpt>
      <trkpt lat="47.6323" lon="-0.69602">
        <ele>39.55</ele>
        <time>2014-03-16T09:09:34Z</time>
      </trkpt>
      <trkpt lat="47.63232" lon="-0.69584">
        <ele>39.55</ele>
        <time>2014-03-16T09:09:36Z</time>
      </trkpt>
      <trkpt lat="47.63237" lon="-0.69558">
        <ele>36.67</ele>
        <time>2014-03-16T09:09:39Z</time>
      </trkpt>
      <trkpt lat="47.63236" lon="-0.69543">
        <ele>35.71</ele>
        <time>2014-03-16T09:09:41Z</time>
      </trkpt>
      <trkpt lat="47.63219" lon="-0.69534">
        <ele>35.71</ele>
        <time>2014-03-16T09:09:45Z</time>
      </trkpt>
      <trkpt lat="47.63201" lon="-0.69542">
        <ele>36.67</ele>
        <time>2014-03-16T09:09:49Z</time>
      </trkpt>
      <trkpt lat="47.63186" lon="-0.69556">
        <ele>38.59</ele>
        <time>2014-03-16T09:09:54Z</time>
      </trkpt>
      <trkpt lat="47.63168" lon="-0.69571">
        <ele>40.99</ele>
        <time>2014-03-16T09:10:00Z</time>
      </trkpt>
      <trkpt lat="47.63166" lon="-0.69572">
        <ele>41.47</ele>
        <time>2014-03-16T09:10:01Z</time>
      </trkpt>
      <trkpt lat="47.63149" lon="-0.6958">
        <ele>42.92</ele>
        <time>2014-03-16T09:10:09Z</time>
      </trkpt>
      <trkpt lat="47.63138" lon="-0.69577">
        <ele>42.92</ele>
        <time>2014-03-16T09:10:13Z</time>
      </trkpt>
      <trkpt lat="47.63132" lon="-0.69584">
        <ele>42.92</ele>
        <time>2014-03-16T09:10:17Z</time>
      </trkpt>
      <trkpt lat="47.63133" lon="-0.69595">
        <ele>43.4</ele>
        <time>2014-03-16T09:10:23Z</time>
      </trkpt>
      <trkpt lat="47.63129" lon="-0.69596">
        <ele>43.4</ele>
        <time>2014-03-16T09:10:26Z</time>
      </trkpt>
      <trkpt lat="47.63129" lon="-0.69586">
        <ele>43.4</ele>
        <time>2014-03-16T09:10:31Z</time>
      </trkpt>
      <trkpt lat="47.63124" lon="-0.69569">
        <ele>42.44</ele>
        <time>2014-03-16T09:10:38Z</time>
      </trkpt>
      <trkpt lat="47.63122" lon="-0.69563">
        <ele>41.95</ele>
        <time>2014-03-16T09:10:40Z</time>
      </trkpt>
      <trkpt lat="47.63113" lon="-0.69537">
        <ele>41.47</ele>
        <time>2014-03-16T09:10:47Z</time>
      </trkpt>
      <trkpt lat="47.63107" lon="-0.69521">
        <ele>40.51</ele>
        <time>2014-03-16T09:10:52Z</time>
      </trkpt>
      <trkpt lat="47.631" lon="-0.69495">
        <ele>39.07</ele>
        <time>2014-03-16T09:10:58Z</time>
      </trkpt>
      <trkpt lat="47.6309" lon="-0.6947">
        <ele>37.63</ele>
        <time>2014-03-16T09:11:03Z</time>
      </trkpt>
      <trkpt lat="47.63087" lon="-0.69457">
        <ele>35.23</ele>
        <time>2014-03-16T09:11:06Z</time>
      </trkpt>
      <trkpt lat="47.6309" lon="-0.69449">
        <ele>33.3</ele>
        <time>2014-03-16T09:11:09Z</time>
      </trkpt>
      <trkpt lat="47.63097" lon="-0.69445">
        <ele>31.38</ele>
        <time>2014-03-16T09:11:11Z</time>
      </trkpt>
      <trkpt lat="47.63115" lon="-0.69435">
        <ele>27.53</ele>
        <time>2014-03-16T09:11:15Z</time>
      </trkpt>
      <trkpt lat="47.63123" lon="-0.69432">
        <ele>25.61</ele>
        <time>2014-03-16T09:11:18Z</time>
      </trkpt>
      <trkpt lat="47.63125" lon="-0.69432">
        <ele>25.13</ele>
        <time>2014-03-16T09:11:19Z</time>
      </trkpt>
      <trkpt lat="47.63126" lon="-0.69422">
        <ele>22.25</ele>
        <time>2014-03-16T09:11:25Z</time>
      </trkpt>
      <trkpt lat="47.6312" lon="-0.6942">
        <ele>22.25</ele>
        <time>2014-03-16T09:11:29Z</time>
      </trkpt>
      <trkpt lat="47.63102" lon="-0.69417">
        <ele>22.25</ele>
        <time>2014-03-16T09:11:34Z</time>
      </trkpt>
      <trkpt lat="47.6308" lon="-0.69415">
        <ele>21.77</ele>
        <time>2014-03-16T09:11:40Z</time>
      </trkpt>
      <trkpt lat="47.63072" lon="-0.69416">
        <ele>21.77</ele>
        <time>2014-03-16T09:11:43Z</time>
      </trkpt>
      <trkpt lat="47.63054" lon="-0.69427">
        <ele>21.77</ele>
        <time>2014-03-16T09:11:49Z</time>
      </trkpt>
      <trkpt lat="47.63026" lon="-0.69437">
        <ele>22.25</ele>
        <time>2014-03-16T09:11:56Z</time>
      </trkpt>
      <trkpt lat="47.63005" lon="-0.69447">
        <ele>22.25</ele>
        <time>2014-03-16T09:12:01Z</time>
      </trkpt>
      <trkpt lat="47.62979" lon="-0.69461">
        <ele>21.77</ele>
        <time>2014-03-16T09:12:07Z</time>
      </trkpt>
      <trkpt lat="47.62962" lon="-0.69468">
        <ele>22.25</ele>
        <time>2014-03-16T09:12:12Z</time>
      </trkpt>
      <trkpt lat="47.6295" lon="-0.69473">
        <ele>21.29</ele>
        <time>2014-03-16T09:12:18Z</time>
      </trkpt>
      <trkpt lat="47.62949" lon="-0.69474">
        <ele>21.29</ele>
        <time>2014-03-16T09:12:28Z</time>
      </trkpt>
      <trkpt lat="47.62949" lon="-0.69475">
        <ele>21.77</ele>
        <time>2014-03-16T09:12:36Z</time>
      </trkpt>
      <trkpt lat="47.62953" lon="-0.69473">
        <ele>21.77</ele>
        <time>2014-03-16T09:12:40Z</time>
      </trkpt>
      <trkpt lat="47.62955" lon="-0.69448">
        <ele>21.29</ele>
        <time>2014-03-16T09:12:45Z</time>
      </trkpt>
      <trkpt lat="47.62958" lon="-0.6943">
        <ele>20.81</ele>
        <time>2014-03-16T09:12:50Z</time>
      </trkpt>
      <trkpt lat="47.62964" lon="-0.69426">
        <ele>20.81</ele>
        <time>2014-03-16T09:12:52Z</time>
      </trkpt>
      <trkpt lat="47.62986" lon="-0.69414">
        <ele>21.77</ele>
        <time>2014-03-16T09:12:58Z</time>
      </trkpt>
      <trkpt lat="47.62991" lon="-0.69412">
        <ele>21.77</ele>
        <time>2014-03-16T09:12:59Z</time>
      </trkpt>
      <trkpt lat="47.6301" lon="-0.69402">
        <ele>21.29</ele>
        <time>2014-03-16T09:13:03Z</time>
      </trkpt>
      <trkpt lat="47.63028" lon="-0.69391">
        <ele>21.29</ele>
        <time>2014-03-16T09:13:08Z</time>
      </trkpt>
      <trkpt lat="47.63046" lon="-0.69388">
        <ele>21.29</ele>
        <time>2014-03-16T09:13:12Z</time>
      </trkpt>
      <trkpt lat="47.63069" lon="-0.69388">
        <ele>21.77</ele>
        <time>2014-03-16T09:13:17Z</time>
      </trkpt>
      <trkpt lat="47.63082" lon="-0.69388">
        <ele>21.77</ele>
        <time>2014-03-16T09:13:20Z</time>
      </trkpt>
      <trkpt lat="47.63106" lon="-0.6939">
        <ele>21.77</ele>
        <time>2014-03-16T09:13:25Z</time>
      </trkpt>
      <trkpt lat="47.63126" lon="-0.69373">
        <ele>21.29</ele>
        <time>2014-03-16T09:13:30Z</time>
      </trkpt>
      <trkpt lat="47.63152" lon="-0.69338">
        <ele>21.29</ele>
        <time>2014-03-16T09:13:37Z</time>
      </trkpt>
      <trkpt lat="47.63159" lon="-0.69299">
        <ele>21.29</ele>
        <time>2014-03-16T09:13:43Z</time>
      </trkpt>
      <trkpt lat="47.63158" lon="-0.69285">
        <ele>21.29</ele>
        <time>2014-03-16T09:13:45Z</time>
      </trkpt>
      <trkpt lat="47.63156" lon="-0.69257">
        <ele>21.29</ele>
        <time>2014-03-16T09:13:49Z</time>
      </trkpt>
      <trkpt lat="47.63153" lon="-0.69202">
        <ele>21.77</ele>
        <time>2014-03-16T09:13:57Z</time>
      </trkpt>
      <trkpt lat="47.63154" lon="-0.69172">
        <ele>21.77</ele>
        <time>2014-03-16T09:14:01Z</time>
      </trkpt>
      <trkpt lat="47.63166" lon="-0.69157">
        <ele>21.29</ele>
        <time>2014-03-16T09:14:05Z</time>
      </trkpt>
      <trkpt lat="47.6317" lon="-0.69157">
        <ele>20.81</ele>
        <time>2014-03-16T09:14:06Z</time>
      </trkpt>
      <trkpt lat="47.63182" lon="-0.69158">
        <ele>21.77</ele>
        <time>2014-03-16T09:14:09Z</time>
      </trkpt>
      <trkpt lat="47.63199" lon="-0.69151">
        <ele>21.77</ele>
        <time>2014-03-16T09:14:13Z</time>
      </trkpt>
      <trkpt lat="47.63217" lon="-0.69145">
        <ele>21.77</ele>
        <time>2014-03-16T09:14:17Z</time>
      </trkpt>
      <trkpt lat="47.63261" lon="-0.69143">
        <ele>21.77</ele>
        <time>2014-03-16T09:14:26Z</time>
      </trkpt>
      <trkpt lat="47.63273" lon="-0.69137">
        <ele>21.29</ele>
        <time>2014-03-16T09:14:29Z</time>
      </trkpt>
      <trkpt lat="47.63282" lon="-0.69134">
        <ele>21.77</ele>
        <time>2014-03-16T09:14:31Z</time>
      </trkpt>
      <trkpt lat="47.63295" lon="-0.69128">
        <ele>21.77</ele>
        <time>2014-03-16T09:14:34Z</time>
      </trkpt>
      <trkpt lat="47.63315" lon="-0.69113">
        <ele>21.29</ele>
        <time>2014-03-16T09:14:39Z</time>
      </trkpt>
      <trkpt lat="47.63324" lon="-0.69109">
        <ele>21.29</ele>
        <time>2014-03-16T09:14:44Z</time>
      </trkpt>
      <trkpt lat="47.63324" lon="-0.69109">
        <ele>21.29</ele>
        <time>2014-03-16T09:14:52Z</time>
      </trkpt>
      <trkpt lat="47.63324" lon="-0.69109">
        <ele>21.77</ele>
        <time>2014-03-16T09:15:02Z</time>
      </trkpt>
      <trkpt lat="47.63327" lon="-0.69111">
        <ele>21.29</ele>
        <time>2014-03-16T09:15:16Z</time>
      </trkpt>
      <trkpt lat="47.6333" lon="-0.69111">
        <ele>24.17</ele>
        <time>2014-03-16T09:15:25Z</time>
      </trkpt>
      <trkpt lat="47.6333" lon="-0.69111">
        <ele>25.61</ele>
        <time>2014-03-16T09:15:34Z</time>
      </trkpt>
      <trkpt lat="47.63333" lon="-0.69112">
        <ele>26.57</ele>
        <time>2014-03-16T09:15:40Z</time>
      </trkpt>
      <trkpt lat="47.63334" lon="-0.69111">
        <ele>26.09</ele>
        <time>2014-03-16T09:15:46Z</time>
      </trkpt>
      <trkpt lat="47.63334" lon="-0.69111">
        <ele>25.61</ele>
        <time>2014-03-16T09:15:55Z</time>
      </trkpt>
      <trkpt lat="47.63334" lon="-0.6911">
        <ele>26.09</ele>
        <time>2014-03-16T09:16:03Z</time>
      </trkpt>
      <trkpt lat="47.63334" lon="-0.6911">
        <ele>25.61</ele>
        <time>2014-03-16T09:16:13Z</time>
      </trkpt>
      <trkpt lat="47.63334" lon="-0.69109">
        <ele>26.09</ele>
        <time>2014-03-16T09:16:23Z</time>
      </trkpt>
      <trkpt lat="47.63334" lon="-0.69109">
        <ele>26.09</ele>
        <time>2014-03-16T09:16:26Z</time>
      </trkpt>
      <trkpt lat="47.6334" lon="-0.69096">
        <ele>26.09</ele>
        <time>2014-03-16T09:16:31Z</time>
      </trkpt>
      <trkpt lat="47.63349" lon="-0.69055">
        <ele>26.09</ele>
        <time>2014-03-16T09:16:39Z</time>
      </trkpt>
      <trkpt lat="47.63361" lon="-0.68992">
        <ele>25.61</ele>
        <time>2014-03-16T09:16:48Z</time>
      </trkpt>
      <trkpt lat="47.63371" lon="-0.6894">
        <ele>25.61</ele>
        <time>2014-03-16T09:16:55Z</time>
      </trkpt>
      <trkpt lat="47.63383" lon="-0.6888">
        <ele>25.61</ele>
        <time>2014-03-16T09:17:03Z</time>
      </trkpt>
      <trkpt lat="47.63396" lon="-0.68813">
        <ele>25.61</ele>
        <time>2014-03-16T09:17:12Z</time>
      </trkpt>
      <trkpt lat="47.63413" lon="-0.68726">
        <ele>25.61</ele>
        <time>2014-03-16T09:17:23Z</time>
      </trkpt>
      <trkpt lat="47.63428" lon="-0.68644">
        <ele>26.09</ele>
        <time>2014-03-16T09:17:34Z</time>
      </trkpt>
      <trkpt lat="47.63439" lon="-0.68591">
        <ele>26.57</ele>
        <time>2014-03-16T09:17:42Z</time>
      </trkpt>
      <trkpt lat="47.63433" lon="-0.68562">
        <ele>27.05</ele>
        <time>2014-03-16T09:17:47Z</time>
      </trkpt>
      <trkpt lat="47.63416" lon="-0.68559">
        <ele>27.05</ele>
        <time>2014-03-16T09:17:51Z</time>
      </trkpt>
      <trkpt lat="47.63405" lon="-0.68572">
        <ele>27.05</ele>
        <time>2014-03-16T09:17:54Z</time>
      </trkpt>
      <trkpt lat="47.63399" lon="-0.68584">
        <ele>27.05</ele>
        <time>2014-03-16T09:17:56Z</time>
      </trkpt>
      <trkpt lat="47.63385" lon="-0.68608">
        <ele>27.53</ele>
        <time>2014-03-16T09:18:00Z</time>
      </trkpt>
      <trkpt lat="47.63341" lon="-0.68659">
        <ele>26.09</ele>
        <time>2014-03-16T09:18:10Z</time>
      </trkpt>
      <trkpt lat="47.633" lon="-0.68703">
        <ele>25.61</ele>
        <time>2014-03-16T09:18:19Z</time>
      </trkpt>
      <trkpt lat="47.63267" lon="-0.68712">
        <ele>25.13</ele>
        <time>2014-03-16T09:18:25Z</time>
      </trkpt>
      <trkpt lat="47.63262" lon="-0.68711">
        <ele>25.13</ele>
        <time>2014-03-16T09:18:26Z</time>
      </trkpt>
      <trkpt lat="47.63233" lon="-0.68698">
        <ele>25.13</ele>
        <time>2014-03-16T09:18:32Z</time>
      </trkpt>
      <trkpt lat="47.63234" lon="-0.68678">
        <ele>25.61</ele>
        <time>2014-03-16T09:18:37Z</time>
      </trkpt>
      <trkpt lat="47.63236" lon="-0.68673">
        <ele>25.13</ele>
        <time>2014-03-16T09:18:38Z</time>
      </trkpt>
      <trkpt lat="47.63248" lon="-0.68615">
        <ele>26.09</ele>
        <time>2014-03-16T09:18:47Z</time>
      </trkpt>
      <trkpt lat="47.6325" lon="-0.68596">
        <ele>26.57</ele>
        <time>2014-03-16T09:18:50Z</time>
      </trkpt>
      <trkpt lat="47.63259" lon="-0.68552">
        <ele>27.05</ele>
        <time>2014-03-16T09:18:58Z</time>
      </trkpt>
      <trkpt lat="47.63264" lon="-0.68534">
        <ele>27.53</ele>
        <time>2014-03-16T09:19:01Z</time>
      </trkpt>
      <trkpt lat="47.63271" lon="-0.68497">
        <ele>27.53</ele>
        <time>2014-03-16T09:19:07Z</time>
      </trkpt>
      <trkpt lat="47.63279" lon="-0.68452">
        <ele>27.05</ele>
        <time>2014-03-16T09:19:15Z</time>
      </trkpt>
      <trkpt lat="47.63283" lon="-0.68423">
        <ele>27.53</ele>
        <time>2014-03-16T09:19:21Z</time>
      </trkpt>
      <trkpt lat="47.63288" lon="-0.68381">
        <ele>27.53</ele>
        <time>2014-03-16T09:19:29Z</time>
      </trkpt>
      <trkpt lat="47.63292" lon="-0.68336">
        <ele>28.02</ele>
        <time>2014-03-16T09:19:37Z</time>
      </trkpt>
      <trkpt lat="47.6329" lon="-0.68316">
        <ele>28.5</ele>
        <time>2014-03-16T09:19:41Z</time>
      </trkpt>
      <trkpt lat="47.63278" lon="-0.68281">
        <ele>28.02</ele>
        <time>2014-03-16T09:19:48Z</time>
      </trkpt>
      <trkpt lat="47.63273" lon="-0.68234">
        <ele>28.5</ele>
        <time>2014-03-16T09:19:56Z</time>
      </trkpt>
      <trkpt lat="47.63272" lon="-0.682">
        <ele>28.5</ele>
        <time>2014-03-16T09:20:02Z</time>
      </trkpt>
      <trkpt lat="47.63264" lon="-0.68168">
        <ele>28.5</ele>
        <time>2014-03-16T09:20:08Z</time>
      </trkpt>
      <trkpt lat="47.63248" lon="-0.68144">
        <ele>28.98</ele>
        <time>2014-03-16T09:20:15Z</time>
      </trkpt>
      <trkpt lat="47.63232" lon="-0.68131">
        <ele>28.98</ele>
        <time>2014-03-16T09:20:20Z</time>
      </trkpt>
      <trkpt lat="47.6323" lon="-0.68111">
        <ele>28.5</ele>
        <time>2014-03-16T09:20:24Z</time>
      </trkpt>
      <trkpt lat="47.63246" lon="-0.68074">
        <ele>28.02</ele>
        <time>2014-03-16T09:20:32Z</time>
      </trkpt>
      <trkpt lat="47.63263" lon="-0.68039">
        <ele>28.98</ele>
        <time>2014-03-16T09:20:39Z</time>
      </trkpt>
      <trkpt lat="47.63275" lon="-0.68011">
        <ele>28.98</ele>
        <time>2014-03-16T09:20:45Z</time>
      </trkpt>
      <trkpt lat="47.63283" lon="-0.67997">
        <ele>28.5</ele>
        <time>2014-03-16T09:20:49Z</time>
      </trkpt>
      <trkpt lat="47.63285" lon="-0.67992">
        <ele>28.98</ele>
        <time>2014-03-16T09:20:50Z</time>
      </trkpt>
      <trkpt lat="47.63305" lon="-0.67979">
        <ele>28.98</ele>
        <time>2014-03-16T09:20:55Z</time>
      </trkpt>
      <trkpt lat="47.6333" lon="-0.67965">
        <ele>28.02</ele>
        <time>2014-03-16T09:21:01Z</time>
      </trkpt>
      <trkpt lat="47.63361" lon="-0.67962">
        <ele>28.02</ele>
        <time>2014-03-16T09:21:08Z</time>
      </trkpt>
      <trkpt lat="47.63366" lon="-0.67948">
        <ele>27.53</ele>
        <time>2014-03-16T09:21:12Z</time>
      </trkpt>
      <trkpt lat="47.63363" lon="-0.67944">
        <ele>28.02</ele>
        <time>2014-03-16T09:21:13Z</time>
      </trkpt>
      <trkpt lat="47.6335" lon="-0.67915">
        <ele>28.02</ele>
        <time>2014-03-16T09:21:19Z</time>
      </trkpt>
      <trkpt lat="47.63343" lon="-0.679">
        <ele>28.5</ele>
        <time>2014-03-16T09:21:22Z</time>
      </trkpt>
      <trkpt lat="47.63325" lon="-0.6786">
        <ele>28.5</ele>
        <time>2014-03-16T09:21:30Z</time>
      </trkpt>
      <trkpt lat="47.63318" lon="-0.67837">
        <ele>28.5</ele>
        <time>2014-03-16T09:21:34Z</time>
      </trkpt>
      <trkpt lat="47.63314" lon="-0.67818">
        <ele>28.98</ele>
        <time>2014-03-16T09:21:37Z</time>
      </trkpt>
      <trkpt lat="47.63307" lon="-0.67794">
        <ele>28.98</ele>
        <time>2014-03-16T09:21:42Z</time>
      </trkpt>
      <trkpt lat="47.63296" lon="-0.67761">
        <ele>29.46</ele>
        <time>2014-03-16T09:21:49Z</time>
      </trkpt>
      <trkpt lat="47.63286" lon="-0.67731">
        <ele>29.46</ele>
        <time>2014-03-16T09:21:55Z</time>
      </trkpt>
      <trkpt lat="47.63277" lon="-0.67693">
        <ele>29.46</ele>
        <time>2014-03-16T09:22:02Z</time>
      </trkpt>
      <trkpt lat="47.6327" lon="-0.67663">
        <ele>29.46</ele>
        <time>2014-03-16T09:22:10Z</time>
      </trkpt>
      <trkpt lat="47.63265" lon="-0.67629">
        <ele>29.94</ele>
        <time>2014-03-16T09:22:18Z</time>
      </trkpt>
      <trkpt lat="47.63266" lon="-0.67598">
        <ele>29.94</ele>
        <time>2014-03-16T09:22:25Z</time>
      </trkpt>
      <trkpt lat="47.63274" lon="-0.67564">
        <ele>30.42</ele>
        <time>2014-03-16T09:22:33Z</time>
      </trkpt>
      <trkpt lat="47.63282" lon="-0.67533">
        <ele>30.42</ele>
        <time>2014-03-16T09:22:40Z</time>
      </trkpt>
      <trkpt lat="47.63292" lon="-0.67496">
        <ele>31.38</ele>
        <time>2014-03-16T09:22:48Z</time>
      </trkpt>
      <trkpt lat="47.633" lon="-0.67463">
        <ele>31.86</ele>
        <time>2014-03-16T09:22:55Z</time>
      </trkpt>
      <trkpt lat="47.6331" lon="-0.6742">
        <ele>31.86</ele>
        <time>2014-03-16T09:23:04Z</time>
      </trkpt>
      <trkpt lat="47.63317" lon="-0.67388">
        <ele>32.34</ele>
        <time>2014-03-16T09:23:11Z</time>
      </trkpt>
      <trkpt lat="47.63322" lon="-0.67365">
        <ele>32.34</ele>
        <time>2014-03-16T09:23:16Z</time>
      </trkpt>
      <trkpt lat="47.63309" lon="-0.6735">
        <ele>32.34</ele>
        <time>2014-03-16T09:23:21Z</time>
      </trkpt>
      <trkpt lat="47.63282" lon="-0.67333">
        <ele>33.3</ele>
        <time>2014-03-16T09:23:29Z</time>
      </trkpt>
      <trkpt lat="47.63281" lon="-0.6733">
        <ele>33.3</ele>
        <time>2014-03-16T09:23:30Z</time>
      </trkpt>
      <trkpt lat="47.63282" lon="-0.67299">
        <ele>33.78</ele>
        <time>2014-03-16T09:23:37Z</time>
      </trkpt>
      <trkpt lat="47.63287" lon="-0.6727">
        <ele>34.26</ele>
        <time>2014-03-16T09:23:44Z</time>
      </trkpt>
      <trkpt lat="47.63301" lon="-0.67239">
        <ele>34.74</ele>
        <time>2014-03-16T09:23:51Z</time>
      </trkpt>
      <trkpt lat="47.63307" lon="-0.67205">
        <ele>34.74</ele>
        <time>2014-03-16T09:23:58Z</time>
      </trkpt>
      <trkpt lat="47.6331" lon="-0.67171">
        <ele>35.71</ele>
        <time>2014-03-16T09:24:05Z</time>
      </trkpt>
      <trkpt lat="47.63312" lon="-0.67141">
        <ele>35.71</ele>
        <time>2014-03-16T09:24:11Z</time>
      </trkpt>
      <trkpt lat="47.63313" lon="-0.67093">
        <ele>36.19</ele>
        <time>2014-03-16T09:24:20Z</time>
      </trkpt>
      <trkpt lat="47.63314" lon="-0.67058">
        <ele>35.71</ele>
        <time>2014-03-16T09:24:26Z</time>
      </trkpt>
      <trkpt lat="47.63326" lon="-0.67048">
        <ele>36.19</ele>
        <time>2014-03-16T09:24:31Z</time>
      </trkpt>
      <trkpt lat="47.63329" lon="-0.67048">
        <ele>36.19</ele>
        <time>2014-03-16T09:24:32Z</time>
      </trkpt>
      <trkpt lat="47.63362" lon="-0.67049">
        <ele>36.67</ele>
        <time>2014-03-16T09:24:41Z</time>
      </trkpt>
      <trkpt lat="47.63369" lon="-0.67048">
        <ele>36.67</ele>
        <time>2014-03-16T09:24:43Z</time>
      </trkpt>
      <trkpt lat="47.6338" lon="-0.67022">
        <ele>37.15</ele>
        <time>2014-03-16T09:24:49Z</time>
      </trkpt>
      <trkpt lat="47.63378" lon="-0.67001">
        <ele>37.15</ele>
        <time>2014-03-16T09:24:54Z</time>
      </trkpt>
      <trkpt lat="47.63377" lon="-0.66997">
        <ele>37.15</ele>
        <time>2014-03-16T09:24:55Z</time>
      </trkpt>
      <trkpt lat="47.63376" lon="-0.66962">
        <ele>38.11</ele>
        <time>2014-03-16T09:25:03Z</time>
      </trkpt>
      <trkpt lat="47.63374" lon="-0.66928">
        <ele>38.59</ele>
        <time>2014-03-16T09:25:11Z</time>
      </trkpt>
      <trkpt lat="47.63375" lon="-0.66891">
        <ele>40.03</ele>
        <time>2014-03-16T09:25:20Z</time>
      </trkpt>
      <trkpt lat="47.63375" lon="-0.66864">
        <ele>40.51</ele>
        <time>2014-03-16T09:25:27Z</time>
      </trkpt>
      <trkpt lat="47.63375" lon="-0.66831">
        <ele>40.99</ele>
        <time>2014-03-16T09:25:35Z</time>
      </trkpt>
      <trkpt lat="47.63374" lon="-0.66811">
        <ele>41.95</ele>
        <time>2014-03-16T09:25:40Z</time>
      </trkpt>
      <trkpt lat="47.63374" lon="-0.66795">
        <ele>42.44</ele>
        <time>2014-03-16T09:25:44Z</time>
      </trkpt>
      <trkpt lat="47.63372" lon="-0.66758">
        <ele>43.4</ele>
        <time>2014-03-16T09:25:53Z</time>
      </trkpt>
      <trkpt lat="47.63372" lon="-0.66754">
        <ele>43.4</ele>
        <time>2014-03-16T09:25:54Z</time>
      </trkpt>
      <trkpt lat="47.63384" lon="-0.66743">
        <ele>42.92</ele>
        <time>2014-03-16T09:26:00Z</time>
      </trkpt>
      <trkpt lat="47.63397" lon="-0.6674">
        <ele>43.88</ele>
        <time>2014-03-16T09:26:06Z</time>
      </trkpt>
      <trkpt lat="47.63402" lon="-0.66739">
        <ele>43.88</ele>
        <time>2014-03-16T09:26:08Z</time>
      </trkpt>
      <trkpt lat="47.63423" lon="-0.66739">
        <ele>44.36</ele>
        <time>2014-03-16T09:26:16Z</time>
      </trkpt>
      <trkpt lat="47.63445" lon="-0.66743">
        <ele>43.88</ele>
        <time>2014-03-16T09:26:23Z</time>
      </trkpt>
      <trkpt lat="47.63468" lon="-0.66747">
        <ele>43.4</ele>
        <time>2014-03-16T09:26:30Z</time>
      </trkpt>
      <trkpt lat="47.6347" lon="-0.66745">
        <ele>43.88</ele>
        <time>2014-03-16T09:26:31Z</time>
      </trkpt>
      <trkpt lat="47.63481" lon="-0.66707">
        <ele>43.88</ele>
        <time>2014-03-16T09:26:39Z</time>
      </trkpt>
      <trkpt lat="47.6349" lon="-0.66662">
        <ele>44.36</ele>
        <time>2014-03-16T09:26:46Z</time>
      </trkpt>
      <trkpt lat="47.63492" lon="-0.66656">
        <ele>43.88</ele>
        <time>2014-03-16T09:26:47Z</time>
      </trkpt>
      <trkpt lat="47.63495" lon="-0.66631">
        <ele>44.36</ele>
        <time>2014-03-16T09:26:51Z</time>
      </trkpt>
      <trkpt lat="47.63496" lon="-0.66594">
        <ele>44.84</ele>
        <time>2014-03-16T09:26:57Z</time>
      </trkpt>
      <trkpt lat="47.63497" lon="-0.66552">
        <ele>47.24</ele>
        <time>2014-03-16T09:27:05Z</time>
      </trkpt>
      <trkpt lat="47.63499" lon="-0.66516">
        <ele>48.68</ele>
        <time>2014-03-16T09:27:13Z</time>
      </trkpt>
      <trkpt lat="47.63499" lon="-0.66496">
        <ele>49.16</ele>
        <time>2014-03-16T09:27:20Z</time>
      </trkpt>
      <trkpt lat="47.63501" lon="-0.66485">
        <ele>49.16</ele>
        <time>2014-03-16T09:27:27Z</time>
      </trkpt>
      <trkpt lat="47.63501" lon="-0.66485">
        <ele>48.68</ele>
        <time>2014-03-16T09:27:43Z</time>
      </trkpt>
      <trkpt lat="47.63501" lon="-0.66485">
        <ele>49.65</ele>
        <time>2014-03-16T09:27:56Z</time>
      </trkpt>
      <trkpt lat="47.63501" lon="-0.66485">
        <ele>48.68</ele>
        <time>2014-03-16T09:28:10Z</time>
      </trkpt>
      <trkpt lat="47.63502" lon="-0.66482">
        <ele>49.16</ele>
        <time>2014-03-16T09:28:12Z</time>
      </trkpt>
      <trkpt lat="47.63492" lon="-0.66476">
        <ele>49.65</ele>
        <time>2014-03-16T09:28:18Z</time>
      </trkpt>
      <trkpt lat="47.63469" lon="-0.66472">
        <ele>50.13</ele>
        <time>2014-03-16T09:28:26Z</time>
      </trkpt>
      <trkpt lat="47.63454" lon="-0.66469">
        <ele>50.61</ele>
        <time>2014-03-16T09:28:31Z</time>
      </trkpt>
      <trkpt lat="47.63424" lon="-0.66469">
        <ele>50.61</ele>
        <time>2014-03-16T09:28:39Z</time>
      </trkpt>
      <trkpt lat="47.63395" lon="-0.66473">
        <ele>51.09</ele>
        <time>2014-03-16T09:28:46Z</time>
      </trkpt>
      <trkpt lat="47.63378" lon="-0.66473">
        <ele>51.57</ele>
        <time>2014-03-16T09:28:50Z</time>
      </trkpt>
      <trkpt lat="47.6334" lon="-0.66484">
        <ele>51.09</ele>
        <time>2014-03-16T09:28:59Z</time>
      </trkpt>
      <trkpt lat="47.63286" lon="-0.665">
        <ele>48.68</ele>
        <time>2014-03-16T09:29:10Z</time>
      </trkpt>
      <trkpt lat="47.63258" lon="-0.66507">
        <ele>49.16</ele>
        <time>2014-03-16T09:29:16Z</time>
      </trkpt>
      <trkpt lat="47.63204" lon="-0.66504">
        <ele>49.16</ele>
        <time>2014-03-16T09:29:27Z</time>
      </trkpt>
      <trkpt lat="47.63151" lon="-0.66498">
        <ele>49.65</ele>
        <time>2014-03-16T09:29:38Z</time>
      </trkpt>
      <trkpt lat="47.6314" lon="-0.66496">
        <ele>49.16</ele>
        <time>2014-03-16T09:29:40Z</time>
      </trkpt>
      <trkpt lat="47.63125" lon="-0.66495">
        <ele>49.65</ele>
        <time>2014-03-16T09:29:43Z</time>
      </trkpt>
      <trkpt lat="47.63095" lon="-0.66505">
        <ele>49.16</ele>
        <time>2014-03-16T09:29:49Z</time>
      </trkpt>
      <trkpt lat="47.63081" lon="-0.66516">
        <ele>49.65</ele>
        <time>2014-03-16T09:29:52Z</time>
      </trkpt>
      <trkpt lat="47.63051" lon="-0.66552">
        <ele>47.72</ele>
        <time>2014-03-16T09:30:00Z</time>
      </trkpt>
      <trkpt lat="47.63045" lon="-0.66559">
        <ele>47.24</ele>
        <time>2014-03-16T09:30:02Z</time>
      </trkpt>
      <trkpt lat="47.63036" lon="-0.66543">
        <ele>47.72</ele>
        <time>2014-03-16T09:30:06Z</time>
      </trkpt>
      <trkpt lat="47.63037" lon="-0.66529">
        <ele>48.2</ele>
        <time>2014-03-16T09:30:08Z</time>
      </trkpt>
      <trkpt lat="47.63042" lon="-0.66479">
        <ele>49.16</ele>
        <time>2014-03-16T09:30:16Z</time>
      </trkpt>
      <trkpt lat="47.63048" lon="-0.66453">
        <ele>49.65</ele>
        <time>2014-03-16T09:30:20Z</time>
      </trkpt>
      <trkpt lat="47.63051" lon="-0.66428">
        <ele>50.13</ele>
        <time>2014-03-16T09:30:24Z</time>
      </trkpt>
      <trkpt lat="47.63042" lon="-0.66397">
        <ele>51.57</ele>
        <time>2014-03-16T09:30:30Z</time>
      </trkpt>
      <trkpt lat="47.63034" lon="-0.66392">
        <ele>51.57</ele>
        <time>2014-03-16T09:30:32Z</time>
      </trkpt>
      <trkpt lat="47.63002" lon="-0.66375">
        <ele>51.57</ele>
        <time>2014-03-16T09:30:39Z</time>
      </trkpt>
      <trkpt lat="47.62989" lon="-0.66364">
        <ele>51.09</ele>
        <time>2014-03-16T09:30:42Z</time>
      </trkpt>
      <trkpt lat="47.62962" lon="-0.66327">
        <ele>51.57</ele>
        <time>2014-03-16T09:30:51Z</time>
      </trkpt>
      <trkpt lat="47.62951" lon="-0.66314">
        <ele>52.05</ele>
        <time>2014-03-16T09:30:56Z</time>
      </trkpt>
      <trkpt lat="47.6293" lon="-0.66293">
        <ele>52.05</ele>
        <time>2014-03-16T09:31:03Z</time>
      </trkpt>
      <trkpt lat="47.62912" lon="-0.66275">
        <ele>51.57</ele>
        <time>2014-03-16T09:31:09Z</time>
      </trkpt>
      <trkpt lat="47.629" lon="-0.66263">
        <ele>51.09</ele>
        <time>2014-03-16T09:31:14Z</time>
      </trkpt>
      <trkpt lat="47.62897" lon="-0.66259">
        <ele>51.09</ele>
        <time>2014-03-16T09:31:16Z</time>
      </trkpt>
      <trkpt lat="47.62885" lon="-0.66246">
        <ele>51.57</ele>
        <time>2014-03-16T09:31:22Z</time>
      </trkpt>
      <trkpt lat="47.62881" lon="-0.66242">
        <ele>51.09</ele>
        <time>2014-03-16T09:31:24Z</time>
      </trkpt>
      <trkpt lat="47.62872" lon="-0.6623">
        <ele>51.09</ele>
        <time>2014-03-16T09:31:28Z</time>
      </trkpt>
      <trkpt lat="47.62857" lon="-0.66219">
        <ele>50.61</ele>
        <time>2014-03-16T09:31:34Z</time>
      </trkpt>
      <trkpt lat="47.62836" lon="-0.66189">
        <ele>50.61</ele>
        <time>2014-03-16T09:31:42Z</time>
      </trkpt>
      <trkpt lat="47.6283" lon="-0.6618">
        <ele>50.61</ele>
        <time>2014-03-16T09:31:45Z</time>
      </trkpt>
      <trkpt lat="47.62818" lon="-0.6616">
        <ele>50.61</ele>
        <time>2014-03-16T09:31:52Z</time>
      </trkpt>
      <trkpt lat="47.62816" lon="-0.66157">
        <ele>50.61</ele>
        <time>2014-03-16T09:31:53Z</time>
      </trkpt>
      <trkpt lat="47.62805" lon="-0.6614">
        <ele>50.61</ele>
        <time>2014-03-16T09:32:01Z</time>
      </trkpt>
      <trkpt lat="47.62797" lon="-0.66126">
        <ele>51.57</ele>
        <time>2014-03-16T09:32:07Z</time>
      </trkpt>
      <trkpt lat="47.62796" lon="-0.66125">
        <ele>51.57</ele>
        <time>2014-03-16T09:32:08Z</time>
      </trkpt>
      <trkpt lat="47.62789" lon="-0.66115">
        <ele>52.05</ele>
        <time>2014-03-16T09:32:15Z</time>
      </trkpt>
      <trkpt lat="47.62784" lon="-0.66105">
        <ele>52.53</ele>
        <time>2014-03-16T09:32:21Z</time>
      </trkpt>
      <trkpt lat="47.6278" lon="-0.66096">
        <ele>53.01</ele>
        <time>2014-03-16T09:32:25Z</time>
      </trkpt>
      <trkpt lat="47.62775" lon="-0.66075">
        <ele>53.49</ele>
        <time>2014-03-16T09:32:33Z</time>
      </trkpt>
      <trkpt lat="47.62769" lon="-0.66059">
        <ele>54.45</ele>
        <time>2014-03-16T09:32:41Z</time>
      </trkpt>
      <trkpt lat="47.62767" lon="-0.66057">
        <ele>54.45</ele>
        <time>2014-03-16T09:32:42Z</time>
      </trkpt>
      <trkpt lat="47.62763" lon="-0.6604">
        <ele>54.93</ele>
        <time>2014-03-16T09:32:47Z</time>
      </trkpt>
      <trkpt lat="47.62762" lon="-0.66034">
        <ele>54.93</ele>
        <time>2014-03-16T09:32:49Z</time>
      </trkpt>
      <trkpt lat="47.62755" lon="-0.66019">
        <ele>55.89</ele>
        <time>2014-03-16T09:32:55Z</time>
      </trkpt>
      <trkpt lat="47.62749" lon="-0.65994">
        <ele>56.37</ele>
        <time>2014-03-16T09:33:01Z</time>
      </trkpt>
      <trkpt lat="47.62746" lon="-0.65975">
        <ele>56.86</ele>
        <time>2014-03-16T09:33:06Z</time>
      </trkpt>
      <trkpt lat="47.6274" lon="-0.65956">
        <ele>57.82</ele>
        <time>2014-03-16T09:33:12Z</time>
      </trkpt>
      <trkpt lat="47.62732" lon="-0.65933">
        <ele>58.3</ele>
        <time>2014-03-16T09:33:20Z</time>
      </trkpt>
      <trkpt lat="47.62723" lon="-0.6592">
        <ele>58.3</ele>
        <time>2014-03-16T09:33:25Z</time>
      </trkpt>
      <trkpt lat="47.62713" lon="-0.65908">
        <ele>58.3</ele>
        <time>2014-03-16T09:33:32Z</time>
      </trkpt>
      <trkpt lat="47.62702" lon="-0.65894">
        <ele>58.3</ele>
        <time>2014-03-16T09:33:38Z</time>
      </trkpt>
      <trkpt lat="47.62697" lon="-0.65886">
        <ele>58.78</ele>
        <time>2014-03-16T09:33:41Z</time>
      </trkpt>
      <trkpt lat="47.62685" lon="-0.6588">
        <ele>58.3</ele>
        <time>2014-03-16T09:33:46Z</time>
      </trkpt>
      <trkpt lat="47.62667" lon="-0.65903">
        <ele>57.82</ele>
        <time>2014-03-16T09:33:53Z</time>
      </trkpt>
      <trkpt lat="47.62645" lon="-0.65941">
        <ele>56.86</ele>
        <time>2014-03-16T09:34:00Z</time>
      </trkpt>
      <trkpt lat="47.62628" lon="-0.65999">
        <ele>56.37</ele>
        <time>2014-03-16T09:34:08Z</time>
      </trkpt>
      <trkpt lat="47.62622" lon="-0.66028">
        <ele>53.97</ele>
        <time>2014-03-16T09:34:12Z</time>
      </trkpt>
      <trkpt lat="47.62621" lon="-0.66035">
        <ele>54.45</ele>
        <time>2014-03-16T09:34:13Z</time>
      </trkpt>
      <trkpt lat="47.62611" lon="-0.66068">
        <ele>53.01</ele>
        <time>2014-03-16T09:34:18Z</time>
      </trkpt>
      <trkpt lat="47.62596" lon="-0.66113">
        <ele>53.01</ele>
        <time>2014-03-16T09:34:25Z</time>
      </trkpt>
      <trkpt lat="47.6259" lon="-0.66131">
        <ele>52.53</ele>
        <time>2014-03-16T09:34:28Z</time>
      </trkpt>
      <trkpt lat="47.62583" lon="-0.66174">
        <ele>52.53</ele>
        <time>2014-03-16T09:34:34Z</time>
      </trkpt>
      <trkpt lat="47.62582" lon="-0.66181">
        <ele>52.05</ele>
        <time>2014-03-16T09:34:35Z</time>
      </trkpt>
      <trkpt lat="47.62569" lon="-0.66242">
        <ele>50.61</ele>
        <time>2014-03-16T09:34:43Z</time>
      </trkpt>
      <trkpt lat="47.6255" lon="-0.66265">
        <ele>51.09</ele>
        <time>2014-03-16T09:34:48Z</time>
      </trkpt>
      <trkpt lat="47.62496" lon="-0.66265">
        <ele>51.57</ele>
        <time>2014-03-16T09:35:00Z</time>
      </trkpt>
      <trkpt lat="47.62459" lon="-0.6627">
        <ele>52.53</ele>
        <time>2014-03-16T09:35:08Z</time>
      </trkpt>
      <trkpt lat="47.6245" lon="-0.66272">
        <ele>52.53</ele>
        <time>2014-03-16T09:35:10Z</time>
      </trkpt>
      <trkpt lat="47.62431" lon="-0.66263">
        <ele>52.53</ele>
        <time>2014-03-16T09:35:15Z</time>
      </trkpt>
      <trkpt lat="47.62429" lon="-0.66253">
        <ele>53.49</ele>
        <time>2014-03-16T09:35:17Z</time>
      </trkpt>
      <trkpt lat="47.62412" lon="-0.66206">
        <ele>53.97</ele>
        <time>2014-03-16T09:35:27Z</time>
      </trkpt>
      <trkpt lat="47.62394" lon="-0.66191">
        <ele>54.93</ele>
        <time>2014-03-16T09:35:33Z</time>
      </trkpt>
      <trkpt lat="47.62363" lon="-0.66189">
        <ele>55.41</ele>
        <time>2014-03-16T09:35:42Z</time>
      </trkpt>
      <trkpt lat="47.62318" lon="-0.66189">
        <ele>56.86</ele>
        <time>2014-03-16T09:35:54Z</time>
      </trkpt>
      <trkpt lat="47.62289" lon="-0.66189">
        <ele>56.86</ele>
        <time>2014-03-16T09:36:02Z</time>
      </trkpt>
      <trkpt lat="47.62255" lon="-0.6619">
        <ele>57.82</ele>
        <time>2014-03-16T09:36:11Z</time>
      </trkpt>
      <trkpt lat="47.62232" lon="-0.66189">
        <ele>57.82</ele>
        <time>2014-03-16T09:36:16Z</time>
      </trkpt>
      <trkpt lat="47.62215" lon="-0.66189">
        <ele>58.3</ele>
        <time>2014-03-16T09:36:20Z</time>
      </trkpt>
      <trkpt lat="47.62164" lon="-0.6619">
        <ele>58.78</ele>
        <time>2014-03-16T09:36:31Z</time>
      </trkpt>
      <trkpt lat="47.62143" lon="-0.66188">
        <ele>58.78</ele>
        <time>2014-03-16T09:36:36Z</time>
      </trkpt>
      <trkpt lat="47.62138" lon="-0.6617">
        <ele>58.78</ele>
        <time>2014-03-16T09:36:40Z</time>
      </trkpt>
      <trkpt lat="47.62141" lon="-0.66159">
        <ele>58.78</ele>
        <time>2014-03-16T09:36:42Z</time>
      </trkpt>
      <trkpt lat="47.62148" lon="-0.6612">
        <ele>59.74</ele>
        <time>2014-03-16T09:36:49Z</time>
      </trkpt>
      <trkpt lat="47.62157" lon="-0.66078">
        <ele>60.22</ele>
        <time>2014-03-16T09:36:56Z</time>
      </trkpt>
      <trkpt lat="47.62164" lon="-0.66034">
        <ele>59.74</ele>
        <time>2014-03-16T09:37:03Z</time>
      </trkpt>
      <trkpt lat="47.62165" lon="-0.66007">
        <ele>60.7</ele>
        <time>2014-03-16T09:37:07Z</time>
      </trkpt>
      <trkpt lat="47.62162" lon="-0.65952">
        <ele>60.7</ele>
        <time>2014-03-16T09:37:16Z</time>
      </trkpt>
      <trkpt lat="47.62168" lon="-0.65915">
        <ele>60.7</ele>
        <time>2014-03-16T09:37:22Z</time>
      </trkpt>
      <trkpt lat="47.62172" lon="-0.65903">
        <ele>60.7</ele>
        <time>2014-03-16T09:37:24Z</time>
      </trkpt>
      <trkpt lat="47.62185" lon="-0.65847">
        <ele>60.7</ele>
        <time>2014-03-16T09:37:33Z</time>
      </trkpt>
      <trkpt lat="47.62188" lon="-0.65835">
        <ele>61.18</ele>
        <time>2014-03-16T09:37:35Z</time>
      </trkpt>
      <trkpt lat="47.62201" lon="-0.6578">
        <ele>61.18</ele>
        <time>2014-03-16T09:37:44Z</time>
      </trkpt>
      <trkpt lat="47.62209" lon="-0.65751">
        <ele>61.18</ele>
        <time>2014-03-16T09:37:49Z</time>
      </trkpt>
      <trkpt lat="47.62215" lon="-0.65734">
        <ele>61.66</ele>
        <time>2014-03-16T09:37:52Z</time>
      </trkpt>
      <trkpt lat="47.62219" lon="-0.65716">
        <ele>61.66</ele>
        <time>2014-03-16T09:37:55Z</time>
      </trkpt>
      <trkpt lat="47.62228" lon="-0.65667">
        <ele>61.18</ele>
        <time>2014-03-16T09:38:03Z</time>
      </trkpt>
      <trkpt lat="47.62237" lon="-0.65628">
        <ele>61.66</ele>
        <time>2014-03-16T09:38:10Z</time>
      </trkpt>
      <trkpt lat="47.62241" lon="-0.65618">
        <ele>61.66</ele>
        <time>2014-03-16T09:38:12Z</time>
      </trkpt>
      <trkpt lat="47.62254" lon="-0.65599">
        <ele>61.66</ele>
        <time>2014-03-16T09:38:16Z</time>
      </trkpt>
      <trkpt lat="47.62263" lon="-0.65577">
        <ele>61.66</ele>
        <time>2014-03-16T09:38:20Z</time>
      </trkpt>
      <trkpt lat="47.62278" lon="-0.65511">
        <ele>61.18</ele>
        <time>2014-03-16T09:38:30Z</time>
      </trkpt>
      <trkpt lat="47.62293" lon="-0.65451">
        <ele>61.66</ele>
        <time>2014-03-16T09:38:39Z</time>
      </trkpt>
      <trkpt lat="47.62296" lon="-0.65439">
        <ele>61.18</ele>
        <time>2014-03-16T09:38:41Z</time>
      </trkpt>
      <trkpt lat="47.62304" lon="-0.65404">
        <ele>61.18</ele>
        <time>2014-03-16T09:38:47Z</time>
      </trkpt>
      <trkpt lat="47.6231" lon="-0.65375">
        <ele>61.66</ele>
        <time>2014-03-16T09:38:54Z</time>
      </trkpt>
      <trkpt lat="47.62302" lon="-0.65372">
        <ele>62.14</ele>
        <time>2014-03-16T09:38:59Z</time>
      </trkpt>
      <trkpt lat="47.62286" lon="-0.65372">
        <ele>61.66</ele>
        <time>2014-03-16T09:39:04Z</time>
      </trkpt>
      <trkpt lat="47.62258" lon="-0.6537">
        <ele>61.66</ele>
        <time>2014-03-16T09:39:11Z</time>
      </trkpt>
      <trkpt lat="47.62226" lon="-0.65364">
        <ele>61.66</ele>
        <time>2014-03-16T09:39:19Z</time>
      </trkpt>
      <trkpt lat="47.622" lon="-0.65357">
        <ele>61.18</ele>
        <time>2014-03-16T09:39:26Z</time>
      </trkpt>
      <trkpt lat="47.62175" lon="-0.6535">
        <ele>61.18</ele>
        <time>2014-03-16T09:39:33Z</time>
      </trkpt>
      <trkpt lat="47.62153" lon="-0.65348">
        <ele>60.7</ele>
        <time>2014-03-16T09:39:41Z</time>
      </trkpt>
      <trkpt lat="47.62135" lon="-0.65347">
        <ele>60.7</ele>
        <time>2014-03-16T09:39:48Z</time>
      </trkpt>
      <trkpt lat="47.6212" lon="-0.65347">
        <ele>60.7</ele>
        <time>2014-03-16T09:39:54Z</time>
      </trkpt>
      <trkpt lat="47.62102" lon="-0.65342">
        <ele>60.22</ele>
        <time>2014-03-16T09:40:01Z</time>
      </trkpt>
      <trkpt lat="47.62084" lon="-0.65342">
        <ele>59.74</ele>
        <time>2014-03-16T09:40:09Z</time>
      </trkpt>
      <trkpt lat="47.62066" lon="-0.65337">
        <ele>58.78</ele>
        <time>2014-03-16T09:40:16Z</time>
      </trkpt>
      <trkpt lat="47.62064" lon="-0.65336">
        <ele>59.26</ele>
        <time>2014-03-16T09:40:17Z</time>
      </trkpt>
      <trkpt lat="47.62039" lon="-0.65324">
        <ele>58.78</ele>
        <time>2014-03-16T09:40:26Z</time>
      </trkpt>
      <trkpt lat="47.62022" lon="-0.65309">
        <ele>58.3</ele>
        <time>2014-03-16T09:40:32Z</time>
      </trkpt>
      <trkpt lat="47.61997" lon="-0.65287">
        <ele>56.37</ele>
        <time>2014-03-16T09:40:42Z</time>
      </trkpt>
      <trkpt lat="47.6198" lon="-0.65263">
        <ele>55.89</ele>
        <time>2014-03-16T09:40:50Z</time>
      </trkpt>
      <trkpt lat="47.61967" lon="-0.6525">
        <ele>55.41</ele>
        <time>2014-03-16T09:40:56Z</time>
      </trkpt>
      <trkpt lat="47.61955" lon="-0.65231">
        <ele>54.93</ele>
        <time>2014-03-16T09:41:02Z</time>
      </trkpt>
      <trkpt lat="47.61941" lon="-0.65208">
        <ele>53.97</ele>
        <time>2014-03-16T09:41:09Z</time>
      </trkpt>
      <trkpt lat="47.61931" lon="-0.65193">
        <ele>54.45</ele>
        <time>2014-03-16T09:41:14Z</time>
      </trkpt>
      <trkpt lat="47.61918" lon="-0.65166">
        <ele>53.49</ele>
        <time>2014-03-16T09:41:20Z</time>
      </trkpt>
      <trkpt lat="47.61906" lon="-0.65132">
        <ele>53.49</ele>
        <time>2014-03-16T09:41:28Z</time>
      </trkpt>
      <trkpt lat="47.61906" lon="-0.65106">
        <ele>53.49</ele>
        <time>2014-03-16T09:41:34Z</time>
      </trkpt>
      <trkpt lat="47.61912" lon="-0.65081">
        <ele>53.01</ele>
        <time>2014-03-16T09:41:40Z</time>
      </trkpt>
      <trkpt lat="47.61921" lon="-0.65049">
        <ele>53.97</ele>
        <time>2014-03-16T09:41:47Z</time>
      </trkpt>
      <trkpt lat="47.61935" lon="-0.65015">
        <ele>54.45</ele>
        <time>2014-03-16T09:41:55Z</time>
      </trkpt>
      <trkpt lat="47.61957" lon="-0.64989">
        <ele>55.89</ele>
        <time>2014-03-16T09:42:03Z</time>
      </trkpt>
      <trkpt lat="47.61977" lon="-0.64976">
        <ele>55.89</ele>
        <time>2014-03-16T09:42:09Z</time>
      </trkpt>
      <trkpt lat="47.62001" lon="-0.64959">
        <ele>55.89</ele>
        <time>2014-03-16T09:42:16Z</time>
      </trkpt>
      <trkpt lat="47.62013" lon="-0.6495">
        <ele>55.89</ele>
        <time>2014-03-16T09:42:19Z</time>
      </trkpt>
      <trkpt lat="47.62034" lon="-0.64923">
        <ele>55.89</ele>
        <time>2014-03-16T09:42:25Z</time>
      </trkpt>
      <trkpt lat="47.6204" lon="-0.64911">
        <ele>55.41</ele>
        <time>2014-03-16T09:42:27Z</time>
      </trkpt>
      <trkpt lat="47.62048" lon="-0.6489">
        <ele>54.93</ele>
        <time>2014-03-16T09:42:30Z</time>
      </trkpt>
      <trkpt lat="47.62059" lon="-0.64843">
        <ele>54.45</ele>
        <time>2014-03-16T09:42:36Z</time>
      </trkpt>
      <trkpt lat="47.62062" lon="-0.64811">
        <ele>53.97</ele>
        <time>2014-03-16T09:42:40Z</time>
      </trkpt>
      <trkpt lat="47.62056" lon="-0.64759">
        <ele>53.01</ele>
        <time>2014-03-16T09:42:46Z</time>
      </trkpt>
      <trkpt lat="47.62052" lon="-0.64741">
        <ele>53.01</ele>
        <time>2014-03-16T09:42:48Z</time>
      </trkpt>
      <trkpt lat="47.62033" lon="-0.64669">
        <ele>52.53</ele>
        <time>2014-03-16T09:42:57Z</time>
      </trkpt>
      <trkpt lat="47.62018" lon="-0.64611">
        <ele>51.57</ele>
        <time>2014-03-16T09:43:04Z</time>
      </trkpt>
      <trkpt lat="47.61992" lon="-0.64547">
        <ele>50.61</ele>
        <time>2014-03-16T09:43:12Z</time>
      </trkpt>
      <trkpt lat="47.61969" lon="-0.64473">
        <ele>50.13</ele>
        <time>2014-03-16T09:43:21Z</time>
      </trkpt>
      <trkpt lat="47.6195" lon="-0.64401">
        <ele>49.16</ele>
        <time>2014-03-16T09:43:30Z</time>
      </trkpt>
      <trkpt lat="47.61927" lon="-0.64348">
        <ele>48.68</ele>
        <time>2014-03-16T09:43:37Z</time>
      </trkpt>
      <trkpt lat="47.61904" lon="-0.64309">
        <ele>49.16</ele>
        <time>2014-03-16T09:43:43Z</time>
      </trkpt>
      <trkpt lat="47.61882" lon="-0.64268">
        <ele>50.13</ele>
        <time>2014-03-16T09:43:49Z</time>
      </trkpt>
      <trkpt lat="47.61869" lon="-0.64244">
        <ele>51.09</ele>
        <time>2014-03-16T09:43:52Z</time>
      </trkpt>
      <trkpt lat="47.61849" lon="-0.64214">
        <ele>52.53</ele>
        <time>2014-03-16T09:43:56Z</time>
      </trkpt>
      <trkpt lat="47.61828" lon="-0.64177">
        <ele>54.45</ele>
        <time>2014-03-16T09:44:02Z</time>
      </trkpt>
      <trkpt lat="47.61807" lon="-0.64149">
        <ele>55.41</ele>
        <time>2014-03-16T09:44:10Z</time>
      </trkpt>
      <trkpt lat="47.61789" lon="-0.64136">
        <ele>55.89</ele>
        <time>2014-03-16T09:44:17Z</time>
      </trkpt>
      <trkpt lat="47.61771" lon="-0.6412">
        <ele>56.37</ele>
        <time>2014-03-16T09:44:25Z</time>
      </trkpt>
      <trkpt lat="47.61758" lon="-0.64107">
        <ele>57.34</ele>
        <time>2014-03-16T09:44:33Z</time>
      </trkpt>
      <trkpt lat="47.61748" lon="-0.64102">
        <ele>58.3</ele>
        <time>2014-03-16T09:44:38Z</time>
      </trkpt>
      <trkpt lat="47.61741" lon="-0.64096">
        <ele>58.3</ele>
        <time>2014-03-16T09:44:42Z</time>
      </trkpt>
      <trkpt lat="47.61725" lon="-0.64078">
        <ele>59.26</ele>
        <time>2014-03-16T09:44:51Z</time>
      </trkpt>
      <trkpt lat="47.6171" lon="-0.64059">
        <ele>59.74</ele>
        <time>2014-03-16T09:45:00Z</time>
      </trkpt>
      <trkpt lat="47.61696" lon="-0.64041">
        <ele>60.22</ele>
        <time>2014-03-16T09:45:09Z</time>
      </trkpt>
      <trkpt lat="47.61685" lon="-0.64028">
        <ele>60.22</ele>
        <time>2014-03-16T09:45:16Z</time>
      </trkpt>
      <trkpt lat="47.61673" lon="-0.64009">
        <ele>60.22</ele>
        <time>2014-03-16T09:45:24Z</time>
      </trkpt>
      <trkpt lat="47.61663" lon="-0.63993">
        <ele>60.7</ele>
        <time>2014-03-16T09:45:31Z</time>
      </trkpt>
      <trkpt lat="47.61653" lon="-0.63974">
        <ele>60.7</ele>
        <time>2014-03-16T09:45:38Z</time>
      </trkpt>
      <trkpt lat="47.61642" lon="-0.63949">
        <ele>61.18</ele>
        <time>2014-03-16T09:45:47Z</time>
      </trkpt>
      <trkpt lat="47.61639" lon="-0.63944">
        <ele>61.18</ele>
        <time>2014-03-16T09:45:49Z</time>
      </trkpt>
      <trkpt lat="47.61635" lon="-0.63936">
        <ele>61.18</ele>
        <time>2014-03-16T09:45:52Z</time>
      </trkpt>
      <trkpt lat="47.61626" lon="-0.63914">
        <ele>61.18</ele>
        <time>2014-03-16T09:45:59Z</time>
      </trkpt>
      <trkpt lat="47.61612" lon="-0.63891">
        <ele>61.18</ele>
        <time>2014-03-16T09:46:08Z</time>
      </trkpt>
      <trkpt lat="47.61603" lon="-0.63872">
        <ele>61.18</ele>
        <time>2014-03-16T09:46:16Z</time>
      </trkpt>
      <trkpt lat="47.61596" lon="-0.63852">
        <ele>61.18</ele>
        <time>2014-03-16T09:46:24Z</time>
      </trkpt>
      <trkpt lat="47.61589" lon="-0.63839">
        <ele>62.14</ele>
        <time>2014-03-16T09:46:30Z</time>
      </trkpt>
      <trkpt lat="47.6158" lon="-0.63821">
        <ele>61.18</ele>
        <time>2014-03-16T09:46:37Z</time>
      </trkpt>
      <trkpt lat="47.61569" lon="-0.63802">
        <ele>61.66</ele>
        <time>2014-03-16T09:46:43Z</time>
      </trkpt>
      <trkpt lat="47.61555" lon="-0.63774">
        <ele>61.66</ele>
        <time>2014-03-16T09:46:51Z</time>
      </trkpt>
      <trkpt lat="47.6155" lon="-0.63767">
        <ele>61.66</ele>
        <time>2014-03-16T09:46:53Z</time>
      </trkpt>
      <trkpt lat="47.6154" lon="-0.63751">
        <ele>61.66</ele>
        <time>2014-03-16T09:46:58Z</time>
      </trkpt>
      <trkpt lat="47.61527" lon="-0.63719">
        <ele>62.14</ele>
        <time>2014-03-16T09:47:06Z</time>
      </trkpt>
      <trkpt lat="47.61515" lon="-0.63692">
        <ele>61.18</ele>
        <time>2014-03-16T09:47:12Z</time>
      </trkpt>
      <trkpt lat="47.61495" lon="-0.63659">
        <ele>60.7</ele>
        <time>2014-03-16T09:47:20Z</time>
      </trkpt>
      <trkpt lat="47.61484" lon="-0.63648">
        <ele>60.7</ele>
        <time>2014-03-16T09:47:25Z</time>
      </trkpt>
      <trkpt lat="47.61484" lon="-0.63648">
        <ele>60.7</ele>
        <time>2014-03-16T09:47:33Z</time>
      </trkpt>
      <trkpt lat="47.61484" lon="-0.63648">
        <ele>61.18</ele>
        <time>2014-03-16T09:47:41Z</time>
      </trkpt>
      <trkpt lat="47.61484" lon="-0.63648">
        <ele>61.18</ele>
        <time>2014-03-16T09:47:57Z</time>
      </trkpt>
      <trkpt lat="47.61484" lon="-0.63648">
        <ele>61.18</ele>
        <time>2014-03-16T09:48:04Z</time>
      </trkpt>
      <trkpt lat="47.61479" lon="-0.63627">
        <ele>61.18</ele>
        <time>2014-03-16T09:48:11Z</time>
      </trkpt>
      <trkpt lat="47.61465" lon="-0.6361">
        <ele>61.66</ele>
        <time>2014-03-16T09:48:16Z</time>
      </trkpt>
      <trkpt lat="47.61444" lon="-0.63588">
        <ele>61.18</ele>
        <time>2014-03-16T09:48:23Z</time>
      </trkpt>
      <trkpt lat="47.61431" lon="-0.63575">
        <ele>60.7</ele>
        <time>2014-03-16T09:48:27Z</time>
      </trkpt>
      <trkpt lat="47.61414" lon="-0.63558">
        <ele>60.22</ele>
        <time>2014-03-16T09:48:32Z</time>
      </trkpt>
      <trkpt lat="47.61381" lon="-0.63521">
        <ele>60.22</ele>
        <time>2014-03-16T09:48:41Z</time>
      </trkpt>
      <trkpt lat="47.61354" lon="-0.63495">
        <ele>59.74</ele>
        <time>2014-03-16T09:48:48Z</time>
      </trkpt>
      <trkpt lat="47.61338" lon="-0.63476">
        <ele>59.26</ele>
        <time>2014-03-16T09:48:52Z</time>
      </trkpt>
      <trkpt lat="47.61316" lon="-0.63445">
        <ele>59.74</ele>
        <time>2014-03-16T09:48:58Z</time>
      </trkpt>
      <trkpt lat="47.61303" lon="-0.63428">
        <ele>60.7</ele>
        <time>2014-03-16T09:49:02Z</time>
      </trkpt>
      <trkpt lat="47.61293" lon="-0.63414">
        <ele>60.7</ele>
        <time>2014-03-16T09:49:05Z</time>
      </trkpt>
      <trkpt lat="47.61269" lon="-0.63382">
        <ele>60.7</ele>
        <time>2014-03-16T09:49:11Z</time>
      </trkpt>
      <trkpt lat="47.61243" lon="-0.63345">
        <ele>60.22</ele>
        <time>2014-03-16T09:49:18Z</time>
      </trkpt>
      <trkpt lat="47.61236" lon="-0.63335">
        <ele>59.74</ele>
        <time>2014-03-16T09:49:20Z</time>
      </trkpt>
      <trkpt lat="47.61209" lon="-0.633">
        <ele>59.26</ele>
        <time>2014-03-16T09:49:27Z</time>
      </trkpt>
      <trkpt lat="47.61187" lon="-0.63266">
        <ele>60.22</ele>
        <time>2014-03-16T09:49:34Z</time>
      </trkpt>
      <trkpt lat="47.61189" lon="-0.63233">
        <ele>60.7</ele>
        <time>2014-03-16T09:49:39Z</time>
      </trkpt>
      <trkpt lat="47.61192" lon="-0.63228">
        <ele>61.18</ele>
        <time>2014-03-16T09:49:40Z</time>
      </trkpt>
      <trkpt lat="47.61208" lon="-0.63196">
        <ele>61.18</ele>
        <time>2014-03-16T09:49:46Z</time>
      </trkpt>
      <trkpt lat="47.61213" lon="-0.63185">
        <ele>61.18</ele>
        <time>2014-03-16T09:49:48Z</time>
      </trkpt>
      <trkpt lat="47.61225" lon="-0.63159">
        <ele>61.18</ele>
        <time>2014-03-16T09:49:53Z</time>
      </trkpt>
      <trkpt lat="47.6125" lon="-0.63114">
        <ele>61.18</ele>
        <time>2014-03-16T09:50:02Z</time>
      </trkpt>
      <trkpt lat="47.6127" lon="-0.63072">
        <ele>60.7</ele>
        <time>2014-03-16T09:50:10Z</time>
      </trkpt>
      <trkpt lat="47.61269" lon="-0.63043">
        <ele>61.18</ele>
        <time>2014-03-16T09:50:15Z</time>
      </trkpt>
      <trkpt lat="47.61262" lon="-0.63035">
        <ele>61.18</ele>
        <time>2014-03-16T09:50:17Z</time>
      </trkpt>
      <trkpt lat="47.61232" lon="-0.62996">
        <ele>61.66</ele>
        <time>2014-03-16T09:50:26Z</time>
      </trkpt>
      <trkpt lat="47.61207" lon="-0.6296">
        <ele>61.66</ele>
        <time>2014-03-16T09:50:34Z</time>
      </trkpt>
      <trkpt lat="47.61172" lon="-0.62914">
        <ele>61.66</ele>
        <time>2014-03-16T09:50:45Z</time>
      </trkpt>
      <trkpt lat="47.61141" lon="-0.62877">
        <ele>61.66</ele>
        <time>2014-03-16T09:50:54Z</time>
      </trkpt>
      <trkpt lat="47.61134" lon="-0.62868">
        <ele>61.66</ele>
        <time>2014-03-16T09:50:56Z</time>
      </trkpt>
      <trkpt lat="47.61103" lon="-0.62828">
        <ele>62.14</ele>
        <time>2014-03-16T09:51:05Z</time>
      </trkpt>
      <trkpt lat="47.61076" lon="-0.62791">
        <ele>61.66</ele>
        <time>2014-03-16T09:51:13Z</time>
      </trkpt>
      <trkpt lat="47.61055" lon="-0.62763">
        <ele>61.66</ele>
        <time>2014-03-16T09:51:19Z</time>
      </trkpt>
      <trkpt lat="47.61022" lon="-0.62722">
        <ele>61.18</ele>
        <time>2014-03-16T09:51:28Z</time>
      </trkpt>
      <trkpt lat="47.61015" lon="-0.62713">
        <ele>61.66</ele>
        <time>2014-03-16T09:51:30Z</time>
      </trkpt>
      <trkpt lat="47.60981" lon="-0.6267">
        <ele>61.18</ele>
        <time>2014-03-16T09:51:39Z</time>
      </trkpt>
      <trkpt lat="47.60946" lon="-0.62624">
        <ele>60.7</ele>
        <time>2014-03-16T09:51:48Z</time>
      </trkpt>
      <trkpt lat="47.60917" lon="-0.62588">
        <ele>56.86</ele>
        <time>2014-03-16T09:51:55Z</time>
      </trkpt>
      <trkpt lat="47.60913" lon="-0.62583">
        <ele>59.74</ele>
        <time>2014-03-16T09:51:56Z</time>
      </trkpt>
      <trkpt lat="47.60905" lon="-0.62573">
        <ele>63.1</ele>
        <time>2014-03-16T09:51:58Z</time>
      </trkpt>
      <trkpt lat="47.60901" lon="-0.62568">
        <ele>59.26</ele>
        <time>2014-03-16T09:51:59Z</time>
      </trkpt>
      <trkpt lat="47.60873" lon="-0.62532">
        <ele>59.74</ele>
        <time>2014-03-16T09:52:06Z</time>
      </trkpt>
      <trkpt lat="47.60856" lon="-0.62514">
        <ele>59.74</ele>
        <time>2014-03-16T09:52:10Z</time>
      </trkpt>
      <trkpt lat="47.60849" lon="-0.62503">
        <ele>59.74</ele>
        <time>2014-03-16T09:52:12Z</time>
      </trkpt>
      <trkpt lat="47.60838" lon="-0.62475">
        <ele>60.7</ele>
        <time>2014-03-16T09:52:17Z</time>
      </trkpt>
      <trkpt lat="47.60833" lon="-0.62475">
        <ele>60.7</ele>
        <time>2014-03-16T09:52:18Z</time>
      </trkpt>
      <trkpt lat="47.60807" lon="-0.6248">
        <ele>60.7</ele>
        <time>2014-03-16T09:52:24Z</time>
      </trkpt>
      <trkpt lat="47.6076" lon="-0.62476">
        <ele>60.7</ele>
        <time>2014-03-16T09:52:35Z</time>
      </trkpt>
      <trkpt lat="47.60727" lon="-0.6247">
        <ele>60.22</ele>
        <time>2014-03-16T09:52:43Z</time>
      </trkpt>
      <trkpt lat="47.60698" lon="-0.62459">
        <ele>60.22</ele>
        <time>2014-03-16T09:52:50Z</time>
      </trkpt>
      <trkpt lat="47.60663" lon="-0.62457">
        <ele>61.18</ele>
        <time>2014-03-16T09:52:58Z</time>
      </trkpt>
      <trkpt lat="47.60635" lon="-0.62459">
        <ele>61.18</ele>
        <time>2014-03-16T09:53:05Z</time>
      </trkpt>
      <trkpt lat="47.60607" lon="-0.62459">
        <ele>60.7</ele>
        <time>2014-03-16T09:53:12Z</time>
      </trkpt>
      <trkpt lat="47.60586" lon="-0.62455">
        <ele>61.18</ele>
        <time>2014-03-16T09:53:18Z</time>
      </trkpt>
      <trkpt lat="47.60554" lon="-0.62455">
        <ele>60.22</ele>
        <time>2014-03-16T09:53:28Z</time>
      </trkpt>
      <trkpt lat="47.60532" lon="-0.62458">
        <ele>60.7</ele>
        <time>2014-03-16T09:53:36Z</time>
      </trkpt>
      <trkpt lat="47.6051" lon="-0.62462">
        <ele>60.7</ele>
        <time>2014-03-16T09:53:44Z</time>
      </trkpt>
      <trkpt lat="47.60479" lon="-0.62468">
        <ele>60.7</ele>
        <time>2014-03-16T09:53:55Z</time>
      </trkpt>
      <trkpt lat="47.6045" lon="-0.6247">
        <ele>60.7</ele>
        <time>2014-03-16T09:54:03Z</time>
      </trkpt>
      <trkpt lat="47.60416" lon="-0.62471">
        <ele>60.7</ele>
        <time>2014-03-16T09:54:12Z</time>
      </trkpt>
      <trkpt lat="47.60377" lon="-0.62473">
        <ele>60.22</ele>
        <time>2014-03-16T09:54:22Z</time>
      </trkpt>
      <trkpt lat="47.60362" lon="-0.62472">
        <ele>60.22</ele>
        <time>2014-03-16T09:54:26Z</time>
      </trkpt>
      <trkpt lat="47.60315" lon="-0.62471">
        <ele>59.26</ele>
        <time>2014-03-16T09:54:36Z</time>
      </trkpt>
      <trkpt lat="47.60283" lon="-0.62471">
        <ele>58.78</ele>
        <time>2014-03-16T09:54:43Z</time>
      </trkpt>
      <trkpt lat="47.60256" lon="-0.62469">
        <ele>58.78</ele>
        <time>2014-03-16T09:54:49Z</time>
      </trkpt>
      <trkpt lat="47.60248" lon="-0.62468">
        <ele>58.78</ele>
        <time>2014-03-16T09:54:51Z</time>
      </trkpt>
      <trkpt lat="47.6024" lon="-0.62451">
        <ele>58.3</ele>
        <time>2014-03-16T09:54:55Z</time>
      </trkpt>
      <trkpt lat="47.60243" lon="-0.62406">
        <ele>58.78</ele>
        <time>2014-03-16T09:55:03Z</time>
      </trkpt>
      <trkpt lat="47.60246" lon="-0.62362">
        <ele>59.26</ele>
        <time>2014-03-16T09:55:12Z</time>
      </trkpt>
      <trkpt lat="47.60259" lon="-0.62327">
        <ele>60.22</ele>
        <time>2014-03-16T09:55:20Z</time>
      </trkpt>
      <trkpt lat="47.60275" lon="-0.62291">
        <ele>60.22</ele>
        <time>2014-03-16T09:55:28Z</time>
      </trkpt>
      <trkpt lat="47.60299" lon="-0.62236">
        <ele>60.7</ele>
        <time>2014-03-16T09:55:38Z</time>
      </trkpt>
      <trkpt lat="47.6031" lon="-0.62201">
        <ele>61.18</ele>
        <time>2014-03-16T09:55:45Z</time>
      </trkpt>
      <trkpt lat="47.60314" lon="-0.6219">
        <ele>61.66</ele>
        <time>2014-03-16T09:55:47Z</time>
      </trkpt>
      <trkpt lat="47.60321" lon="-0.62174">
        <ele>61.18</ele>
        <time>2014-03-16T09:55:50Z</time>
      </trkpt>
      <trkpt lat="47.60339" lon="-0.62123">
        <ele>61.66</ele>
        <time>2014-03-16T09:55:59Z</time>
      </trkpt>
      <trkpt lat="47.60363" lon="-0.62058">
        <ele>61.66</ele>
        <time>2014-03-16T09:56:10Z</time>
      </trkpt>
      <trkpt lat="47.60379" lon="-0.62007">
        <ele>60.7</ele>
        <time>2014-03-16T09:56:19Z</time>
      </trkpt>
      <trkpt lat="47.60394" lon="-0.6195">
        <ele>61.18</ele>
        <time>2014-03-16T09:56:29Z</time>
      </trkpt>
      <trkpt lat="47.60404" lon="-0.61899">
        <ele>61.18</ele>
        <time>2014-03-16T09:56:37Z</time>
      </trkpt>
      <trkpt lat="47.60421" lon="-0.61831">
        <ele>60.7</ele>
        <time>2014-03-16T09:56:47Z</time>
      </trkpt>
      <trkpt lat="47.60436" lon="-0.61779">
        <ele>60.7</ele>
        <time>2014-03-16T09:56:55Z</time>
      </trkpt>
      <trkpt lat="47.60451" lon="-0.61734">
        <ele>60.7</ele>
        <time>2014-03-16T09:57:02Z</time>
      </trkpt>
      <trkpt lat="47.60469" lon="-0.61672">
        <ele>60.7</ele>
        <time>2014-03-16T09:57:11Z</time>
      </trkpt>
      <trkpt lat="47.60483" lon="-0.61617">
        <ele>61.18</ele>
        <time>2014-03-16T09:57:19Z</time>
      </trkpt>
      <trkpt lat="47.60487" lon="-0.6158">
        <ele>59.74</ele>
        <time>2014-03-16T09:57:25Z</time>
      </trkpt>
      <trkpt lat="47.60477" lon="-0.61568">
        <ele>59.74</ele>
        <time>2014-03-16T09:57:29Z</time>
      </trkpt>
      <trkpt lat="47.6044" lon="-0.61545">
        <ele>60.22</ele>
        <time>2014-03-16T09:57:38Z</time>
      </trkpt>
      <trkpt lat="47.604" lon="-0.6152">
        <ele>60.22</ele>
        <time>2014-03-16T09:57:47Z</time>
      </trkpt>
      <trkpt lat="47.60348" lon="-0.61491">
        <ele>60.22</ele>
        <time>2014-03-16T09:57:58Z</time>
      </trkpt>
      <trkpt lat="47.60293" lon="-0.6146">
        <ele>60.22</ele>
        <time>2014-03-16T09:58:09Z</time>
      </trkpt>
      <trkpt lat="47.60236" lon="-0.61428">
        <ele>60.22</ele>
        <time>2014-03-16T09:58:20Z</time>
      </trkpt>
      <trkpt lat="47.60165" lon="-0.61388">
        <ele>59.26</ele>
        <time>2014-03-16T09:58:33Z</time>
      </trkpt>
      <trkpt lat="47.60143" lon="-0.61376">
        <ele>59.26</ele>
        <time>2014-03-16T09:58:37Z</time>
      </trkpt>
      <trkpt lat="47.60094" lon="-0.61347">
        <ele>59.26</ele>
        <time>2014-03-16T09:58:46Z</time>
      </trkpt>
      <trkpt lat="47.60052" lon="-0.61323">
        <ele>60.22</ele>
        <time>2014-03-16T09:58:54Z</time>
      </trkpt>
      <trkpt lat="47.60017" lon="-0.61305">
        <ele>60.22</ele>
        <time>2014-03-16T09:59:01Z</time>
      </trkpt>
      <trkpt lat="47.59985" lon="-0.6129">
        <ele>60.22</ele>
        <time>2014-03-16T09:59:07Z</time>
      </trkpt>
      <trkpt lat="47.59965" lon="-0.61285">
        <ele>60.22</ele>
        <time>2014-03-16T09:59:11Z</time>
      </trkpt>
      <trkpt lat="47.59939" lon="-0.61273">
        <ele>59.26</ele>
        <time>2014-03-16T09:59:16Z</time>
      </trkpt>
      <trkpt lat="47.59925" lon="-0.61263">
        <ele>58.78</ele>
        <time>2014-03-16T09:59:19Z</time>
      </trkpt>
      <trkpt lat="47.59916" lon="-0.61256">
        <ele>58.78</ele>
        <time>2014-03-16T09:59:21Z</time>
      </trkpt>
      <trkpt lat="47.59887" lon="-0.61222">
        <ele>58.78</ele>
        <time>2014-03-16T09:59:28Z</time>
      </trkpt>
      <trkpt lat="47.59855" lon="-0.61183">
        <ele>58.78</ele>
        <time>2014-03-16T09:59:36Z</time>
      </trkpt>
      <trkpt lat="47.59823" lon="-0.61167">
        <ele>59.26</ele>
        <time>2014-03-16T09:59:42Z</time>
      </trkpt>
      <trkpt lat="47.59817" lon="-0.61165">
        <ele>58.78</ele>
        <time>2014-03-16T09:59:43Z</time>
      </trkpt>
      <trkpt lat="47.59807" lon="-0.61163">
        <ele>58.78</ele>
        <time>2014-03-16T09:59:45Z</time>
      </trkpt>
      <trkpt lat="47.59797" lon="-0.61162">
        <ele>58.78</ele>
        <time>2014-03-16T09:59:47Z</time>
      </trkpt>
      <trkpt lat="47.59752" lon="-0.6116">
        <ele>58.3</ele>
        <time>2014-03-16T09:59:55Z</time>
      </trkpt>
      <trkpt lat="47.59735" lon="-0.61159">
        <ele>58.3</ele>
        <time>2014-03-16T09:59:58Z</time>
      </trkpt>
      <trkpt lat="47.59718" lon="-0.61172">
        <ele>57.82</ele>
        <time>2014-03-16T10:00:02Z</time>
      </trkpt>
      <trkpt lat="47.59708" lon="-0.61202">
        <ele>58.3</ele>
        <time>2014-03-16T10:00:06Z</time>
      </trkpt>
      <trkpt lat="47.59702" lon="-0.61215">
        <ele>58.3</ele>
        <time>2014-03-16T10:00:08Z</time>
      </trkpt>
      <trkpt lat="47.5968" lon="-0.61246">
        <ele>58.3</ele>
        <time>2014-03-16T10:00:14Z</time>
      </trkpt>
      <trkpt lat="47.59647" lon="-0.61278">
        <ele>58.78</ele>
        <time>2014-03-16T10:00:21Z</time>
      </trkpt>
      <trkpt lat="47.59628" lon="-0.61296">
        <ele>59.26</ele>
        <time>2014-03-16T10:00:25Z</time>
      </trkpt>
      <trkpt lat="47.59598" lon="-0.61324">
        <ele>59.74</ele>
        <time>2014-03-16T10:00:32Z</time>
      </trkpt>
      <trkpt lat="47.59583" lon="-0.61338">
        <ele>59.26</ele>
        <time>2014-03-16T10:00:35Z</time>
      </trkpt>
      <trkpt lat="47.59548" lon="-0.61372">
        <ele>59.74</ele>
        <time>2014-03-16T10:00:43Z</time>
      </trkpt>
      <trkpt lat="47.59521" lon="-0.61397">
        <ele>59.74</ele>
        <time>2014-03-16T10:00:49Z</time>
      </trkpt>
      <trkpt lat="47.59502" lon="-0.61416">
        <ele>59.26</ele>
        <time>2014-03-16T10:00:53Z</time>
      </trkpt>
      <trkpt lat="47.59473" lon="-0.61447">
        <ele>59.74</ele>
        <time>2014-03-16T10:00:59Z</time>
      </trkpt>
      <trkpt lat="47.59444" lon="-0.61484">
        <ele>58.78</ele>
        <time>2014-03-16T10:01:05Z</time>
      </trkpt>
      <trkpt lat="47.59426" lon="-0.61509">
        <ele>58.78</ele>
        <time>2014-03-16T10:01:09Z</time>
      </trkpt>
      <trkpt lat="47.59414" lon="-0.61528">
        <ele>58.3</ele>
        <time>2014-03-16T10:01:12Z</time>
      </trkpt>
      <trkpt lat="47.59396" lon="-0.61531">
        <ele>56.86</ele>
        <time>2014-03-16T10:01:16Z</time>
      </trkpt>
      <trkpt lat="47.59389" lon="-0.61523">
        <ele>57.34</ele>
        <time>2014-03-16T10:01:18Z</time>
      </trkpt>
      <trkpt lat="47.59367" lon="-0.61506">
        <ele>57.34</ele>
        <time>2014-03-16T10:01:23Z</time>
      </trkpt>
      <trkpt lat="47.59342" lon="-0.61487">
        <ele>57.34</ele>
        <time>2014-03-16T10:01:28Z</time>
      </trkpt>
      <trkpt lat="47.59313" lon="-0.61476">
        <ele>57.34</ele>
        <time>2014-03-16T10:01:33Z</time>
      </trkpt>
      <trkpt lat="47.59301" lon="-0.61475">
        <ele>57.34</ele>
        <time>2014-03-16T10:01:35Z</time>
      </trkpt>
      <trkpt lat="47.59284" lon="-0.61469">
        <ele>57.82</ele>
        <time>2014-03-16T10:01:38Z</time>
      </trkpt>
      <trkpt lat="47.5926" lon="-0.61462">
        <ele>56.86</ele>
        <time>2014-03-16T10:01:42Z</time>
      </trkpt>
      <trkpt lat="47.59249" lon="-0.61456">
        <ele>57.34</ele>
        <time>2014-03-16T10:01:44Z</time>
      </trkpt>
      <trkpt lat="47.59229" lon="-0.61427">
        <ele>57.34</ele>
        <time>2014-03-16T10:01:49Z</time>
      </trkpt>
      <trkpt lat="47.59219" lon="-0.61388">
        <ele>57.82</ele>
        <time>2014-03-16T10:01:54Z</time>
      </trkpt>
      <trkpt lat="47.59214" lon="-0.61373">
        <ele>57.34</ele>
        <time>2014-03-16T10:01:56Z</time>
      </trkpt>
      <trkpt lat="47.59205" lon="-0.61341">
        <ele>57.34</ele>
        <time>2014-03-16T10:02:00Z</time>
      </trkpt>
      <trkpt lat="47.59197" lon="-0.61319">
        <ele>57.82</ele>
        <time>2014-03-16T10:02:03Z</time>
      </trkpt>
      <trkpt lat="47.59179" lon="-0.61251">
        <ele>56.86</ele>
        <time>2014-03-16T10:02:11Z</time>
      </trkpt>
      <trkpt lat="47.59167" lon="-0.61198">
        <ele>55.41</ele>
        <time>2014-03-16T10:02:17Z</time>
      </trkpt>
      <trkpt lat="47.59156" lon="-0.61167">
        <ele>53.97</ele>
        <time>2014-03-16T10:02:22Z</time>
      </trkpt>
      <trkpt lat="47.59142" lon="-0.6117">
        <ele>54.45</ele>
        <time>2014-03-16T10:02:27Z</time>
      </trkpt>
      <trkpt lat="47.59136" lon="-0.61174">
        <ele>54.93</ele>
        <time>2014-03-16T10:02:29Z</time>
      </trkpt>
      <trkpt lat="47.59124" lon="-0.61185">
        <ele>55.89</ele>
        <time>2014-03-16T10:02:32Z</time>
      </trkpt>
      <trkpt lat="47.59101" lon="-0.61208">
        <ele>56.37</ele>
        <time>2014-03-16T10:02:38Z</time>
      </trkpt>
      <trkpt lat="47.59087" lon="-0.61221">
        <ele>57.34</ele>
        <time>2014-03-16T10:02:43Z</time>
      </trkpt>
      <trkpt lat="47.59083" lon="-0.61225">
        <ele>57.34</ele>
        <time>2014-03-16T10:02:44Z</time>
      </trkpt>
      <trkpt lat="47.59056" lon="-0.61253">
        <ele>56.86</ele>
        <time>2014-03-16T10:02:51Z</time>
      </trkpt>
      <trkpt lat="47.5903" lon="-0.61275">
        <ele>57.34</ele>
        <time>2014-03-16T10:02:57Z</time>
      </trkpt>
      <trkpt lat="47.59019" lon="-0.61285">
        <ele>57.34</ele>
        <time>2014-03-16T10:03:00Z</time>
      </trkpt>
      <trkpt lat="47.59004" lon="-0.61296">
        <ele>57.34</ele>
        <time>2014-03-16T10:03:03Z</time>
      </trkpt>
      <trkpt lat="47.58983" lon="-0.61311">
        <ele>57.34</ele>
        <time>2014-03-16T10:03:07Z</time>
      </trkpt>
      <trkpt lat="47.5894" lon="-0.61335">
        <ele>56.86</ele>
        <time>2014-03-16T10:03:15Z</time>
      </trkpt>
      <trkpt lat="47.58895" lon="-0.61352">
        <ele>55.89</ele>
        <time>2014-03-16T10:03:22Z</time>
      </trkpt>
      <trkpt lat="47.5885" lon="-0.61378">
        <ele>54.93</ele>
        <time>2014-03-16T10:03:30Z</time>
      </trkpt>
      <trkpt lat="47.58831" lon="-0.61392">
        <ele>54.45</ele>
        <time>2014-03-16T10:03:34Z</time>
      </trkpt>
      <trkpt lat="47.58797" lon="-0.6141">
        <ele>53.97</ele>
        <time>2014-03-16T10:03:41Z</time>
      </trkpt>
      <trkpt lat="47.58745" lon="-0.61425">
        <ele>52.05</ele>
        <time>2014-03-16T10:03:50Z</time>
      </trkpt>
      <trkpt lat="47.58674" lon="-0.61434">
        <ele>51.57</ele>
        <time>2014-03-16T10:04:01Z</time>
      </trkpt>
      <trkpt lat="47.58636" lon="-0.61438">
        <ele>51.09</ele>
        <time>2014-03-16T10:04:08Z</time>
      </trkpt>
      <trkpt lat="47.58593" lon="-0.61439">
        <ele>52.05</ele>
        <time>2014-03-16T10:04:17Z</time>
      </trkpt>
      <trkpt lat="47.58584" lon="-0.61437">
        <ele>51.57</ele>
        <time>2014-03-16T10:04:19Z</time>
      </trkpt>
      <trkpt lat="47.58562" lon="-0.61416">
        <ele>51.57</ele>
        <time>2014-03-16T10:04:25Z</time>
      </trkpt>
      <trkpt lat="47.58557" lon="-0.61396">
        <ele>51.09</ele>
        <time>2014-03-16T10:04:28Z</time>
      </trkpt>
      <trkpt lat="47.58552" lon="-0.61306">
        <ele>47.72</ele>
        <time>2014-03-16T10:04:38Z</time>
      </trkpt>
      <trkpt lat="47.58544" lon="-0.61229">
        <ele>45.32</ele>
        <time>2014-03-16T10:04:46Z</time>
      </trkpt>
      <trkpt lat="47.58528" lon="-0.61173">
        <ele>42.92</ele>
        <time>2014-03-16T10:04:52Z</time>
      </trkpt>
      <trkpt lat="47.58505" lon="-0.61104">
        <ele>41.47</ele>
        <time>2014-03-16T10:05:00Z</time>
      </trkpt>
      <trkpt lat="47.58501" lon="-0.61092">
        <ele>40.51</ele>
        <time>2014-03-16T10:05:03Z</time>
      </trkpt>
      <trkpt lat="47.585" lon="-0.61089">
        <ele>40.51</ele>
        <time>2014-03-16T10:05:04Z</time>
      </trkpt>
      <trkpt lat="47.58485" lon="-0.61099">
        <ele>41.47</ele>
        <time>2014-03-16T10:05:10Z</time>
      </trkpt>
      <trkpt lat="47.58461" lon="-0.61122">
        <ele>42.44</ele>
        <time>2014-03-16T10:05:17Z</time>
      </trkpt>
      <trkpt lat="47.5843" lon="-0.61142">
        <ele>42.92</ele>
        <time>2014-03-16T10:05:25Z</time>
      </trkpt>
      <trkpt lat="47.58394" lon="-0.61163">
        <ele>44.84</ele>
        <time>2014-03-16T10:05:34Z</time>
      </trkpt>
      <trkpt lat="47.58356" lon="-0.61189">
        <ele>44.84</ele>
        <time>2014-03-16T10:05:43Z</time>
      </trkpt>
      <trkpt lat="47.58309" lon="-0.61204">
        <ele>43.88</ele>
        <time>2014-03-16T10:05:53Z</time>
      </trkpt>
      <trkpt lat="47.58296" lon="-0.61215">
        <ele>43.88</ele>
        <time>2014-03-16T10:05:58Z</time>
      </trkpt>
      <trkpt lat="47.58287" lon="-0.61225">
        <ele>44.84</ele>
        <time>2014-03-16T10:06:02Z</time>
      </trkpt>
      <trkpt lat="47.58266" lon="-0.61212">
        <ele>43.88</ele>
        <time>2014-03-16T10:06:08Z</time>
      </trkpt>
      <trkpt lat="47.58238" lon="-0.61189">
        <ele>43.4</ele>
        <time>2014-03-16T10:06:15Z</time>
      </trkpt>
      <trkpt lat="47.58227" lon="-0.6118">
        <ele>41.95</ele>
        <time>2014-03-16T10:06:20Z</time>
      </trkpt>
      <trkpt lat="47.58224" lon="-0.61174">
        <ele>41.95</ele>
        <time>2014-03-16T10:06:22Z</time>
      </trkpt>
      <trkpt lat="47.58216" lon="-0.61159">
        <ele>40.99</ele>
        <time>2014-03-16T10:06:25Z</time>
      </trkpt>
      <trkpt lat="47.58197" lon="-0.61112">
        <ele>39.55</ele>
        <time>2014-03-16T10:06:31Z</time>
      </trkpt>
      <trkpt lat="47.58193" lon="-0.61102">
        <ele>39.55</ele>
        <time>2014-03-16T10:06:32Z</time>
      </trkpt>
      <trkpt lat="47.58181" lon="-0.61074">
        <ele>37.63</ele>
        <time>2014-03-16T10:06:35Z</time>
      </trkpt>
      <trkpt lat="47.58173" lon="-0.61054">
        <ele>36.67</ele>
        <time>2014-03-16T10:06:37Z</time>
      </trkpt>
      <trkpt lat="47.58139" lon="-0.60968">
        <ele>33.3</ele>
        <time>2014-03-16T10:06:44Z</time>
      </trkpt>
      <trkpt lat="47.58122" lon="-0.60926">
        <ele>30.9</ele>
        <time>2014-03-16T10:06:48Z</time>
      </trkpt>
      <trkpt lat="47.58117" lon="-0.60909">
        <ele>29.94</ele>
        <time>2014-03-16T10:06:50Z</time>
      </trkpt>
      <trkpt lat="47.58105" lon="-0.60872">
        <ele>28.98</ele>
        <time>2014-03-16T10:06:55Z</time>
      </trkpt>
      <trkpt lat="47.58087" lon="-0.6082">
        <ele>27.53</ele>
        <time>2014-03-16T10:07:00Z</time>
      </trkpt>
      <trkpt lat="47.58069" lon="-0.60769">
        <ele>26.57</ele>
        <time>2014-03-16T10:07:05Z</time>
      </trkpt>
      <trkpt lat="47.58061" lon="-0.60713">
        <ele>24.65</ele>
        <time>2014-03-16T10:07:11Z</time>
      </trkpt>
      <trkpt lat="47.58064" lon="-0.60675">
        <ele>25.13</ele>
        <time>2014-03-16T10:07:16Z</time>
      </trkpt>
      <trkpt lat="47.58077" lon="-0.60652">
        <ele>26.09</ele>
        <time>2014-03-16T10:07:21Z</time>
      </trkpt>
      <trkpt lat="47.58103" lon="-0.60645">
        <ele>27.53</ele>
        <time>2014-03-16T10:07:28Z</time>
      </trkpt>
      <trkpt lat="47.58109" lon="-0.60643">
        <ele>28.5</ele>
        <time>2014-03-16T10:07:30Z</time>
      </trkpt>
      <trkpt lat="47.58107" lon="-0.60632">
        <ele>28.98</ele>
        <time>2014-03-16T10:07:34Z</time>
      </trkpt>
      <trkpt lat="47.58102" lon="-0.60622">
        <ele>29.94</ele>
        <time>2014-03-16T10:07:38Z</time>
      </trkpt>
      <trkpt lat="47.58095" lon="-0.60602">
        <ele>31.86</ele>
        <time>2014-03-16T10:07:46Z</time>
      </trkpt>
      <trkpt lat="47.58084" lon="-0.60582">
        <ele>33.3</ele>
        <time>2014-03-16T10:07:55Z</time>
      </trkpt>
      <trkpt lat="47.58073" lon="-0.60566">
        <ele>34.26</ele>
        <time>2014-03-16T10:08:04Z</time>
      </trkpt>
      <trkpt lat="47.58063" lon="-0.60559">
        <ele>35.23</ele>
        <time>2014-03-16T10:08:11Z</time>
      </trkpt>
      <trkpt lat="47.58052" lon="-0.60554">
        <ele>36.67</ele>
        <time>2014-03-16T10:08:18Z</time>
      </trkpt>
      <trkpt lat="47.58039" lon="-0.6055">
        <ele>37.63</ele>
        <time>2014-03-16T10:08:25Z</time>
      </trkpt>
      <trkpt lat="47.58018" lon="-0.60544">
        <ele>39.55</ele>
        <time>2014-03-16T10:08:37Z</time>
      </trkpt>
      <trkpt lat="47.58004" lon="-0.6054">
        <ele>40.51</ele>
        <time>2014-03-16T10:08:44Z</time>
      </trkpt>
      <trkpt lat="47.5799" lon="-0.60535">
        <ele>41.95</ele>
        <time>2014-03-16T10:08:51Z</time>
      </trkpt>
      <trkpt lat="47.57977" lon="-0.6053">
        <ele>43.4</ele>
        <time>2014-03-16T10:08:59Z</time>
      </trkpt>
      <trkpt lat="47.57959" lon="-0.60526">
        <ele>44.36</ele>
        <time>2014-03-16T10:09:09Z</time>
      </trkpt>
      <trkpt lat="47.57944" lon="-0.60517">
        <ele>45.32</ele>
        <time>2014-03-16T10:09:18Z</time>
      </trkpt>
      <trkpt lat="47.57932" lon="-0.60502">
        <ele>46.76</ele>
        <time>2014-03-16T10:09:26Z</time>
      </trkpt>
      <trkpt lat="47.57916" lon="-0.60481">
        <ele>48.68</ele>
        <time>2014-03-16T10:09:36Z</time>
      </trkpt>
      <trkpt lat="47.57904" lon="-0.60466">
        <ele>49.65</ele>
        <time>2014-03-16T10:09:44Z</time>
      </trkpt>
      <trkpt lat="47.57889" lon="-0.60447">
        <ele>51.09</ele>
        <time>2014-03-16T10:09:54Z</time>
      </trkpt>
      <trkpt lat="47.57882" lon="-0.60436">
        <ele>51.57</ele>
        <time>2014-03-16T10:09:59Z</time>
      </trkpt>
      <trkpt lat="47.57871" lon="-0.60419">
        <ele>52.05</ele>
        <time>2014-03-16T10:10:06Z</time>
      </trkpt>
      <trkpt lat="47.57853" lon="-0.60389">
        <ele>52.53</ele>
        <time>2014-03-16T10:10:16Z</time>
      </trkpt>
      <trkpt lat="47.5784" lon="-0.60369">
        <ele>52.53</ele>
        <time>2014-03-16T10:10:22Z</time>
      </trkpt>
      <trkpt lat="47.5782" lon="-0.60335">
        <ele>52.53</ele>
        <time>2014-03-16T10:10:30Z</time>
      </trkpt>
      <trkpt lat="47.57799" lon="-0.60299">
        <ele>52.53</ele>
        <time>2014-03-16T10:10:38Z</time>
      </trkpt>
      <trkpt lat="47.57776" lon="-0.60245">
        <ele>53.97</ele>
        <time>2014-03-16T10:10:49Z</time>
      </trkpt>
      <trkpt lat="47.57757" lon="-0.60203">
        <ele>54.93</ele>
        <time>2014-03-16T10:10:58Z</time>
      </trkpt>
      <trkpt lat="47.57734" lon="-0.60159">
        <ele>55.41</ele>
        <time>2014-03-16T10:11:08Z</time>
      </trkpt>
      <trkpt lat="47.57708" lon="-0.60119">
        <ele>56.86</ele>
        <time>2014-03-16T10:11:18Z</time>
      </trkpt>
      <trkpt lat="47.57685" lon="-0.60088">
        <ele>56.86</ele>
        <time>2014-03-16T10:11:26Z</time>
      </trkpt>
      <trkpt lat="47.57682" lon="-0.60084">
        <ele>56.86</ele>
        <time>2014-03-16T10:11:27Z</time>
      </trkpt>
      <trkpt lat="47.57657" lon="-0.60052">
        <ele>56.37</ele>
        <time>2014-03-16T10:11:35Z</time>
      </trkpt>
      <trkpt lat="47.57623" lon="-0.6001">
        <ele>56.86</ele>
        <time>2014-03-16T10:11:45Z</time>
      </trkpt>
      <trkpt lat="47.5759" lon="-0.59968">
        <ele>56.37</ele>
        <time>2014-03-16T10:11:54Z</time>
      </trkpt>
      <trkpt lat="47.57572" lon="-0.59944">
        <ele>55.89</ele>
        <time>2014-03-16T10:12:00Z</time>
      </trkpt>
      <trkpt lat="47.57551" lon="-0.59927">
        <ele>55.41</ele>
        <time>2014-03-16T10:12:08Z</time>
      </trkpt>
      <trkpt lat="47.57537" lon="-0.59939">
        <ele>54.93</ele>
        <time>2014-03-16T10:12:13Z</time>
      </trkpt>
      <trkpt lat="47.57534" lon="-0.59944">
        <ele>54.93</ele>
        <time>2014-03-16T10:12:14Z</time>
      </trkpt>
      <trkpt lat="47.57503" lon="-0.59982">
        <ele>53.01</ele>
        <time>2014-03-16T10:12:22Z</time>
      </trkpt>
      <trkpt lat="47.57499" lon="-0.59988">
        <ele>53.01</ele>
        <time>2014-03-16T10:12:23Z</time>
      </trkpt>
      <trkpt lat="47.5749" lon="-0.59997">
        <ele>48.68</ele>
        <time>2014-03-16T10:12:25Z</time>
      </trkpt>
      <trkpt lat="47.57485" lon="-0.60001">
        <ele>52.53</ele>
        <time>2014-03-16T10:12:26Z</time>
      </trkpt>
      <trkpt lat="47.5747" lon="-0.60015">
        <ele>51.09</ele>
        <time>2014-03-16T10:12:29Z</time>
      </trkpt>
      <trkpt lat="47.57435" lon="-0.60047">
        <ele>47.72</ele>
        <time>2014-03-16T10:12:35Z</time>
      </trkpt>
      <trkpt lat="47.57412" lon="-0.60053">
        <ele>47.24</ele>
        <time>2014-03-16T10:12:40Z</time>
      </trkpt>
      <trkpt lat="47.57409" lon="-0.60049">
        <ele>46.76</ele>
        <time>2014-03-16T10:12:41Z</time>
      </trkpt>
      <trkpt lat="47.57403" lon="-0.6004">
        <ele>47.24</ele>
        <time>2014-03-16T10:12:43Z</time>
      </trkpt>
      <trkpt lat="47.57378" lon="-0.59992">
        <ele>47.72</ele>
        <time>2014-03-16T10:12:53Z</time>
      </trkpt>
      <trkpt lat="47.57355" lon="-0.59947">
        <ele>48.68</ele>
        <time>2014-03-16T10:13:03Z</time>
      </trkpt>
      <trkpt lat="47.57341" lon="-0.5992">
        <ele>48.68</ele>
        <time>2014-03-16T10:13:09Z</time>
      </trkpt>
      <trkpt lat="47.57332" lon="-0.59894">
        <ele>49.16</ele>
        <time>2014-03-16T10:13:15Z</time>
      </trkpt>
      <trkpt lat="47.57325" lon="-0.59872">
        <ele>49.65</ele>
        <time>2014-03-16T10:13:20Z</time>
      </trkpt>
      <trkpt lat="47.57321" lon="-0.59847">
        <ele>49.16</ele>
        <time>2014-03-16T10:13:26Z</time>
      </trkpt>
      <trkpt lat="47.57318" lon="-0.59837">
        <ele>49.65</ele>
        <time>2014-03-16T10:13:29Z</time>
      </trkpt>
      <trkpt lat="47.57316" lon="-0.59807">
        <ele>50.13</ele>
        <time>2014-03-16T10:13:37Z</time>
      </trkpt>
      <trkpt lat="47.57312" lon="-0.59788">
        <ele>49.65</ele>
        <time>2014-03-16T10:13:43Z</time>
      </trkpt>
      <trkpt lat="47.57311" lon="-0.59786">
        <ele>49.65</ele>
        <time>2014-03-16T10:13:44Z</time>
      </trkpt>
      <trkpt lat="47.57299" lon="-0.59784">
        <ele>49.65</ele>
        <time>2014-03-16T10:13:49Z</time>
      </trkpt>
      <trkpt lat="47.5729" lon="-0.59791">
        <ele>48.68</ele>
        <time>2014-03-16T10:13:52Z</time>
      </trkpt>
      <trkpt lat="47.57274" lon="-0.59802">
        <ele>48.2</ele>
        <time>2014-03-16T10:13:56Z</time>
      </trkpt>
      <trkpt lat="47.5726" lon="-0.59811">
        <ele>47.24</ele>
        <time>2014-03-16T10:13:59Z</time>
      </trkpt>
      <trkpt lat="47.57241" lon="-0.59826">
        <ele>47.24</ele>
        <time>2014-03-16T10:14:03Z</time>
      </trkpt>
      <trkpt lat="47.57217" lon="-0.59844">
        <ele>46.76</ele>
        <time>2014-03-16T10:14:08Z</time>
      </trkpt>
      <trkpt lat="47.57189" lon="-0.59846">
        <ele>45.32</ele>
        <time>2014-03-16T10:14:13Z</time>
      </trkpt>
      <trkpt lat="47.5718" lon="-0.59839">
        <ele>45.32</ele>
        <time>2014-03-16T10:14:15Z</time>
      </trkpt>
      <trkpt lat="47.57142" lon="-0.59793">
        <ele>45.32</ele>
        <time>2014-03-16T10:14:24Z</time>
      </trkpt>
      <trkpt lat="47.57115" lon="-0.59766">
        <ele>45.8</ele>
        <time>2014-03-16T10:14:30Z</time>
      </trkpt>
      <trkpt lat="47.57097" lon="-0.5975">
        <ele>45.32</ele>
        <time>2014-03-16T10:14:34Z</time>
      </trkpt>
      <trkpt lat="47.57049" lon="-0.59708">
        <ele>46.28</ele>
        <time>2014-03-16T10:14:45Z</time>
      </trkpt>
      <trkpt lat="47.57032" lon="-0.5969">
        <ele>46.28</ele>
        <time>2014-03-16T10:14:49Z</time>
      </trkpt>
      <trkpt lat="47.56999" lon="-0.59644">
        <ele>46.28</ele>
        <time>2014-03-16T10:14:58Z</time>
      </trkpt>
      <trkpt lat="47.56968" lon="-0.59591">
        <ele>46.28</ele>
        <time>2014-03-16T10:15:09Z</time>
      </trkpt>
      <trkpt lat="47.56966" lon="-0.59589">
        <ele>45.8</ele>
        <time>2014-03-16T10:15:10Z</time>
      </trkpt>
      <trkpt lat="47.56956" lon="-0.59595">
        <ele>45.32</ele>
        <time>2014-03-16T10:15:16Z</time>
      </trkpt>
      <trkpt lat="47.56954" lon="-0.596">
        <ele>45.8</ele>
        <time>2014-03-16T10:15:17Z</time>
      </trkpt>
      <trkpt lat="47.56935" lon="-0.59654">
        <ele>45.32</ele>
        <time>2014-03-16T10:15:25Z</time>
      </trkpt>
      <trkpt lat="47.56911" lon="-0.59719">
        <ele>44.36</ele>
        <time>2014-03-16T10:15:34Z</time>
      </trkpt>
      <trkpt lat="47.56891" lon="-0.59784">
        <ele>43.88</ele>
        <time>2014-03-16T10:15:43Z</time>
      </trkpt>
      <trkpt lat="47.56884" lon="-0.59807">
        <ele>42.92</ele>
        <time>2014-03-16T10:15:46Z</time>
      </trkpt>
      <trkpt lat="47.56865" lon="-0.59875">
        <ele>41.95</ele>
        <time>2014-03-16T10:15:55Z</time>
      </trkpt>
      <trkpt lat="47.56853" lon="-0.59926">
        <ele>41.95</ele>
        <time>2014-03-16T10:16:01Z</time>
      </trkpt>
      <trkpt lat="47.56845" lon="-0.59941">
        <ele>41.95</ele>
        <time>2014-03-16T10:16:03Z</time>
      </trkpt>
      <trkpt lat="47.56828" lon="-0.6">
        <ele>41.47</ele>
        <time>2014-03-16T10:16:10Z</time>
      </trkpt>
      <trkpt lat="47.56802" lon="-0.60078">
        <ele>40.51</ele>
        <time>2014-03-16T10:16:19Z</time>
      </trkpt>
      <trkpt lat="47.56774" lon="-0.60154">
        <ele>40.03</ele>
        <time>2014-03-16T10:16:28Z</time>
      </trkpt>
      <trkpt lat="47.56746" lon="-0.602">
        <ele>40.03</ele>
        <time>2014-03-16T10:16:35Z</time>
      </trkpt>
      <trkpt lat="47.56736" lon="-0.60211">
        <ele>40.51</ele>
        <time>2014-03-16T10:16:37Z</time>
      </trkpt>
      <trkpt lat="47.5671" lon="-0.60218">
        <ele>41.47</ele>
        <time>2014-03-16T10:16:42Z</time>
      </trkpt>
      <trkpt lat="47.56669" lon="-0.60209">
        <ele>42.44</ele>
        <time>2014-03-16T10:16:50Z</time>
      </trkpt>
      <trkpt lat="47.56639" lon="-0.60201">
        <ele>42.92</ele>
        <time>2014-03-16T10:16:57Z</time>
      </trkpt>
      <trkpt lat="47.56605" lon="-0.60196">
        <ele>43.4</ele>
        <time>2014-03-16T10:17:05Z</time>
      </trkpt>
      <trkpt lat="47.56567" lon="-0.60193">
        <ele>44.36</ele>
        <time>2014-03-16T10:17:14Z</time>
      </trkpt>
      <trkpt lat="47.56559" lon="-0.60192">
        <ele>44.36</ele>
        <time>2014-03-16T10:17:16Z</time>
      </trkpt>
      <trkpt lat="47.56528" lon="-0.60186">
        <ele>44.36</ele>
        <time>2014-03-16T10:17:23Z</time>
      </trkpt>
      <trkpt lat="47.56506" lon="-0.60183">
        <ele>43.88</ele>
        <time>2014-03-16T10:17:29Z</time>
      </trkpt>
      <trkpt lat="47.56502" lon="-0.60183">
        <ele>43.88</ele>
        <time>2014-03-16T10:17:30Z</time>
      </trkpt>
      <trkpt lat="47.56463" lon="-0.60186">
        <ele>44.36</ele>
        <time>2014-03-16T10:17:40Z</time>
      </trkpt>
      <trkpt lat="47.56434" lon="-0.60186">
        <ele>43.88</ele>
        <time>2014-03-16T10:17:47Z</time>
      </trkpt>
      <trkpt lat="47.56403" lon="-0.60182">
        <ele>44.36</ele>
        <time>2014-03-16T10:17:54Z</time>
      </trkpt>
      <trkpt lat="47.56376" lon="-0.6017">
        <ele>43.88</ele>
        <time>2014-03-16T10:18:00Z</time>
      </trkpt>
      <trkpt lat="47.56355" lon="-0.60164">
        <ele>43.88</ele>
        <time>2014-03-16T10:18:05Z</time>
      </trkpt>
      <trkpt lat="47.56345" lon="-0.60161">
        <ele>43.4</ele>
        <time>2014-03-16T10:18:07Z</time>
      </trkpt>
      <trkpt lat="47.5633" lon="-0.60144">
        <ele>43.4</ele>
        <time>2014-03-16T10:18:11Z</time>
      </trkpt>
      <trkpt lat="47.56323" lon="-0.60126">
        <ele>43.4</ele>
        <time>2014-03-16T10:18:14Z</time>
      </trkpt>
      <trkpt lat="47.56309" lon="-0.60111">
        <ele>43.4</ele>
        <time>2014-03-16T10:18:18Z</time>
      </trkpt>
      <trkpt lat="47.56289" lon="-0.60104">
        <ele>42.44</ele>
        <time>2014-03-16T10:18:22Z</time>
      </trkpt>
      <trkpt lat="47.56279" lon="-0.60101">
        <ele>42.92</ele>
        <time>2014-03-16T10:18:24Z</time>
      </trkpt>
      <trkpt lat="47.56242" lon="-0.60088">
        <ele>41.95</ele>
        <time>2014-03-16T10:18:31Z</time>
      </trkpt>
      <trkpt lat="47.56217" lon="-0.60078">
        <ele>40.99</ele>
        <time>2014-03-16T10:18:36Z</time>
      </trkpt>
      <trkpt lat="47.56203" lon="-0.60073">
        <ele>40.51</ele>
        <time>2014-03-16T10:18:39Z</time>
      </trkpt>
      <trkpt lat="47.56188" lon="-0.60068">
        <ele>40.03</ele>
        <time>2014-03-16T10:18:42Z</time>
      </trkpt>
      <trkpt lat="47.56169" lon="-0.60063">
        <ele>39.55</ele>
        <time>2014-03-16T10:18:46Z</time>
      </trkpt>
      <trkpt lat="47.5615" lon="-0.60043">
        <ele>40.03</ele>
        <time>2014-03-16T10:18:51Z</time>
      </trkpt>
      <trkpt lat="47.56149" lon="-0.60036">
        <ele>40.03</ele>
        <time>2014-03-16T10:18:52Z</time>
      </trkpt>
      <trkpt lat="47.56147" lon="-0.59989">
        <ele>40.51</ele>
        <time>2014-03-16T10:18:59Z</time>
      </trkpt>
      <trkpt lat="47.56146" lon="-0.59967">
        <ele>40.03</ele>
        <time>2014-03-16T10:19:02Z</time>
      </trkpt>
      <trkpt lat="47.56142" lon="-0.59922">
        <ele>40.51</ele>
        <time>2014-03-16T10:19:09Z</time>
      </trkpt>
      <trkpt lat="47.56139" lon="-0.59898">
        <ele>40.03</ele>
        <time>2014-03-16T10:19:15Z</time>
      </trkpt>
      <trkpt lat="47.5614" lon="-0.59885">
        <ele>40.99</ele>
        <time>2014-03-16T10:19:21Z</time>
      </trkpt>
      <trkpt lat="47.5614" lon="-0.59885">
        <ele>40.51</ele>
        <time>2014-03-16T10:19:28Z</time>
      </trkpt>
      <trkpt lat="47.5614" lon="-0.59885">
        <ele>40.99</ele>
        <time>2014-03-16T10:19:39Z</time>
      </trkpt>
      <trkpt lat="47.5614" lon="-0.59885">
        <ele>40.99</ele>
        <time>2014-03-16T10:19:49Z</time>
      </trkpt>
      <trkpt lat="47.5614" lon="-0.59884">
        <ele>40.51</ele>
        <time>2014-03-16T10:20:06Z</time>
      </trkpt>
      <trkpt lat="47.5614" lon="-0.59884">
        <ele>40.99</ele>
        <time>2014-03-16T10:20:16Z</time>
      </trkpt>
      <trkpt lat="47.56139" lon="-0.5988">
        <ele>40.99</ele>
        <time>2014-03-16T10:20:26Z</time>
      </trkpt>
      <trkpt lat="47.56138" lon="-0.5988">
        <ele>40.99</ele>
        <time>2014-03-16T10:20:30Z</time>
      </trkpt>
      <trkpt lat="47.56125" lon="-0.59883">
        <ele>40.99</ele>
        <time>2014-03-16T10:20:36Z</time>
      </trkpt>
      <trkpt lat="47.5611" lon="-0.59889">
        <ele>41.47</ele>
        <time>2014-03-16T10:20:40Z</time>
      </trkpt>
      <trkpt lat="47.56068" lon="-0.59909">
        <ele>41.95</ele>
        <time>2014-03-16T10:20:48Z</time>
      </trkpt>
      <trkpt lat="47.56005" lon="-0.59942">
        <ele>41.47</ele>
        <time>2014-03-16T10:20:58Z</time>
      </trkpt>
      <trkpt lat="47.55941" lon="-0.59977">
        <ele>40.03</ele>
        <time>2014-03-16T10:21:08Z</time>
      </trkpt>
      <trkpt lat="47.55867" lon="-0.60017">
        <ele>39.07</ele>
        <time>2014-03-16T10:21:19Z</time>
      </trkpt>
      <trkpt lat="47.55788" lon="-0.60058">
        <ele>38.11</ele>
        <time>2014-03-16T10:21:30Z</time>
      </trkpt>
      <trkpt lat="47.55705" lon="-0.60103">
        <ele>36.67</ele>
        <time>2014-03-16T10:21:41Z</time>
      </trkpt>
      <trkpt lat="47.55648" lon="-0.60133">
        <ele>35.71</ele>
        <time>2014-03-16T10:21:49Z</time>
      </trkpt>
      <trkpt lat="47.55577" lon="-0.60172">
        <ele>35.23</ele>
        <time>2014-03-16T10:22:00Z</time>
      </trkpt>
      <trkpt lat="47.55491" lon="-0.60218">
        <ele>34.26</ele>
        <time>2014-03-16T10:22:13Z</time>
      </trkpt>
      <trkpt lat="47.55422" lon="-0.60253">
        <ele>36.19</ele>
        <time>2014-03-16T10:22:23Z</time>
      </trkpt>
      <trkpt lat="47.55368" lon="-0.60284">
        <ele>35.23</ele>
        <time>2014-03-16T10:22:31Z</time>
      </trkpt>
      <trkpt lat="47.55291" lon="-0.60325">
        <ele>34.74</ele>
        <time>2014-03-16T10:22:43Z</time>
      </trkpt>
      <trkpt lat="47.55222" lon="-0.60363">
        <ele>34.26</ele>
        <time>2014-03-16T10:22:54Z</time>
      </trkpt>
      <trkpt lat="47.55162" lon="-0.60395">
        <ele>34.74</ele>
        <time>2014-03-16T10:23:04Z</time>
      </trkpt>
      <trkpt lat="47.55096" lon="-0.6043">
        <ele>33.78</ele>
        <time>2014-03-16T10:23:15Z</time>
      </trkpt>
      <trkpt lat="47.5503" lon="-0.60465">
        <ele>33.3</ele>
        <time>2014-03-16T10:23:26Z</time>
      </trkpt>
      <trkpt lat="47.54965" lon="-0.605">
        <ele>33.78</ele>
        <time>2014-03-16T10:23:37Z</time>
      </trkpt>
      <trkpt lat="47.54893" lon="-0.60538">
        <ele>33.3</ele>
        <time>2014-03-16T10:23:49Z</time>
      </trkpt>
      <trkpt lat="47.54833" lon="-0.6057">
        <ele>32.34</ele>
        <time>2014-03-16T10:23:59Z</time>
      </trkpt>
      <trkpt lat="47.54821" lon="-0.60577">
        <ele>33.3</ele>
        <time>2014-03-16T10:24:01Z</time>
      </trkpt>
      <trkpt lat="47.54774" lon="-0.60606">
        <ele>32.34</ele>
        <time>2014-03-16T10:24:09Z</time>
      </trkpt>
      <trkpt lat="47.5471" lon="-0.6064">
        <ele>31.38</ele>
        <time>2014-03-16T10:24:20Z</time>
      </trkpt>
      <trkpt lat="47.54646" lon="-0.60674">
        <ele>30.42</ele>
        <time>2014-03-16T10:24:31Z</time>
      </trkpt>
      <trkpt lat="47.54598" lon="-0.60699">
        <ele>29.94</ele>
        <time>2014-03-16T10:24:39Z</time>
      </trkpt>
      <trkpt lat="47.54534" lon="-0.60736">
        <ele>27.53</ele>
        <time>2014-03-16T10:24:49Z</time>
      </trkpt>
      <trkpt lat="47.54478" lon="-0.60767">
        <ele>26.09</ele>
        <time>2014-03-16T10:24:58Z</time>
      </trkpt>
      <trkpt lat="47.54426" lon="-0.60793">
        <ele>25.61</ele>
        <time>2014-03-16T10:25:06Z</time>
      </trkpt>
      <trkpt lat="47.54376" lon="-0.60819">
        <ele>25.61</ele>
        <time>2014-03-16T10:25:14Z</time>
      </trkpt>
      <trkpt lat="47.54325" lon="-0.60848">
        <ele>25.13</ele>
        <time>2014-03-16T10:25:23Z</time>
      </trkpt>
      <trkpt lat="47.5432" lon="-0.60852">
        <ele>24.65</ele>
        <time>2014-03-16T10:25:24Z</time>
      </trkpt>
      <trkpt lat="47.54266" lon="-0.60882">
        <ele>25.13</ele>
        <time>2014-03-16T10:25:34Z</time>
      </trkpt>
      <trkpt lat="47.54212" lon="-0.60911">
        <ele>24.65</ele>
        <time>2014-03-16T10:25:44Z</time>
      </trkpt>
      <trkpt lat="47.54162" lon="-0.60937">
        <ele>24.65</ele>
        <time>2014-03-16T10:25:53Z</time>
      </trkpt>
      <trkpt lat="47.54123" lon="-0.60958">
        <ele>24.65</ele>
        <time>2014-03-16T10:26:00Z</time>
      </trkpt>
      <trkpt lat="47.54089" lon="-0.60976">
        <ele>24.17</ele>
        <time>2014-03-16T10:26:06Z</time>
      </trkpt>
      <trkpt lat="47.54046" lon="-0.61022">
        <ele>24.17</ele>
        <time>2014-03-16T10:26:15Z</time>
      </trkpt>
      <trkpt lat="47.54032" lon="-0.6105">
        <ele>24.17</ele>
        <time>2014-03-16T10:26:19Z</time>
      </trkpt>
      <trkpt lat="47.54017" lon="-0.61124">
        <ele>25.13</ele>
        <time>2014-03-16T10:26:28Z</time>
      </trkpt>
      <trkpt lat="47.54017" lon="-0.61132">
        <ele>24.65</ele>
        <time>2014-03-16T10:26:29Z</time>
      </trkpt>
      <trkpt lat="47.54019" lon="-0.61165">
        <ele>25.13</ele>
        <time>2014-03-16T10:26:33Z</time>
      </trkpt>
      <trkpt lat="47.54015" lon="-0.61203">
        <ele>25.13</ele>
        <time>2014-03-16T10:26:38Z</time>
      </trkpt>
      <trkpt lat="47.5401" lon="-0.61276">
        <ele>26.09</ele>
        <time>2014-03-16T10:26:48Z</time>
      </trkpt>
      <trkpt lat="47.54007" lon="-0.61342">
        <ele>27.53</ele>
        <time>2014-03-16T10:26:58Z</time>
      </trkpt>
      <trkpt lat="47.54004" lon="-0.61417">
        <ele>27.53</ele>
        <time>2014-03-16T10:27:09Z</time>
      </trkpt>
      <trkpt lat="47.54" lon="-0.61488">
        <ele>26.09</ele>
        <time>2014-03-16T10:27:18Z</time>
      </trkpt>
      <trkpt lat="47.53999" lon="-0.61504">
        <ele>26.09</ele>
        <time>2014-03-16T10:27:20Z</time>
      </trkpt>
      <trkpt lat="47.53991" lon="-0.61542">
        <ele>25.13</ele>
        <time>2014-03-16T10:27:25Z</time>
      </trkpt>
      <trkpt lat="47.53995" lon="-0.61572">
        <ele>25.13</ele>
        <time>2014-03-16T10:27:30Z</time>
      </trkpt>
      <trkpt lat="47.54005" lon="-0.61583">
        <ele>24.65</ele>
        <time>2014-03-16T10:27:36Z</time>
      </trkpt>
      <trkpt lat="47.54012" lon="-0.61585">
        <ele>24.17</ele>
        <time>2014-03-16T10:27:38Z</time>
      </trkpt>
      <trkpt lat="47.54047" lon="-0.61575">
        <ele>25.13</ele>
        <time>2014-03-16T10:27:46Z</time>
      </trkpt>
      <trkpt lat="47.54087" lon="-0.61561">
        <ele>24.65</ele>
        <time>2014-03-16T10:27:54Z</time>
      </trkpt>
      <trkpt lat="47.54117" lon="-0.61572">
        <ele>24.65</ele>
        <time>2014-03-16T10:28:00Z</time>
      </trkpt>
      <trkpt lat="47.54164" lon="-0.61612">
        <ele>24.17</ele>
        <time>2014-03-16T10:28:09Z</time>
      </trkpt>
      <trkpt lat="47.54211" lon="-0.61639">
        <ele>23.21</ele>
        <time>2014-03-16T10:28:17Z</time>
      </trkpt>
      <trkpt lat="47.54217" lon="-0.61642">
        <ele>23.69</ele>
        <time>2014-03-16T10:28:18Z</time>
      </trkpt>
      <trkpt lat="47.54252" lon="-0.61657">
        <ele>23.69</ele>
        <time>2014-03-16T10:28:24Z</time>
      </trkpt>
      <trkpt lat="47.54308" lon="-0.61683">
        <ele>23.69</ele>
        <time>2014-03-16T10:28:34Z</time>
      </trkpt>
      <trkpt lat="47.54325" lon="-0.61691">
        <ele>23.21</ele>
        <time>2014-03-16T10:28:37Z</time>
      </trkpt>
      <trkpt lat="47.54361" lon="-0.61706">
        <ele>23.21</ele>
        <time>2014-03-16T10:28:44Z</time>
      </trkpt>
      <trkpt lat="47.54388" lon="-0.61737">
        <ele>23.21</ele>
        <time>2014-03-16T10:28:50Z</time>
      </trkpt>
      <trkpt lat="47.54391" lon="-0.61769">
        <ele>23.69</ele>
        <time>2014-03-16T10:28:54Z</time>
      </trkpt>
      <trkpt lat="47.54384" lon="-0.61847">
        <ele>23.69</ele>
        <time>2014-03-16T10:29:03Z</time>
      </trkpt>
      <trkpt lat="47.54372" lon="-0.61905">
        <ele>23.21</ele>
        <time>2014-03-16T10:29:10Z</time>
      </trkpt>
      <trkpt lat="47.54371" lon="-0.61921">
        <ele>23.21</ele>
        <time>2014-03-16T10:29:12Z</time>
      </trkpt>
      <trkpt lat="47.54371" lon="-0.61967">
        <ele>24.65</ele>
        <time>2014-03-16T10:29:18Z</time>
      </trkpt>
      <trkpt lat="47.54361" lon="-0.62035">
        <ele>24.65</ele>
        <time>2014-03-16T10:29:28Z</time>
      </trkpt>
      <trkpt lat="47.5436" lon="-0.62041">
        <ele>24.65</ele>
        <time>2014-03-16T10:29:29Z</time>
      </trkpt>
      <trkpt lat="47.54356" lon="-0.62102">
        <ele>24.65</ele>
        <time>2014-03-16T10:29:38Z</time>
      </trkpt>
      <trkpt lat="47.54354" lon="-0.62154">
        <ele>25.61</ele>
        <time>2014-03-16T10:29:46Z</time>
      </trkpt>
      <trkpt lat="47.54354" lon="-0.62182">
        <ele>26.09</ele>
        <time>2014-03-16T10:29:50Z</time>
      </trkpt>
      <trkpt lat="47.54355" lon="-0.62208">
        <ele>26.09</ele>
        <time>2014-03-16T10:29:54Z</time>
      </trkpt>
      <trkpt lat="47.54357" lon="-0.62276">
        <ele>26.09</ele>
        <time>2014-03-16T10:30:04Z</time>
      </trkpt>
      <trkpt lat="47.54358" lon="-0.62332">
        <ele>26.57</ele>
        <time>2014-03-16T10:30:12Z</time>
      </trkpt>
      <trkpt lat="47.54358" lon="-0.62351">
        <ele>27.05</ele>
        <time>2014-03-16T10:30:15Z</time>
      </trkpt>
      <trkpt lat="47.54359" lon="-0.62364">
        <ele>27.05</ele>
        <time>2014-03-16T10:30:17Z</time>
      </trkpt>
      <trkpt lat="47.54371" lon="-0.62421">
        <ele>28.02</ele>
        <time>2014-03-16T10:30:26Z</time>
      </trkpt>
      <trkpt lat="47.54384" lon="-0.6247">
        <ele>28.5</ele>
        <time>2014-03-16T10:30:34Z</time>
      </trkpt>
      <trkpt lat="47.54394" lon="-0.62524">
        <ele>29.46</ele>
        <time>2014-03-16T10:30:43Z</time>
      </trkpt>
      <trkpt lat="47.54388" lon="-0.62578">
        <ele>30.42</ele>
        <time>2014-03-16T10:30:52Z</time>
      </trkpt>
      <trkpt lat="47.54383" lon="-0.62605">
        <ele>30.42</ele>
        <time>2014-03-16T10:30:57Z</time>
      </trkpt>
      <trkpt lat="47.54381" lon="-0.62638">
        <ele>30.9</ele>
        <time>2014-03-16T10:31:03Z</time>
      </trkpt>
      <trkpt lat="47.54379" lon="-0.6268">
        <ele>31.38</ele>
        <time>2014-03-16T10:31:11Z</time>
      </trkpt>
      <trkpt lat="47.54372" lon="-0.62734">
        <ele>32.82</ele>
        <time>2014-03-16T10:31:22Z</time>
      </trkpt>
      <trkpt lat="47.5436" lon="-0.62769">
        <ele>33.78</ele>
        <time>2014-03-16T10:31:30Z</time>
      </trkpt>
      <trkpt lat="47.54348" lon="-0.628">
        <ele>34.26</ele>
        <time>2014-03-16T10:31:37Z</time>
      </trkpt>
      <trkpt lat="47.54331" lon="-0.62844">
        <ele>35.71</ele>
        <time>2014-03-16T10:31:47Z</time>
      </trkpt>
      <trkpt lat="47.54313" lon="-0.62891">
        <ele>36.19</ele>
        <time>2014-03-16T10:31:57Z</time>
      </trkpt>
      <trkpt lat="47.54297" lon="-0.62931">
        <ele>37.15</ele>
        <time>2014-03-16T10:32:06Z</time>
      </trkpt>
      <trkpt lat="47.54283" lon="-0.62969">
        <ele>37.63</ele>
        <time>2014-03-16T10:32:15Z</time>
      </trkpt>
      <trkpt lat="47.5427" lon="-0.63009">
        <ele>39.55</ele>
        <time>2014-03-16T10:32:25Z</time>
      </trkpt>
      <trkpt lat="47.5426" lon="-0.63043">
        <ele>40.99</ele>
        <time>2014-03-16T10:32:33Z</time>
      </trkpt>
      <trkpt lat="47.54255" lon="-0.63071">
        <ele>41.95</ele>
        <time>2014-03-16T10:32:41Z</time>
      </trkpt>
      <trkpt lat="47.54248" lon="-0.63105">
        <ele>42.92</ele>
        <time>2014-03-16T10:32:50Z</time>
      </trkpt>
      <trkpt lat="47.54241" lon="-0.63136">
        <ele>44.36</ele>
        <time>2014-03-16T10:32:59Z</time>
      </trkpt>
      <trkpt lat="47.54237" lon="-0.6316">
        <ele>44.84</ele>
        <time>2014-03-16T10:33:05Z</time>
      </trkpt>
      <trkpt lat="47.54232" lon="-0.63186">
        <ele>45.32</ele>
        <time>2014-03-16T10:33:12Z</time>
      </trkpt>
      <trkpt lat="47.54226" lon="-0.63212">
        <ele>46.76</ele>
        <time>2014-03-16T10:33:20Z</time>
      </trkpt>
      <trkpt lat="47.54221" lon="-0.63236">
        <ele>47.24</ele>
        <time>2014-03-16T10:33:27Z</time>
      </trkpt>
      <trkpt lat="47.54217" lon="-0.63262">
        <ele>48.2</ele>
        <time>2014-03-16T10:33:34Z</time>
      </trkpt>
      <trkpt lat="47.54213" lon="-0.63283">
        <ele>49.16</ele>
        <time>2014-03-16T10:33:40Z</time>
      </trkpt>
      <trkpt lat="47.54207" lon="-0.6331">
        <ele>50.13</ele>
        <time>2014-03-16T10:33:47Z</time>
      </trkpt>
      <trkpt lat="47.54203" lon="-0.6333">
        <ele>50.61</ele>
        <time>2014-03-16T10:33:52Z</time>
      </trkpt>
      <trkpt lat="47.54198" lon="-0.63356">
        <ele>51.57</ele>
        <time>2014-03-16T10:33:59Z</time>
      </trkpt>
      <trkpt lat="47.54192" lon="-0.63384">
        <ele>52.53</ele>
        <time>2014-03-16T10:34:07Z</time>
      </trkpt>
      <trkpt lat="47.54188" lon="-0.63405">
        <ele>53.97</ele>
        <time>2014-03-16T10:34:12Z</time>
      </trkpt>
      <trkpt lat="47.54177" lon="-0.63438">
        <ele>54.93</ele>
        <time>2014-03-16T10:34:21Z</time>
      </trkpt>
      <trkpt lat="47.54168" lon="-0.63459">
        <ele>56.37</ele>
        <time>2014-03-16T10:34:28Z</time>
      </trkpt>
      <trkpt lat="47.54158" lon="-0.63472">
        <ele>56.86</ele>
        <time>2014-03-16T10:34:34Z</time>
      </trkpt>
      <trkpt lat="47.54141" lon="-0.63492">
        <ele>58.3</ele>
        <time>2014-03-16T10:34:43Z</time>
      </trkpt>
      <trkpt lat="47.54124" lon="-0.63512">
        <ele>58.78</ele>
        <time>2014-03-16T10:34:51Z</time>
      </trkpt>
      <trkpt lat="47.54104" lon="-0.63534">
        <ele>59.74</ele>
        <time>2014-03-16T10:34:59Z</time>
      </trkpt>
      <trkpt lat="47.54082" lon="-0.63559">
        <ele>60.22</ele>
        <time>2014-03-16T10:35:08Z</time>
      </trkpt>
      <trkpt lat="47.54057" lon="-0.63591">
        <ele>61.18</ele>
        <time>2014-03-16T10:35:18Z</time>
      </trkpt>
      <trkpt lat="47.54033" lon="-0.63619">
        <ele>61.66</ele>
        <time>2014-03-16T10:35:27Z</time>
      </trkpt>
      <trkpt lat="47.54005" lon="-0.6365">
        <ele>62.14</ele>
        <time>2014-03-16T10:35:38Z</time>
      </trkpt>
      <trkpt lat="47.53983" lon="-0.63675">
        <ele>62.62</ele>
        <time>2014-03-16T10:35:46Z</time>
      </trkpt>
      <trkpt lat="47.5396" lon="-0.637">
        <ele>63.1</ele>
        <time>2014-03-16T10:35:54Z</time>
      </trkpt>
      <trkpt lat="47.53943" lon="-0.6372">
        <ele>63.58</ele>
        <time>2014-03-16T10:36:00Z</time>
      </trkpt>
      <trkpt lat="47.53917" lon="-0.63751">
        <ele>63.58</ele>
        <time>2014-03-16T10:36:09Z</time>
      </trkpt>
      <trkpt lat="47.53896" lon="-0.63772">
        <ele>64.55</ele>
        <time>2014-03-16T10:36:16Z</time>
      </trkpt>
      <trkpt lat="47.53873" lon="-0.63789">
        <ele>65.03</ele>
        <time>2014-03-16T10:36:24Z</time>
      </trkpt>
      <trkpt lat="47.53848" lon="-0.63797">
        <ele>65.51</ele>
        <time>2014-03-16T10:36:32Z</time>
      </trkpt>
      <trkpt lat="47.53833" lon="-0.63816">
        <ele>66.95</ele>
        <time>2014-03-16T10:36:40Z</time>
      </trkpt>
      <trkpt lat="47.5382" lon="-0.63839">
        <ele>67.43</ele>
        <time>2014-03-16T10:36:47Z</time>
      </trkpt>
      <trkpt lat="47.53803" lon="-0.63876">
        <ele>68.87</ele>
        <time>2014-03-16T10:36:57Z</time>
      </trkpt>
      <trkpt lat="47.53789" lon="-0.639">
        <ele>69.35</ele>
        <time>2014-03-16T10:37:04Z</time>
      </trkpt>
      <trkpt lat="47.53769" lon="-0.63922">
        <ele>70.79</ele>
        <time>2014-03-16T10:37:12Z</time>
      </trkpt>
      <trkpt lat="47.53741" lon="-0.63955">
        <ele>71.76</ele>
        <time>2014-03-16T10:37:22Z</time>
      </trkpt>
      <trkpt lat="47.53715" lon="-0.63985">
        <ele>72.24</ele>
        <time>2014-03-16T10:37:32Z</time>
      </trkpt>
      <trkpt lat="47.53692" lon="-0.64012">
        <ele>73.2</ele>
        <time>2014-03-16T10:37:41Z</time>
      </trkpt>
      <trkpt lat="47.5368" lon="-0.64037">
        <ele>72.24</ele>
        <time>2014-03-16T10:37:48Z</time>
      </trkpt>
      <trkpt lat="47.5368" lon="-0.64039">
        <ele>72.24</ele>
        <time>2014-03-16T10:37:52Z</time>
      </trkpt>
      <trkpt lat="47.5368" lon="-0.64039">
        <ele>72.24</ele>
        <time>2014-03-16T10:38:02Z</time>
      </trkpt>
      <trkpt lat="47.53679" lon="-0.64046">
        <ele>71.76</ele>
        <time>2014-03-16T10:38:12Z</time>
      </trkpt>
      <trkpt lat="47.53681" lon="-0.64066">
        <ele>71.76</ele>
        <time>2014-03-16T10:38:17Z</time>
      </trkpt>
      <trkpt lat="47.53687" lon="-0.64105">
        <ele>72.72</ele>
        <time>2014-03-16T10:38:25Z</time>
      </trkpt>
      <trkpt lat="47.53692" lon="-0.64132">
        <ele>71.76</ele>
        <time>2014-03-16T10:38:31Z</time>
      </trkpt>
      <trkpt lat="47.53702" lon="-0.64182">
        <ele>73.2</ele>
        <time>2014-03-16T10:38:40Z</time>
      </trkpt>
      <trkpt lat="47.53715" lon="-0.64241">
        <ele>72.72</ele>
        <time>2014-03-16T10:38:50Z</time>
      </trkpt>
      <trkpt lat="47.53724" lon="-0.64279">
        <ele>73.2</ele>
        <time>2014-03-16T10:38:56Z</time>
      </trkpt>
      <trkpt lat="47.53739" lon="-0.64352">
        <ele>74.16</ele>
        <time>2014-03-16T10:39:07Z</time>
      </trkpt>
      <trkpt lat="47.5375" lon="-0.64404">
        <ele>74.16</ele>
        <time>2014-03-16T10:39:15Z</time>
      </trkpt>
      <trkpt lat="47.5377" lon="-0.64472">
        <ele>74.64</ele>
        <time>2014-03-16T10:39:26Z</time>
      </trkpt>
      <trkpt lat="47.53787" lon="-0.6453">
        <ele>76.08</ele>
        <time>2014-03-16T10:39:36Z</time>
      </trkpt>
      <trkpt lat="47.53799" lon="-0.64584">
        <ele>77.52</ele>
        <time>2014-03-16T10:39:45Z</time>
      </trkpt>
      <trkpt lat="47.53809" lon="-0.64639">
        <ele>77.52</ele>
        <time>2014-03-16T10:39:54Z</time>
      </trkpt>
      <trkpt lat="47.53817" lon="-0.64707">
        <ele>78.48</ele>
        <time>2014-03-16T10:40:04Z</time>
      </trkpt>
      <trkpt lat="47.53825" lon="-0.64763">
        <ele>78.97</ele>
        <time>2014-03-16T10:40:13Z</time>
      </trkpt>
      <trkpt lat="47.53836" lon="-0.64823">
        <ele>79.45</ele>
        <time>2014-03-16T10:40:22Z</time>
      </trkpt>
      <trkpt lat="47.53844" lon="-0.64862">
        <ele>79.45</ele>
        <time>2014-03-16T10:40:28Z</time>
      </trkpt>
      <trkpt lat="47.5385" lon="-0.64887">
        <ele>79.45</ele>
        <time>2014-03-16T10:40:32Z</time>
      </trkpt>
      <trkpt lat="47.53865" lon="-0.6495">
        <ele>79.93</ele>
        <time>2014-03-16T10:40:42Z</time>
      </trkpt>
      <trkpt lat="47.53882" lon="-0.65015">
        <ele>80.89</ele>
        <time>2014-03-16T10:40:53Z</time>
      </trkpt>
      <trkpt lat="47.53887" lon="-0.65032">
        <ele>80.89</ele>
        <time>2014-03-16T10:40:56Z</time>
      </trkpt>
      <trkpt lat="47.53909" lon="-0.65093">
        <ele>81.37</ele>
        <time>2014-03-16T10:41:07Z</time>
      </trkpt>
      <trkpt lat="47.53932" lon="-0.65159">
        <ele>81.37</ele>
        <time>2014-03-16T10:41:18Z</time>
      </trkpt>
      <trkpt lat="47.53945" lon="-0.6522">
        <ele>80.89</ele>
        <time>2014-03-16T10:41:27Z</time>
      </trkpt>
      <trkpt lat="47.53948" lon="-0.65291">
        <ele>82.33</ele>
        <time>2014-03-16T10:41:37Z</time>
      </trkpt>
      <trkpt lat="47.53952" lon="-0.65378">
        <ele>83.29</ele>
        <time>2014-03-16T10:41:50Z</time>
      </trkpt>
      <trkpt lat="47.53963" lon="-0.65439">
        <ele>84.25</ele>
        <time>2014-03-16T10:42:00Z</time>
      </trkpt>
      <trkpt lat="47.53975" lon="-0.65502">
        <ele>84.73</ele>
        <time>2014-03-16T10:42:11Z</time>
      </trkpt>
      <trkpt lat="47.53978" lon="-0.65553">
        <ele>85.69</ele>
        <time>2014-03-16T10:42:20Z</time>
      </trkpt>
      <trkpt lat="47.53982" lon="-0.65604">
        <ele>87.14</ele>
        <time>2014-03-16T10:42:29Z</time>
      </trkpt>
      <trkpt lat="47.53985" lon="-0.65662">
        <ele>87.14</ele>
        <time>2014-03-16T10:42:39Z</time>
      </trkpt>
      <trkpt lat="47.53989" lon="-0.65729">
        <ele>87.62</ele>
        <time>2014-03-16T10:42:50Z</time>
      </trkpt>
      <trkpt lat="47.53995" lon="-0.658">
        <ele>87.14</ele>
        <time>2014-03-16T10:43:01Z</time>
      </trkpt>
      <trkpt lat="47.53998" lon="-0.65826">
        <ele>87.62</ele>
        <time>2014-03-16T10:43:05Z</time>
      </trkpt>
      <trkpt lat="47.54" lon="-0.65857">
        <ele>87.62</ele>
        <time>2014-03-16T10:43:10Z</time>
      </trkpt>
      <trkpt lat="47.54013" lon="-0.65925">
        <ele>87.62</ele>
        <time>2014-03-16T10:43:20Z</time>
      </trkpt>
      <trkpt lat="47.54028" lon="-0.65987">
        <ele>87.62</ele>
        <time>2014-03-16T10:43:29Z</time>
      </trkpt>
      <trkpt lat="47.54041" lon="-0.6606">
        <ele>87.62</ele>
        <time>2014-03-16T10:43:39Z</time>
      </trkpt>
      <trkpt lat="47.54054" lon="-0.66141">
        <ele>88.1</ele>
        <time>2014-03-16T10:43:50Z</time>
      </trkpt>
      <trkpt lat="47.54069" lon="-0.6621">
        <ele>87.62</ele>
        <time>2014-03-16T10:44:00Z</time>
      </trkpt>
      <trkpt lat="47.54073" lon="-0.66228">
        <ele>87.62</ele>
        <time>2014-03-16T10:44:03Z</time>
      </trkpt>
      <trkpt lat="47.54084" lon="-0.66289">
        <ele>88.1</ele>
        <time>2014-03-16T10:44:12Z</time>
      </trkpt>
      <trkpt lat="47.54088" lon="-0.66322">
        <ele>88.58</ele>
        <time>2014-03-16T10:44:17Z</time>
      </trkpt>
      <trkpt lat="47.54091" lon="-0.66354">
        <ele>88.58</ele>
        <time>2014-03-16T10:44:23Z</time>
      </trkpt>
      <trkpt lat="47.54094" lon="-0.6637">
        <ele>88.58</ele>
        <time>2014-03-16T10:44:29Z</time>
      </trkpt>
      <trkpt lat="47.54097" lon="-0.66376">
        <ele>88.1</ele>
        <time>2014-03-16T10:44:32Z</time>
      </trkpt>
      <trkpt lat="47.54092" lon="-0.66381">
        <ele>88.1</ele>
        <time>2014-03-16T10:44:37Z</time>
      </trkpt>
      <trkpt lat="47.54091" lon="-0.66361">
        <ele>88.1</ele>
        <time>2014-03-16T10:44:42Z</time>
      </trkpt>
      <trkpt lat="47.54089" lon="-0.66352">
        <ele>87.62</ele>
        <time>2014-03-16T10:44:45Z</time>
      </trkpt>
      <trkpt lat="47.54086" lon="-0.66338">
        <ele>87.62</ele>
        <time>2014-03-16T10:44:52Z</time>
      </trkpt>
      <trkpt lat="47.54091" lon="-0.66346">
        <ele>88.1</ele>
        <time>2014-03-16T10:44:57Z</time>
      </trkpt>
      <trkpt lat="47.54092" lon="-0.66351">
        <ele>88.1</ele>
        <time>2014-03-16T10:44:58Z</time>
      </trkpt>
      <trkpt lat="47.54098" lon="-0.6641">
        <ele>88.1</ele>
        <time>2014-03-16T10:45:07Z</time>
      </trkpt>
      <trkpt lat="47.54105" lon="-0.66479">
        <ele>88.1</ele>
        <time>2014-03-16T10:45:17Z</time>
      </trkpt>
      <trkpt lat="47.54114" lon="-0.66546">
        <ele>87.62</ele>
        <time>2014-03-16T10:45:27Z</time>
      </trkpt>
      <trkpt lat="47.54123" lon="-0.66619">
        <ele>88.1</ele>
        <time>2014-03-16T10:45:38Z</time>
      </trkpt>
      <trkpt lat="47.54124" lon="-0.66626">
        <ele>88.1</ele>
        <time>2014-03-16T10:45:39Z</time>
      </trkpt>
      <trkpt lat="47.54133" lon="-0.66694">
        <ele>88.1</ele>
        <time>2014-03-16T10:45:49Z</time>
      </trkpt>
      <trkpt lat="47.54145" lon="-0.6676">
        <ele>89.06</ele>
        <time>2014-03-16T10:45:59Z</time>
      </trkpt>
      <trkpt lat="47.54157" lon="-0.66796">
        <ele>89.54</ele>
        <time>2014-03-16T10:46:05Z</time>
      </trkpt>
      <trkpt lat="47.54182" lon="-0.66848">
        <ele>89.54</ele>
        <time>2014-03-16T10:46:15Z</time>
      </trkpt>
      <trkpt lat="47.54186" lon="-0.66858">
        <ele>90.02</ele>
        <time>2014-03-16T10:46:17Z</time>
      </trkpt>
      <trkpt lat="47.54196" lon="-0.66888">
        <ele>90.02</ele>
        <time>2014-03-16T10:46:22Z</time>
      </trkpt>
      <trkpt lat="47.54205" lon="-0.66908">
        <ele>89.06</ele>
        <time>2014-03-16T10:46:27Z</time>
      </trkpt>
      <trkpt lat="47.54205" lon="-0.66908">
        <ele>89.06</ele>
        <time>2014-03-16T10:46:32Z</time>
      </trkpt>
      <trkpt lat="47.54205" lon="-0.66907">
        <ele>89.54</ele>
        <time>2014-03-16T10:46:44Z</time>
      </trkpt>
      <trkpt lat="47.54205" lon="-0.66906">
        <ele>89.54</ele>
        <time>2014-03-16T10:46:51Z</time>
      </trkpt>
      <trkpt lat="47.54205" lon="-0.66906">
        <ele>89.54</ele>
        <time>2014-03-16T10:47:07Z</time>
      </trkpt>
      <trkpt lat="47.54205" lon="-0.66906">
        <ele>89.54</ele>
        <time>2014-03-16T10:47:26Z</time>
      </trkpt>
      <trkpt lat="47.54206" lon="-0.66908">
        <ele>89.06</ele>
        <time>2014-03-16T10:47:39Z</time>
      </trkpt>
      <trkpt lat="47.54206" lon="-0.66908">
        <ele>89.06</ele>
        <time>2014-03-16T10:47:42Z</time>
      </trkpt>
      <trkpt lat="47.54207" lon="-0.66925">
        <ele>89.54</ele>
        <time>2014-03-16T10:47:48Z</time>
      </trkpt>
      <trkpt lat="47.54212" lon="-0.66939">
        <ele>89.54</ele>
        <time>2014-03-16T10:47:51Z</time>
      </trkpt>
      <trkpt lat="47.54217" lon="-0.66964">
        <ele>89.54</ele>
        <time>2014-03-16T10:47:55Z</time>
      </trkpt>
      <trkpt lat="47.54228" lon="-0.67032">
        <ele>90.5</ele>
        <time>2014-03-16T10:48:05Z</time>
      </trkpt>
      <trkpt lat="47.54229" lon="-0.67098">
        <ele>90.5</ele>
        <time>2014-03-16T10:48:14Z</time>
      </trkpt>
      <trkpt lat="47.54228" lon="-0.67157">
        <ele>90.5</ele>
        <time>2014-03-16T10:48:22Z</time>
      </trkpt>
      <trkpt lat="47.54232" lon="-0.67191">
        <ele>90.98</ele>
        <time>2014-03-16T10:48:27Z</time>
      </trkpt>
      <trkpt lat="47.54243" lon="-0.67227">
        <ele>90.98</ele>
        <time>2014-03-16T10:48:33Z</time>
      </trkpt>
      <trkpt lat="47.54263" lon="-0.67258">
        <ele>90.5</ele>
        <time>2014-03-16T10:48:40Z</time>
      </trkpt>
      <trkpt lat="47.54303" lon="-0.67301">
        <ele>90.02</ele>
        <time>2014-03-16T10:48:49Z</time>
      </trkpt>
      <trkpt lat="47.54338" lon="-0.67337">
        <ele>88.58</ele>
        <time>2014-03-16T10:48:56Z</time>
      </trkpt>
      <trkpt lat="47.54377" lon="-0.67378">
        <ele>87.62</ele>
        <time>2014-03-16T10:49:04Z</time>
      </trkpt>
      <trkpt lat="47.54381" lon="-0.67383">
        <ele>87.14</ele>
        <time>2014-03-16T10:49:05Z</time>
      </trkpt>
      <trkpt lat="47.54394" lon="-0.67397">
        <ele>86.18</ele>
        <time>2014-03-16T10:49:10Z</time>
      </trkpt>
      <trkpt lat="47.54398" lon="-0.67387">
        <ele>85.69</ele>
        <time>2014-03-16T10:49:14Z</time>
      </trkpt>
      <trkpt lat="47.54398" lon="-0.67386">
        <ele>86.18</ele>
        <time>2014-03-16T10:49:20Z</time>
      </trkpt>
      <trkpt lat="47.54398" lon="-0.67386">
        <ele>85.69</ele>
        <time>2014-03-16T10:49:30Z</time>
      </trkpt>
      <trkpt lat="47.54398" lon="-0.67386">
        <ele>86.18</ele>
        <time>2014-03-16T10:49:44Z</time>
      </trkpt>
      <trkpt lat="47.54398" lon="-0.67386">
        <ele>86.66</ele>
        <time>2014-03-16T10:50:09Z</time>
      </trkpt>
      <trkpt lat="47.54398" lon="-0.67386">
        <ele>86.66</ele>
        <time>2014-03-16T10:50:15Z</time>
      </trkpt>
    </trkseg>
  </trk>
</gpx>